| time (UTC) | temp F | wind direction | speed knots | gust knots | rain 1hr in | rain 24hr in | rain mn in | humidity % | barometer mb |
| 20260507225004 | 54 | 301 | 1.7 | 7.8 | 0.00 | 0.00 | 0.00 | 58 | 1017.4 |
| 20260507224906 | 54 | 303 | 1.7 | 7.8 | 0.00 | 0.00 | 0.00 | 58 | 1017.5 |
| 20260507224805 | 54 | 313 | 1.7 | 7.8 | 0.00 | 0.00 | 0.00 | 58 | 1017.4 |
| 20260507224705 | 54 | 322 | 1.7 | 5.2 | 0.00 | 0.00 | 0.00 | 58 | 1017.5 |
| 20260507224605 | 54 | 321 | 1.7 | 5.2 | 0.00 | 0.00 | 0.00 | 59 | 1017.6 |
| 20260507224505 | 54 | 317 | 1.7 | 5.2 | 0.00 | 0.00 | 0.00 | 59 | 1017.5 |
| 20260507224404 | 54 | 314 | 1.7 | 5.2 | 0.00 | 0.00 | 0.00 | 59 | 1017.7 |
| 20260507224305 | 54 | 310 | 1.7 | 5.2 | 0.00 | 0.00 | 0.00 | 59 | 1017.5 |
| 20260507224205 | 54 | 304 | 1.7 | 5.2 | 0.00 | 0.00 | 0.00 | 58 | 1017.5 |
| 20260507224105 | 54 | 301 | 1.7 | 5.2 | 0.00 | 0.00 | 0.00 | 58 | 1017.4 |
| 20260507224004 | 53 | 292 | 0.9 | 5.2 | 0.00 | 0.00 | 0.00 | 59 | 1017.6 |
| 20260507223920 | 53 | 287 | 0.9 | 5.2 | 0.00 | 0.00 | 0.00 | 59 | 1017.6 |
| 20260507223905 | 53 | 282 | 0.9 | 5.2 | 0.00 | 0.00 | 0.00 | 59 | 1017.6 |
| 20260507223819 | 53 | 267 | 0.9 | 5.2 | 0.00 | 0.00 | 0.00 | 59 | 1017.6 |
| 20260507223804 | 53 | 262 | 0.9 | 5.2 | 0.00 | 0.00 | 0.00 | 59 | 1017.6 |
| 20260507223519 | 53 | 223 | 0.9 | 5.2 | 0.00 | 0.00 | 0.00 | 60 | 1017.4 |
| 20260507223504 | 53 | 224 | 0.9 | 5.2 | 0.00 | 0.00 | 0.00 | 60 | 1017.4 |
| 20260507223420 | 53 | 226 | 0.9 | 5.2 | 0.00 | 0.00 | 0.00 | 60 | 1017.4 |
| 20260507223404 | 53 | 227 | 0.9 | 5.2 | 0.00 | 0.00 | 0.00 | 60 | 1017.5 |
| 20260507223320 | 53 | 229 | 0.9 | 5.2 | 0.00 | 0.00 | 0.00 | 59 | 1017.5 |
| 20260507223005 | 53 | 253 | 0.9 | 5.2 | 0.00 | 0.00 | 0.00 | 59 | 1017.4 |
| 20260507222904 | 53 | 256 | 0.9 | 5.2 | 0.00 | 0.00 | 0.00 | 58 | 1017.4 |
| 20260507222805 | 53 | 263 | 0.9 | 5.2 | 0.00 | 0.00 | 0.00 | 58 | 1017.5 |
| 20260507222704 | 53 | 268 | 0.9 | 5.2 | 0.00 | 0.00 | 0.00 | 58 | 1017.5 |
| 20260507222604 | 53 | 283 | 0.9 | 5.2 | 0.00 | 0.00 | 0.00 | 59 | 1017.5 |
| 20260507222505 | 53 | 291 | 0.9 | 3.5 | 0.00 | 0.00 | 0.00 | 59 | 1017.3 |
| 20260507222405 | 53 | 302 | 0.9 | 3.5 | 0.00 | 0.00 | 0.00 | 58 | 1017.4 |
| 20260507222320 | 52 | 307 | 0.9 | 3.5 | 0.00 | 0.00 | 0.00 | 59 | 1017.4 |
| 20260507222306 | 52 | 311 | 0.9 | 3.5 | 0.00 | 0.00 | 0.00 | 59 | 1017.4 |
| 20260507222206 | 52 | 326 | 0.9 | 2.6 | 0.00 | 0.00 | 0.00 | 59 | 1017.2 |
| 20260507222006 | 52 | 333 | 0.9 | 2.6 | 0.00 | 0.00 | 0.00 | 60 | 1017.1 |
| 20260507221906 | 52 | 331 | 0.9 | 2.6 | 0.00 | 0.00 | 0.00 | 60 | 1017.5 |
| 20260507221806 | 52 | 326 | 0.9 | 2.6 | 0.00 | 0.00 | 0.00 | 60 | 1017.4 |
| 20260507221706 | 52 | 323 | 0.9 | 2.6 | 0.00 | 0.00 | 0.00 | 60 | 1017.4 |
| 20260507221620 | 52 | 319 | 0.9 | 2.6 | 0.00 | 0.00 | 0.00 | 59 | 1017.4 |
| 20260507221605 | 52 | 316 | 0.9 | 2.6 | 0.00 | 0.00 | 0.00 | 59 | 1017.3 |
| 20260507221519 | 52 | 314 | 0.9 | 2.6 | 0.00 | 0.00 | 0.00 | 59 | 1017.3 |
| 20260507221504 | 52 | 313 | 0.9 | 2.6 | 0.00 | 0.00 | 0.00 | 59 | 1017.5 |
| 20260507221218 | 52 | 291 | 0.9 | 2.6 | 0.00 | 0.00 | 0.00 | 59 | 1017.4 |
| 20260507221205 | 52 | 291 | 0.9 | 2.6 | 0.00 | 0.00 | 0.00 | 59 | 1017.4 |
| 20260507221106 | 52 | 291 | 0.9 | 2.6 | 0.00 | 0.00 | 0.00 | 59 | 1017.5 |
| 20260507220920 | 52 | 291 | 0.9 | 2.6 | 0.00 | 0.00 | 0.00 | 59 | 1017.4 |
| 20260507220904 | 52 | 291 | 0.9 | 2.6 | 0.00 | 0.00 | 0.00 | 59 | 1017.7 |
| 20260507220819 | 52 | 291 | 0.9 | 2.6 | 0.00 | 0.00 | 0.00 | 59 | 1017.7 |
| 20260507220805 | 52 | 292 | 0.9 | 2.6 | 0.00 | 0.00 | 0.00 | 59 | 1017.4 |
| 20260507220505 | 52 | 291 | 0.9 | 3.5 | 0.00 | 0.00 | 0.00 | 59 | 1017.7 |
| 20260507220405 | 52 | 288 | 0.9 | 3.5 | 0.00 | 0.00 | 0.00 | 59 | 1017.7 |
| 20260507220306 | 52 | 285 | 0.9 | 3.5 | 0.00 | 0.00 | 0.00 | 59 | 1017.5 |
| 20260507220205 | 51 | 294 | 0.9 | 6.1 | 0.00 | 0.00 | 0.00 | 59 | 1017.6 |
| 20260507220119 | 51 | 295 | 0.9 | 6.1 | 0.00 | 0.00 | 0.00 | 58 | 1017.6 |
| 20260507220105 | 51 | 294 | 0.9 | 6.1 | 0.00 | 0.00 | 0.00 | 58 | 1017.3 |
| 20260507220005 | 51 | 292 | 1.7 | 6.1 | 0.00 | 0.00 | 0.00 | 58 | 1017.5 |
| 20260507215805 | 51 | 294 | 1.7 | 6.1 | 0.00 | 0.00 | 0.00 | 58 | 1017.6 |
| 20260507215704 | 51 | 293 | 1.7 | 6.1 | 0.00 | 0.00 | 0.00 | 58 | 1017.5 |
| 20260507215605 | 51 | 293 | 1.7 | 6.1 | 0.00 | 0.00 | 0.00 | 58 | 1017.5 |
| 20260507215505 | 51 | 295 | 1.7 | 6.1 | 0.00 | 0.00 | 0.00 | 58 | 1017.3 |
| 20260507215405 | 51 | 297 | 1.7 | 6.1 | 0.00 | 0.00 | 0.00 | 58 | 1017.4 |
| 20260507215320 | 51 | 303 | 1.7 | 6.1 | 0.00 | 0.00 | 0.00 | 59 | 1017.4 |
| 20260507215307 | 51 | 303 | 1.7 | 6.1 | 0.00 | 0.00 | 0.00 | 59 | 1017.5 |
| 20260507215220 | 51 | 299 | 1.7 | 6.1 | 0.00 | 0.00 | 0.00 | 59 | 1017.5 |
| 20260507215204 | 51 | 297 | 1.7 | 6.1 | 0.00 | 0.00 | 0.00 | 59 | 1017.5 |
| 20260507214905 | 51 | 293 | 0.9 | 3.5 | 0.00 | 0.00 | 0.00 | 60 | 1017.5 |
| 20260507214819 | 51 | 297 | 0.9 | 3.5 | 0.00 | 0.00 | 0.00 | 59 | 1017.5 |
| 20260507214805 | 51 | 297 | 0.9 | 3.5 | 0.00 | 0.00 | 0.00 | 59 | 1017.3 |
| 20260507214704 | 51 | 299 | 0.9 | 3.5 | 0.00 | 0.00 | 0.00 | 59 | 1017.2 |
| 20260507214505 | 51 | 303 | 0.9 | 3.5 | 0.00 | 0.00 | 0.00 | 58 | 1017.3 |
| 20260507214406 | 51 | 300 | 1.7 | 3.5 | 0.00 | 0.00 | 0.00 | 58 | 1017.3 |
| 20260507214318 | 51 | 297 | 0.9 | 3.5 | 0.00 | 0.00 | 0.00 | 58 | 1017.3 |
| 20260507214304 | 51 | 297 | 0.9 | 3.5 | 0.00 | 0.00 | 0.00 | 58 | 1017.4 |
| 20260507214205 | 51 | 299 | 0.9 | 3.5 | 0.00 | 0.00 | 0.00 | 58 | 1017.3 |
| 20260507214006 | 51 | 298 | 1.7 | 3.5 | 0.00 | 0.00 | 0.00 | 58 | 1017.3 |
| 20260507213905 | 51 | 301 | 1.7 | 3.5 | 0.00 | 0.00 | 0.00 | 58 | 1017.2 |
| 20260507213804 | 51 | 297 | 0.9 | 3.5 | 0.00 | 0.00 | 0.00 | 58 | 1017.2 |
| 20260507213705 | 51 | 295 | 0.9 | 3.5 | 0.00 | 0.00 | 0.00 | 58 | 1017.3 |
| 20260507213605 | 51 | 291 | 0.9 | 3.5 | 0.00 | 0.00 | 0.00 | 58 | 1017.5 |
| 20260507213521 | 51 | 288 | 0.9 | 3.5 | 0.00 | 0.00 | 0.00 | 58 | 1017.5 |
| 20260507213505 | 51 | 288 | 0.9 | 3.5 | 0.00 | 0.00 | 0.00 | 58 | 1017.3 |
| 20260507213404 | 51 | 289 | 0.9 | 3.5 | 0.00 | 0.00 | 0.00 | 57 | 1017.4 |
| 20260507213204 | 51 | 288 | 0.9 | 3.5 | 0.00 | 0.00 | 0.00 | 57 | 1017.2 |
| 20260507213119 | 51 | 288 | 0.9 | 3.5 | 0.00 | 0.00 | 0.00 | 57 | 1017.2 |
| 20260507213105 | 51 | 288 | 0.9 | 3.5 | 0.00 | 0.00 | 0.00 | 57 | 1017.3 |
| 20260507213020 | 51 | 288 | 0.9 | 2.6 | 0.00 | 0.00 | 0.00 | 57 | 1017.3 |
| 20260507213006 | 51 | 287 | 0.9 | 2.6 | 0.00 | 0.00 | 0.00 | 57 | 1017.1 |
| 20260507212704 | 51 | 285 | 0.9 | 2.6 | 0.00 | 0.00 | 0.00 | 57 | 1017.1 |
| 20260507212604 | 51 | 284 | 0.9 | 2.6 | 0.00 | 0.00 | 0.00 | 57 | 1017.1 |
| 20260507212505 | 51 | 284 | 0.0 | 2.6 | 0.00 | 0.00 | 0.00 | 57 | 1017.1 |
| 20260507212404 | 51 | 282 | 0.9 | 2.6 | 0.00 | 0.00 | 0.00 | 57 | 1017.2 |
| 20260507212307 | 51 | 281 | 0.9 | 2.6 | 0.00 | 0.00 | 0.00 | 57 | 1017.1 |
| 20260507212220 | 51 | 278 | 0.0 | 2.6 | 0.00 | 0.00 | 0.00 | 57 | 1017.1 |
| 20260507212206 | 51 | 275 | 0.0 | 2.6 | 0.00 | 0.00 | 0.00 | 57 | 1017.2 |
| 20260507212119 | 51 | 273 | 0.0 | 1.7 | 0.00 | 0.00 | 0.00 | 57 | 1017.2 |
| 20260507212106 | 51 | 273 | 0.0 | 1.7 | 0.00 | 0.00 | 0.00 | 57 | 1017.1 |
| 20260507211805 | 51 | 260 | 0.9 | 2.6 | 0.00 | 0.00 | 0.00 | 57 | 1017.0 |
| 20260507211719 | 51 | 260 | 0.9 | 2.6 | 0.00 | 0.00 | 0.00 | 56 | 1017.0 |
| 20260507211706 | 51 | 259 | 0.9 | 2.6 | 0.00 | 0.00 | 0.00 | 56 | 1017.1 |
| 20260507211605 | 51 | 258 | 0.9 | 2.6 | 0.00 | 0.00 | 0.00 | 56 | 1017.3 |
| 20260507211404 | 51 | 252 | 0.9 | 2.6 | 0.00 | 0.00 | 0.00 | 55 | 1017.2 |
| 20260507211305 | 51 | 255 | 0.9 | 2.6 | 0.00 | 0.00 | 0.00 | 55 | 1017.2 |
| 20260507211205 | 50 | 258 | 0.9 | 2.6 | 0.00 | 0.00 | 0.00 | 55 | 1017.3 |
| 20260507211106 | 50 | 257 | 0.9 | 2.6 | 0.00 | 0.00 | 0.00 | 55 | 1017.3 |
| 20260507211004 | 50 | 255 | 0.9 | 2.6 | 0.00 | 0.00 | 0.00 | 55 | 1017.2 |
| 20260507210918 | 50 | 256 | 0.9 | 2.6 | 0.00 | 0.00 | 0.00 | 55 | 1017.2 |
| 20260507210905 | 50 | 258 | 0.9 | 2.6 | 0.00 | 0.00 | 0.00 | 55 | 1016.9 |
| 20260507210804 | 50 | 253 | 0.9 | 2.6 | 0.00 | 0.00 | 0.00 | 55 | 1017.1 |
| 20260507210605 | 50 | 250 | 0.9 | 2.6 | 0.00 | 0.00 | 0.00 | 55 | 1017.2 |
| 20260507210505 | 50 | 249 | 0.9 | 2.6 | 0.00 | 0.00 | 0.00 | 55 | 1017.1 |
| 20260507210405 | 50 | 249 | 0.9 | 2.6 | 0.00 | 0.00 | 0.00 | 55 | 1017.1 |
| 20260507210305 | 50 | 240 | 0.9 | 3.5 | 0.00 | 0.00 | 0.00 | 55 | 1017.1 |
| 20260507210205 | 50 | 235 | 0.9 | 3.5 | 0.00 | 0.00 | 0.00 | 55 | 1016.9 |
| 20260507210119 | 50 | 233 | 0.9 | 3.5 | 0.00 | 0.00 | 0.00 | 55 | 1016.9 |
| 20260507210105 | 50 | 233 | 0.9 | 3.5 | 0.00 | 0.00 | 0.00 | 55 | 1017.1 |
| 20260507210019 | 50 | 233 | 0.9 | 3.5 | 0.00 | 0.00 | 0.00 | 55 | 1017.1 |
| 20260507210005 | 50 | 233 | 0.9 | 3.5 | 0.00 | 0.00 | 0.00 | 55 | 1017.2 |
| 20260507205705 | 50 | 237 | 0.9 | 3.5 | 0.00 | 0.00 | 0.00 | 55 | 1016.9 |
| 20260507205604 | 50 | 237 | 1.7 | 3.5 | 0.00 | 0.00 | 0.00 | 55 | 1017.0 |
| 20260507205505 | 50 | 239 | 1.7 | 5.2 | 0.00 | 0.00 | 0.00 | 55 | 1017.0 |
| 20260507205404 | 50 | 238 | 1.7 | 5.2 | 0.00 | 0.00 | 0.00 | 55 | 1017.0 |
| 20260507205319 | 50 | 240 | 1.7 | 5.2 | 0.00 | 0.00 | 0.00 | 55 | 1017.0 |
| 20260507205306 | 50 | 239 | 1.7 | 5.2 | 0.00 | 0.00 | 0.00 | 55 | 1016.7 |
| 20260507205220 | 50 | 240 | 1.7 | 5.2 | 0.00 | 0.00 | 0.00 | 55 | 1016.7 |
| 20260507204905 | 50 | 238 | 1.7 | 5.2 | 0.00 | 0.00 | 0.00 | 55 | 1016.9 |
| 20260507204806 | 50 | 238 | 1.7 | 5.2 | 0.00 | 0.00 | 0.00 | 55 | 1016.8 |
| 20260507204721 | 50 | 237 | 1.7 | 5.2 | 0.00 | 0.00 | 0.00 | 55 | 1016.8 |
| 20260507204705 | 50 | 236 | 1.7 | 5.2 | 0.00 | 0.00 | 0.00 | 55 | 1016.8 |
| 20260507204605 | 50 | 235 | 1.7 | 5.2 | 0.00 | 0.00 | 0.00 | 55 | 1016.7 |
| 20260507204404 | 50 | 227 | 1.7 | 5.2 | 0.00 | 0.00 | 0.00 | 55 | 1016.8 |
| 20260507204305 | 50 | 229 | 1.7 | 6.1 | 0.00 | 0.00 | 0.00 | 55 | 1016.7 |
| 20260507204205 | 50 | 229 | 1.7 | 6.1 | 0.00 | 0.00 | 0.00 | 55 | 1016.8 |
| 20260507204104 | 50 | 229 | 1.7 | 6.1 | 0.00 | 0.00 | 0.00 | 55 | 1016.8 |
| 20260507204005 | 50 | 232 | 2.6 | 7.0 | 0.00 | 0.00 | 0.00 | 55 | 1016.8 |
| 20260507203904 | 50 | 232 | 2.6 | 7.0 | 0.00 | 0.00 | 0.00 | 55 | 1016.7 |
| 20260507203805 | 50 | 233 | 2.6 | 7.0 | 0.00 | 0.00 | 0.00 | 55 | 1016.8 |
| 20260507203705 | 50 | 234 | 2.6 | 7.0 | 0.00 | 0.00 | 0.00 | 55 | 1016.8 |
| 20260507203606 | 50 | 235 | 2.6 | 7.0 | 0.00 | 0.00 | 0.00 | 55 | 1016.8 |
| 20260507203520 | 50 | 235 | 2.6 | 7.0 | 0.00 | 0.00 | 0.00 | 55 | 1016.8 |
| 20260507203506 | 50 | 236 | 2.6 | 7.0 | 0.00 | 0.00 | 0.00 | 55 | 1016.9 |
| 20260507203406 | 50 | 239 | 2.6 | 7.0 | 0.00 | 0.00 | 0.00 | 55 | 1016.6 |
| 20260507203205 | 50 | 236 | 1.7 | 7.0 | 0.00 | 0.00 | 0.00 | 55 | 1016.6 |
| 20260507203105 | 50 | 232 | 1.7 | 7.0 | 0.00 | 0.00 | 0.00 | 55 | 1016.5 |
| 20260507203006 | 50 | 228 | 1.7 | 7.0 | 0.00 | 0.00 | 0.00 | 55 | 1016.6 |
| 20260507202906 | 50 | 227 | 1.7 | 6.1 | 0.00 | 0.00 | 0.00 | 55 | 1016.5 |
| 20260507202804 | 50 | 225 | 1.7 | 6.1 | 0.00 | 0.00 | 0.00 | 55 | 1016.7 |
| 20260507202706 | 50 | 220 | 1.7 | 5.2 | 0.00 | 0.00 | 0.00 | 55 | 1016.6 |
| 20260507202605 | 50 | 215 | 0.9 | 3.5 | 0.00 | 0.00 | 0.00 | 55 | 1016.8 |
| 20260507202506 | 50 | 216 | 0.9 | 3.5 | 0.00 | 0.00 | 0.00 | 55 | 1016.8 |
| 20260507202406 | 50 | 211 | 0.9 | 3.5 | 0.00 | 0.00 | 0.00 | 55 | 1016.8 |
| 20260507202307 | 50 | 212 | 0.9 | 2.6 | 0.00 | 0.00 | 0.00 | 55 | 1016.9 |
| 20260507202205 | 50 | 217 | 0.9 | 2.6 | 0.00 | 0.00 | 0.00 | 55 | 1017.0 |
| 20260507202105 | 50 | 223 | 1.7 | 5.2 | 0.00 | 0.00 | 0.00 | 55 | 1016.5 |
| 20260507202019 | 50 | 224 | 1.7 | 5.2 | 0.00 | 0.00 | 0.00 | 55 | 1016.5 |
| 20260507202005 | 50 | 225 | 1.7 | 5.2 | 0.00 | 0.00 | 0.00 | 55 | 1016.9 |
| 20260507201906 | 50 | 227 | 1.7 | 5.2 | 0.00 | 0.00 | 0.00 | 55 | 1016.7 |
| 20260507201704 | 50 | 232 | 1.7 | 5.2 | 0.00 | 0.00 | 0.00 | 55 | 1016.7 |
| 20260507201621 | 50 | 238 | 1.7 | 5.2 | 0.00 | 0.00 | 0.00 | 55 | 1016.7 |
| 20260507201605 | 50 | 238 | 1.7 | 5.2 | 0.00 | 0.00 | 0.00 | 55 | 1016.6 |
| 20260507201505 | 50 | 236 | 1.7 | 5.2 | 0.00 | 0.00 | 0.00 | 55 | 1016.7 |
| 20260507201306 | 50 | 232 | 1.7 | 5.2 | 0.00 | 0.00 | 0.00 | 55 | 1016.6 |
| 20260507201206 | 50 | 232 | 1.7 | 5.2 | 0.00 | 0.00 | 0.00 | 55 | 1016.6 |
| 20260507201105 | 50 | 230 | 1.7 | 5.2 | 0.00 | 0.00 | 0.00 | 55 | 1016.7 |
| 20260507201005 | 50 | 231 | 1.7 | 5.2 | 0.00 | 0.00 | 0.00 | 55 | 1016.7 |
| 20260507200906 | 50 | 228 | 1.7 | 5.2 | 0.00 | 0.00 | 0.00 | 55 | 1016.7 |
| 20260507200805 | 50 | 227 | 1.7 | 5.2 | 0.00 | 0.00 | 0.00 | 55 | 1016.6 |
| 20260507200705 | 50 | 227 | 1.7 | 5.2 | 0.00 | 0.00 | 0.00 | 55 | 1016.7 |
| 20260507200605 | 50 | 227 | 1.7 | 5.2 | 0.00 | 0.00 | 0.00 | 55 | 1016.7 |
| 20260507200520 | 50 | 228 | 1.7 | 5.2 | 0.00 | 0.00 | 0.00 | 55 | 1016.7 |
| 20260507200505 | 50 | 228 | 1.7 | 5.2 | 0.00 | 0.00 | 0.00 | 55 | 1016.6 |
| 20260507200406 | 50 | 230 | 1.7 | 5.2 | 0.00 | 0.00 | 0.00 | 55 | 1016.7 |
| 20260507200319 | 50 | 236 | 1.7 | 5.2 | 0.00 | 0.00 | 0.00 | 55 | 1016.7 |
| 20260507200205 | 50 | 237 | 1.7 | 5.2 | 0.00 | 0.00 | 0.00 | 55 | 1016.7 |
| 20260507200120 | 50 | 239 | 1.7 | 5.2 | 0.00 | 0.00 | 0.00 | 55 | 1016.7 |
| 20260507200004 | 50 | 238 | 1.7 | 5.2 | 0.00 | 0.00 | 0.00 | 55 | 1016.7 |
| 20260507195804 | 50 | 237 | 1.7 | 5.2 | 0.00 | 0.00 | 0.00 | 55 | 1016.6 |
| 20260507195705 | 50 | 236 | 1.7 | 5.2 | 0.00 | 0.00 | 0.00 | 55 | 1016.5 |
| 20260507195605 | 50 | 232 | 1.7 | 5.2 | 0.00 | 0.00 | 0.00 | 55 | 1016.6 |
| 20260507195505 | 50 | 229 | 1.7 | 6.1 | 0.00 | 0.00 | 0.00 | 55 | 1016.4 |
| 20260507195418 | 50 | 228 | 1.7 | 7.0 | 0.00 | 0.00 | 0.00 | 55 | 1016.4 |
| 20260507195404 | 50 | 227 | 1.7 | 7.0 | 0.00 | 0.00 | 0.00 | 55 | 1016.4 |
| 20260507195306 | 50 | 228 | 1.7 | 7.0 | 0.00 | 0.00 | 0.00 | 55 | 1016.6 |
| 20260507195104 | 50 | 224 | 1.7 | 7.0 | 0.00 | 0.00 | 0.00 | 55 | 1016.4 |
| 20260507195005 | 50 | 226 | 1.7 | 7.0 | 0.00 | 0.00 | 0.00 | 56 | 1016.1 |
| 20260507194905 | 50 | 228 | 1.7 | 7.0 | 0.00 | 0.00 | 0.00 | 55 | 1016.4 |
| 20260507194804 | 50 | 226 | 1.7 | 7.0 | 0.00 | 0.00 | 0.00 | 55 | 1016.7 |
| 20260507194705 | 50 | 227 | 1.7 | 7.0 | 0.00 | 0.00 | 0.00 | 55 | 1016.6 |
| 20260507194604 | 50 | 225 | 2.6 | 7.0 | 0.00 | 0.00 | 0.00 | 55 | 1016.4 |
| 20260507194505 | 50 | 225 | 1.7 | 7.0 | 0.00 | 0.00 | 0.00 | 55 | 1016.3 |
| 20260507194404 | 50 | 227 | 1.7 | 6.1 | 0.00 | 0.00 | 0.00 | 56 | 1016.3 |
| 20260507194305 | 50 | 225 | 1.7 | 6.1 | 0.00 | 0.00 | 0.00 | 56 | 1016.5 |
| 20260507194220 | 50 | 225 | 1.7 | 6.1 | 0.00 | 0.00 | 0.00 | 56 | 1016.5 |
| 20260507194205 | 50 | 226 | 1.7 | 6.1 | 0.00 | 0.00 | 0.00 | 56 | 1016.3 |
| 20260507194106 | 50 | 226 | 1.7 | 6.1 | 0.00 | 0.00 | 0.00 | 56 | 1016.2 |
| 20260507193904 | 50 | 229 | 1.7 | 6.1 | 0.00 | 0.00 | 0.00 | 56 | 1016.4 |
| 20260507193805 | 50 | 231 | 1.7 | 6.1 | 0.00 | 0.00 | 0.00 | 56 | 1016.3 |
| 20260507193719 | 50 | 231 | 1.7 | 6.1 | 0.00 | 0.00 | 0.00 | 56 | 1016.3 |
| 20260507193706 | 50 | 231 | 1.7 | 6.1 | 0.00 | 0.00 | 0.00 | 56 | 1016.1 |
| 20260507193619 | 50 | 235 | 1.7 | 6.1 | 0.00 | 0.00 | 0.00 | 56 | 1016.1 |
| 20260507193606 | 50 | 235 | 1.7 | 6.1 | 0.00 | 0.00 | 0.00 | 56 | 1016.2 |
| 20260507193306 | 50 | 237 | 1.7 | 7.0 | 0.00 | 0.00 | 0.00 | 56 | 1016.2 |
| 20260507193220 | 50 | 235 | 1.7 | 7.0 | 0.00 | 0.00 | 0.00 | 56 | 1016.2 |
| 20260507193204 | 50 | 235 | 1.7 | 7.0 | 0.00 | 0.00 | 0.00 | 56 | 1016.1 |
| 20260507193120 | 50 | 234 | 1.7 | 7.0 | 0.00 | 0.00 | 0.00 | 56 | 1016.1 |
| 20260507193104 | 50 | 232 | 1.7 | 7.0 | 0.00 | 0.00 | 0.00 | 56 | 1016.2 |
| 20260507192805 | 50 | 230 | 1.7 | 7.0 | 0.00 | 0.00 | 0.00 | 56 | 1016.1 |
| 20260507192706 | 50 | 226 | 1.7 | 7.0 | 0.00 | 0.00 | 0.00 | 56 | 1015.9 |
| 20260507192606 | 50 | 222 | 1.7 | 7.0 | 0.00 | 0.00 | 0.00 | 56 | 1016.0 |
| 20260507192506 | 50 | 214 | 1.7 | 7.0 | 0.00 | 0.00 | 0.00 | 56 | 1016.1 |
| 20260507192420 | 50 | 207 | 0.9 | 7.0 | 0.00 | 0.00 | 0.00 | 56 | 1016.1 |
| 20260507192406 | 50 | 204 | 0.9 | 7.0 | 0.00 | 0.00 | 0.00 | 56 | 1016.0 |
| 20260507192306 | 50 | 195 | 0.9 | 3.5 | 0.00 | 0.00 | 0.00 | 56 | 1016.0 |
| 20260507192106 | 50 | 195 | 1.7 | 3.5 | 0.00 | 0.00 | 0.00 | 56 | 1016.0 |
| 20260507192005 | 50 | 196 | 1.7 | 5.2 | 0.00 | 0.00 | 0.00 | 56 | 1016.1 |
| 20260507191919 | 50 | 192 | 1.7 | 5.2 | 0.00 | 0.00 | 0.00 | 56 | 1016.1 |
| 20260507191904 | 50 | 191 | 1.7 | 5.2 | 0.00 | 0.00 | 0.00 | 56 | 1016.0 |
| 20260507191805 | 50 | 187 | 1.7 | 5.2 | 0.00 | 0.00 | 0.00 | 56 | 1016.0 |
| 20260507191605 | 50 | 189 | 1.7 | 5.2 | 0.00 | 0.00 | 0.00 | 56 | 1016.0 |
| 20260507191504 | 50 | 195 | 1.7 | 5.2 | 0.00 | 0.00 | 0.00 | 56 | 1015.8 |
| 20260507191420 | 51 | 199 | 1.7 | 5.2 | 0.00 | 0.00 | 0.00 | 56 | 1015.8 |
| 20260507191405 | 51 | 201 | 1.7 | 5.2 | 0.00 | 0.00 | 0.00 | 56 | 1015.9 |
| 20260507191319 | 51 | 208 | 1.7 | 5.2 | 0.00 | 0.00 | 0.00 | 56 | 1015.9 |
| 20260507191305 | 51 | 210 | 1.7 | 5.2 | 0.00 | 0.00 | 0.00 | 56 | 1015.9 |
| 20260507191220 | 51 | 215 | 1.7 | 5.2 | 0.00 | 0.00 | 0.00 | 56 | 1015.9 |
| 20260507190904 | 51 | 221 | 1.7 | 5.2 | 0.00 | 0.00 | 0.00 | 56 | 1015.7 |
| 20260507190804 | 51 | 224 | 1.7 | 5.2 | 0.00 | 0.00 | 0.00 | 56 | 1015.5 |
| 20260507190705 | 51 | 221 | 1.7 | 5.2 | 0.00 | 0.00 | 0.00 | 56 | 1015.9 |
| 20260507190605 | 51 | 218 | 1.7 | 5.2 | 0.00 | 0.00 | 0.00 | 56 | 1015.9 |
| 20260507190505 | 51 | 215 | 1.7 | 5.2 | 0.00 | 0.00 | 0.00 | 56 | 1015.7 |
| 20260507190405 | 51 | 211 | 1.7 | 5.2 | 0.00 | 0.00 | 0.00 | 56 | 1015.8 |
| 20260507190305 | 51 | 209 | 1.7 | 5.2 | 0.00 | 0.00 | 0.00 | 56 | 1015.8 |
| 20260507190205 | 51 | 210 | 1.7 | 5.2 | 0.00 | 0.00 | 0.00 | 56 | 1015.9 |
| 20260507190006 | 51 | 213 | 1.7 | 5.2 | 0.00 | 0.00 | 0.00 | 56 | 1015.7 |
| 20260507185905 | 51 | 215 | 1.7 | 5.2 | 0.00 | 0.00 | 0.00 | 55 | 1015.7 |
| 20260507185806 | 51 | 219 | 1.7 | 5.2 | 0.00 | 0.00 | 0.00 | 55 | 1016.1 |
| 20260507185705 | 51 | 226 | 1.7 | 5.2 | 0.00 | 0.00 | 0.00 | 56 | 1015.9 |
| 20260507185605 | 51 | 228 | 1.7 | 5.2 | 0.00 | 0.00 | 0.00 | 56 | 1015.9 |
| 20260507185505 | 51 | 227 | 1.7 | 5.2 | 0.00 | 0.00 | 0.00 | 56 | 1015.8 |
| 20260507185405 | 51 | 229 | 1.7 | 5.2 | 0.00 | 0.00 | 0.00 | 56 | 1015.8 |
| 20260507185306 | 51 | 224 | 1.7 | 5.2 | 0.00 | 0.00 | 0.00 | 56 | 1015.5 |
| 20260507185205 | 51 | 221 | 1.7 | 5.2 | 0.00 | 0.00 | 0.00 | 55 | 1015.7 |
| 20260507185105 | 51 | 220 | 1.7 | 5.2 | 0.00 | 0.00 | 0.00 | 55 | 1015.6 |
| 20260507185005 | 51 | 217 | 1.7 | 5.2 | 0.00 | 0.00 | 0.00 | 55 | 1015.6 |
| 20260507184906 | 51 | 215 | 0.9 | 3.5 | 0.00 | 0.00 | 0.00 | 55 | 1015.4 |
| 20260507184806 | 51 | 210 | 0.9 | 3.5 | 0.00 | 0.00 | 0.00 | 55 | 1015.6 |
| 20260507184706 | 51 | 205 | 0.9 | 3.5 | 0.00 | 0.00 | 0.00 | 55 | 1015.8 |
| 20260507184619 | 51 | 198 | 0.9 | 3.5 | 0.00 | 0.00 | 0.00 | 55 | 1015.8 |
| 20260507184605 | 51 | 197 | 0.9 | 3.5 | 0.00 | 0.00 | 0.00 | 55 | 1015.7 |
| 20260507184505 | 51 | 190 | 0.9 | 3.5 | 0.00 | 0.00 | 0.00 | 55 | 1015.7 |
| 20260507184418 | 51 | 184 | 0.9 | 3.5 | 0.00 | 0.00 | 0.00 | 55 | 1015.7 |
| 20260507184305 | 51 | 188 | 0.9 | 3.5 | 0.00 | 0.00 | 0.00 | 55 | 1015.6 |
| 20260507184105 | 51 | 182 | 0.9 | 3.5 | 0.00 | 0.00 | 0.00 | 55 | 1015.5 |
| 20260507184004 | 51 | 178 | 0.9 | 3.5 | 0.00 | 0.00 | 0.00 | 55 | 1015.9 |
| 20260507183906 | 51 | 177 | 0.9 | 3.5 | 0.00 | 0.00 | 0.00 | 55 | 1015.9 |
| 20260507183805 | 51 | 174 | 0.9 | 3.5 | 0.00 | 0.00 | 0.00 | 55 | 1015.6 |
| 20260507183706 | 51 | 167 | 0.9 | 2.6 | 0.00 | 0.00 | 0.00 | 55 | 1015.5 |
| 20260507183619 | 51 | 169 | 0.9 | 2.6 | 0.00 | 0.00 | 0.00 | 55 | 1015.5 |
| 20260507183606 | 51 | 170 | 0.9 | 2.6 | 0.00 | 0.00 | 0.00 | 55 | 1015.6 |
| 20260507183519 | 51 | 173 | 0.9 | 2.6 | 0.00 | 0.00 | 0.00 | 55 | 1015.6 |
| 20260507183505 | 51 | 172 | 0.9 | 2.6 | 0.00 | 0.00 | 0.00 | 55 | 1015.5 |
| 20260507183320 | 51 | 165 | 0.9 | 2.6 | 0.00 | 0.00 | 0.00 | 55 | 1015.6 |
| 20260507183205 | 51 | 158 | 0.9 | 2.6 | 0.00 | 0.00 | 0.00 | 55 | 1015.5 |
| 20260507183120 | 51 | 156 | 0.9 | 2.6 | 0.00 | 0.00 | 0.00 | 55 | 1015.5 |
| 20260507183006 | 51 | 152 | 0.9 | 2.6 | 0.00 | 0.00 | 0.00 | 55 | 1015.7 |
| 20260507182806 | 51 | 144 | 0.9 | 1.7 | 0.00 | 0.00 | 0.00 | 55 | 1015.5 |
| 20260507182706 | 51 | 146 | 0.9 | 1.7 | 0.00 | 0.00 | 0.00 | 55 | 1015.4 |
| 20260507182606 | 51 | 148 | 0.9 | 1.7 | 0.00 | 0.00 | 0.00 | 54 | 1015.7 |
| 20260507182506 | 51 | 152 | 0.9 | 1.7 | 0.00 | 0.00 | 0.00 | 54 | 1015.5 |
| 20260507182405 | 51 | 156 | 0.9 | 1.7 | 0.00 | 0.00 | 0.00 | 54 | 1015.6 |
| 20260507182307 | 52 | 156 | 0.9 | 1.7 | 0.00 | 0.00 | 0.00 | 54 | 1015.4 |
| 20260507182204 | 52 | 158 | 0.9 | 2.6 | 0.00 | 0.00 | 0.00 | 54 | 1015.6 |
| 20260507182105 | 52 | 164 | 0.9 | 2.6 | 0.00 | 0.00 | 0.00 | 54 | 1015.6 |
| 20260507182006 | 52 | 171 | 0.9 | 2.6 | 0.00 | 0.00 | 0.00 | 54 | 1015.5 |
| 20260507181906 | 52 | 173 | 0.9 | 2.6 | 0.00 | 0.00 | 0.00 | 54 | 1015.4 |
| 20260507181819 | 52 | 175 | 0.9 | 2.6 | 0.00 | 0.00 | 0.00 | 54 | 1015.4 |
| 20260507181806 | 52 | 177 | 0.9 | 2.6 | 0.00 | 0.00 | 0.00 | 54 | 1015.6 |
| 20260507181706 | 52 | 177 | 0.9 | 2.6 | 0.00 | 0.00 | 0.00 | 54 | 1015.6 |
| 20260507181506 | 52 | 183 | 0.9 | 2.6 | 0.00 | 0.00 | 0.00 | 54 | 1015.3 |
| 20260507181405 | 52 | 183 | 0.9 | 2.6 | 0.00 | 0.00 | 0.00 | 54 | 1015.3 |
| 20260507181306 | 52 | 180 | 0.9 | 2.6 | 0.00 | 0.00 | 0.00 | 54 | 1015.4 |
| 20260507181205 | 52 | 182 | 0.9 | 2.6 | 0.00 | 0.00 | 0.00 | 54 | 1015.4 |
| 20260507181105 | 52 | 177 | 0.9 | 2.6 | 0.00 | 0.00 | 0.00 | 54 | 1015.3 |
| 20260507181006 | 52 | 169 | 0.9 | 2.6 | 0.00 | 0.00 | 0.00 | 53 | 1015.6 |
| 20260507180905 | 52 | 168 | 0.9 | 2.6 | 0.00 | 0.00 | 0.00 | 53 | 1015.5 |
| 20260507180805 | 52 | 162 | 0.9 | 2.6 | 0.00 | 0.00 | 0.00 | 53 | 1015.2 |
| 20260507180705 | 52 | 160 | 0.9 | 2.6 | 0.00 | 0.00 | 0.00 | 54 | 1015.5 |
| 20260507180604 | 52 | 144 | 0.9 | 1.7 | 0.00 | 0.00 | 0.00 | 53 | 1015.5 |
| 20260507180505 | 52 | 136 | 0.9 | 1.7 | 0.00 | 0.00 | 0.00 | 53 | 1015.7 |
| 20260507180405 | 52 | 136 | 0.9 | 3.5 | 0.00 | 0.00 | 0.00 | 53 | 1015.6 |
| 20260507180318 | 52 | 137 | 0.9 | 3.5 | 0.00 | 0.00 | 0.00 | 53 | 1015.6 |
| 20260507180306 | 52 | 138 | 0.9 | 3.5 | 0.00 | 0.00 | 0.00 | 53 | 1015.4 |
| 20260507180206 | 52 | 143 | 0.9 | 3.5 | 0.00 | 0.00 | 0.00 | 53 | 1015.5 |
| 20260507180005 | 52 | 143 | 0.9 | 3.5 | 0.00 | 0.00 | 0.00 | 53 | 1015.3 |
| 20260507175904 | 52 | 146 | 0.9 | 3.5 | 0.00 | 0.00 | 0.00 | 53 | 1015.3 |
| 20260507175821 | 52 | 148 | 0.9 | 3.5 | 0.00 | 0.00 | 0.00 | 53 | 1015.3 |
| 20260507175804 | 52 | 149 | 0.9 | 3.5 | 0.00 | 0.00 | 0.00 | 53 | 1015.4 |
| 20260507175706 | 52 | 150 | 1.7 | 3.5 | 0.00 | 0.00 | 0.00 | 53 | 1015.2 |
| 20260507175506 | 53 | 163 | 1.7 | 3.5 | 0.00 | 0.00 | 0.00 | 53 | 1015.3 |
| 20260507175420 | 53 | 165 | 1.7 | 3.5 | 0.00 | 0.00 | 0.00 | 53 | 1015.3 |
| 20260507175405 | 53 | 167 | 1.7 | 3.5 | 0.00 | 0.00 | 0.00 | 53 | 1015.1 |
| 20260507175307 | 53 | 176 | 1.7 | 3.5 | 0.00 | 0.00 | 0.00 | 53 | 1015.2 |
| 20260507175105 | 53 | 187 | 1.7 | 5.2 | 0.00 | 0.00 | 0.00 | 53 | 1015.3 |
| 20260507175006 | 53 | 192 | 1.7 | 5.2 | 0.00 | 0.00 | 0.00 | 53 | 1015.3 |
| 20260507174906 | 53 | 198 | 1.7 | 5.2 | 0.00 | 0.00 | 0.00 | 53 | 1015.4 |
| 20260507174806 | 53 | 204 | 1.7 | 5.2 | 0.00 | 0.00 | 0.00 | 53 | 1015.1 |
| 20260507174705 | 53 | 208 | 0.9 | 5.2 | 0.00 | 0.00 | 0.00 | 53 | 1015.1 |
| 20260507174606 | 53 | 210 | 1.7 | 5.2 | 0.00 | 0.00 | 0.00 | 53 | 1015.3 |
| 20260507174521 | 53 | 215 | 1.7 | 5.2 | 0.00 | 0.00 | 0.00 | 53 | 1015.3 |
| 20260507174505 | 53 | 217 | 1.7 | 5.2 | 0.00 | 0.00 | 0.00 | 53 | 1015.3 |
| 20260507174405 | 53 | 220 | 1.7 | 6.1 | 0.00 | 0.00 | 0.00 | 53 | 1015.3 |
| 20260507174204 | 53 | 220 | 1.7 | 7.0 | 0.00 | 0.00 | 0.00 | 53 | 1015.2 |
| 20260507174106 | 53 | 222 | 1.7 | 7.0 | 0.00 | 0.00 | 0.00 | 53 | 1015.2 |
| 20260507174020 | 53 | 226 | 1.7 | 7.8 | 0.00 | 0.00 | 0.00 | 53 | 1015.2 |
| 20260507174004 | 53 | 227 | 1.7 | 7.8 | 0.00 | 0.00 | 0.00 | 54 | 1015.3 |
| 20260507173906 | 53 | 229 | 1.7 | 7.8 | 0.00 | 0.00 | 0.00 | 54 | 1015.3 |
| 20260507173704 | 53 | 232 | 2.6 | 7.8 | 0.00 | 0.00 | 0.00 | 54 | 1015.3 |
| 20260507173605 | 53 | 235 | 2.6 | 7.8 | 0.00 | 0.00 | 0.00 | 53 | 1015.1 |
| 20260507173504 | 53 | 233 | 2.6 | 7.8 | 0.00 | 0.00 | 0.00 | 53 | 1015.4 |
| 20260507173405 | 53 | 236 | 2.6 | 7.8 | 0.00 | 0.00 | 0.00 | 54 | 1015.1 |
| 20260507173306 | 53 | 235 | 2.6 | 7.8 | 0.00 | 0.00 | 0.00 | 54 | 1015.1 |
| 20260507173205 | 53 | 238 | 2.6 | 7.8 | 0.00 | 0.00 | 0.00 | 54 | 1015.1 |
| 20260507173106 | 53 | 237 | 2.6 | 7.8 | 0.00 | 0.00 | 0.00 | 54 | 1015.1 |
| 20260507173006 | 53 | 234 | 2.6 | 7.8 | 0.00 | 0.00 | 0.00 | 54 | 1015.0 |
| 20260507172905 | 53 | 229 | 2.6 | 7.8 | 0.00 | 0.00 | 0.00 | 54 | 1015.1 |
| 20260507172805 | 53 | 229 | 2.6 | 7.8 | 0.00 | 0.00 | 0.00 | 54 | 1015.1 |
| 20260507172706 | 53 | 225 | 2.6 | 7.0 | 0.00 | 0.00 | 0.00 | 55 | 1014.9 |
| 20260507172620 | 53 | 222 | 2.6 | 7.0 | 0.00 | 0.00 | 0.00 | 55 | 1014.9 |
| 20260507172605 | 53 | 222 | 2.6 | 7.0 | 0.00 | 0.00 | 0.00 | 55 | 1015.0 |
| 20260507172505 | 53 | 220 | 2.6 | 7.0 | 0.00 | 0.00 | 0.00 | 55 | 1015.1 |
| 20260507172307 | 53 | 220 | 2.6 | 7.0 | 0.00 | 0.00 | 0.00 | 55 | 1015.1 |
| 20260507172205 | 53 | 217 | 2.6 | 7.0 | 0.00 | 0.00 | 0.00 | 55 | 1015.2 |
| 20260507172106 | 53 | 216 | 2.6 | 7.0 | 0.00 | 0.00 | 0.00 | 55 | 1015.3 |
| 20260507172004 | 53 | 217 | 2.6 | 8.7 | 0.00 | 0.00 | 0.00 | 56 | 1015.2 |
| 20260507171905 | 53 | 218 | 2.6 | 8.7 | 0.00 | 0.00 | 0.00 | 55 | 1015.2 |
| 20260507171804 | 53 | 220 | 2.6 | 8.7 | 0.00 | 0.00 | 0.00 | 55 | 1015.3 |
| 20260507171706 | 53 | 222 | 2.6 | 8.7 | 0.00 | 0.00 | 0.00 | 55 | 1015.2 |
| 20260507171604 | 53 | 226 | 2.6 | 8.7 | 0.00 | 0.00 | 0.00 | 55 | 1015.1 |
| 20260507171504 | 53 | 230 | 2.6 | 8.7 | 0.00 | 0.00 | 0.00 | 56 | 1015.3 |
| 20260507171404 | 53 | 228 | 2.6 | 8.7 | 0.00 | 0.00 | 0.00 | 56 | 1015.1 |
| 20260507171304 | 53 | 226 | 2.6 | 8.7 | 0.00 | 0.00 | 0.00 | 56 | 1015.3 |
| 20260507171205 | 53 | 224 | 2.6 | 8.7 | 0.00 | 0.00 | 0.00 | 56 | 1015.2 |
| 20260507171106 | 53 | 226 | 2.6 | 8.7 | 0.00 | 0.00 | 0.00 | 56 | 1015.2 |
| 20260507171006 | 53 | 229 | 1.7 | 8.7 | 0.00 | 0.00 | 0.00 | 56 | 1015.2 |
| 20260507170905 | 52 | 229 | 1.7 | 6.1 | 0.00 | 0.00 | 0.00 | 56 | 1015.4 |
| 20260507170805 | 52 | 222 | 1.7 | 6.1 | 0.00 | 0.00 | 0.00 | 56 | 1015.2 |
| 20260507170704 | 52 | 218 | 1.7 | 6.1 | 0.00 | 0.00 | 0.00 | 56 | 1015.3 |
| 20260507170605 | 52 | 207 | 1.7 | 5.2 | 0.00 | 0.00 | 0.00 | 56 | 1015.5 |
| 20260507170506 | 52 | 198 | 1.7 | 5.2 | 0.00 | 0.00 | 0.00 | 57 | 1015.5 |
| 20260507170404 | 52 | 198 | 0.9 | 5.2 | 0.00 | 0.00 | 0.00 | 57 | 1015.2 |
| 20260507170306 | 52 | 199 | 0.9 | 5.2 | 0.00 | 0.00 | 0.00 | 57 | 1015.4 |
| 20260507170205 | 52 | 203 | 0.9 | 5.2 | 0.00 | 0.00 | 0.00 | 57 | 1015.3 |
| 20260507170105 | 52 | 197 | 0.9 | 5.2 | 0.00 | 0.00 | 0.00 | 57 | 1015.5 |
| 20260507170005 | 52 | 188 | 0.9 | 3.5 | 0.00 | 0.00 | 0.00 | 57 | 1015.4 |
| 20260507165904 | 52 | 189 | 0.9 | 3.5 | 0.00 | 0.00 | 0.00 | 57 | 1015.4 |
| 20260507165819 | 52 | 192 | 0.9 | 2.6 | 0.00 | 0.00 | 0.00 | 57 | 1015.4 |
| 20260507165805 | 52 | 191 | 0.9 | 2.6 | 0.00 | 0.00 | 0.00 | 57 | 1015.3 |
| 20260507165705 | 52 | 189 | 0.9 | 2.6 | 0.00 | 0.00 | 0.00 | 57 | 1015.3 |
| 20260507165505 | 52 | 187 | 0.9 | 1.7 | 0.00 | 0.00 | 0.00 | 57 | 1015.2 |
| 20260507165405 | 52 | 181 | 0.9 | 1.7 | 0.00 | 0.00 | 0.00 | 57 | 1015.3 |
| 20260507165320 | 52 | 177 | 0.9 | 1.7 | 0.00 | 0.00 | 0.00 | 57 | 1015.3 |
| 20260507165306 | 53 | 175 | 0.9 | 1.7 | 0.00 | 0.00 | 0.00 | 57 | 1015.4 |
| 20260507165206 | 53 | 170 | 0.9 | 1.7 | 0.00 | 0.00 | 0.00 | 57 | 1015.3 |
| 20260507165005 | 53 | 164 | 0.9 | 2.6 | 0.00 | 0.00 | 0.00 | 57 | 1015.1 |
| 20260507164904 | 53 | 159 | 0.9 | 3.5 | 0.00 | 0.00 | 0.00 | 57 | 1015.2 |
| 20260507164805 | 53 | 157 | 0.9 | 3.5 | 0.00 | 0.00 | 0.00 | 57 | 1015.3 |
| 20260507164704 | 53 | 156 | 0.9 | 3.5 | 0.00 | 0.00 | 0.00 | 57 | 1015.2 |
| 20260507164605 | 53 | 153 | 0.9 | 3.5 | 0.00 | 0.00 | 0.00 | 57 | 1015.4 |
| 20260507164505 | 53 | 148 | 0.9 | 3.5 | 0.00 | 0.00 | 0.00 | 57 | 1015.2 |
| 20260507164404 | 53 | 150 | 0.9 | 3.5 | 0.00 | 0.00 | 0.00 | 57 | 1015.7 |
| 20260507164304 | 53 | 146 | 0.9 | 3.5 | 0.00 | 0.00 | 0.00 | 57 | 1015.4 |
| 20260507164205 | 53 | 147 | 1.7 | 3.5 | 0.00 | 0.00 | 0.00 | 57 | 1015.4 |
| 20260507164105 | 53 | 148 | 1.7 | 3.5 | 0.00 | 0.00 | 0.00 | 57 | 1015.5 |
| 20260507164006 | 53 | 148 | 1.7 | 3.5 | 0.00 | 0.00 | 0.00 | 57 | 1015.3 |
| 20260507163905 | 53 | 150 | 0.9 | 2.6 | 0.00 | 0.00 | 0.00 | 57 | 1015.4 |
| 20260507163805 | 53 | 151 | 0.9 | 2.6 | 0.00 | 0.00 | 0.00 | 57 | 1015.3 |
| 20260507163704 | 53 | 150 | 1.7 | 2.6 | 0.00 | 0.00 | 0.00 | 57 | 1015.3 |
| 20260507163605 | 53 | 148 | 1.7 | 2.6 | 0.00 | 0.00 | 0.00 | 57 | 1015.2 |
| 20260507163505 | 53 | 151 | 1.7 | 2.6 | 0.00 | 0.00 | 0.00 | 57 | 1015.5 |
| 20260507163419 | 53 | 155 | 1.7 | 2.6 | 0.00 | 0.00 | 0.00 | 57 | 1015.5 |
| 20260507163404 | 53 | 154 | 1.7 | 2.6 | 0.00 | 0.00 | 0.00 | 57 | 1015.3 |
| 20260507163305 | 53 | 159 | 1.7 | 2.6 | 0.00 | 0.00 | 0.00 | 57 | 1015.2 |
| 20260507163220 | 53 | 159 | 1.7 | 2.6 | 0.00 | 0.00 | 0.00 | 57 | 1015.2 |
| 20260507163105 | 53 | 165 | 1.7 | 3.5 | 0.00 | 0.00 | 0.00 | 57 | 1015.5 |
| 20260507162905 | 53 | 161 | 0.9 | 3.5 | 0.00 | 0.00 | 0.00 | 57 | 1015.4 |
| 20260507162805 | 53 | 161 | 0.9 | 3.5 | 0.00 | 0.00 | 0.00 | 57 | 1015.3 |
| 20260507162719 | 53 | 162 | 0.9 | 3.5 | 0.00 | 0.00 | 0.00 | 57 | 1015.3 |
| 20260507162706 | 53 | 163 | 0.9 | 3.5 | 0.00 | 0.00 | 0.00 | 57 | 1015.3 |
| 20260507162604 | 54 | 176 | 0.9 | 3.5 | 0.00 | 0.00 | 0.00 | 57 | 1015.3 |
| 20260507162405 | 54 | 178 | 0.9 | 3.5 | 0.00 | 0.00 | 0.00 | 57 | 1015.2 |
| 20260507162307 | 54 | 184 | 1.7 | 3.5 | 0.00 | 0.00 | 0.00 | 57 | 1015.3 |
| 20260507162205 | 54 | 187 | 0.9 | 3.5 | 0.00 | 0.00 | 0.00 | 57 | 1015.2 |
| 20260507162121 | 54 | 187 | 0.9 | 3.5 | 0.00 | 0.00 | 0.00 | 57 | 1015.2 |
| 20260507162105 | 54 | 188 | 0.9 | 3.5 | 0.00 | 0.00 | 0.00 | 57 | 1015.4 |
| 20260507162005 | 54 | 193 | 0.9 | 3.5 | 0.00 | 0.00 | 0.00 | 57 | 1015.1 |
| 20260507161805 | 54 | 205 | 0.9 | 3.5 | 0.00 | 0.00 | 0.00 | 57 | 1015.0 |
| 20260507161706 | 54 | 204 | 0.9 | 3.5 | 0.00 | 0.00 | 0.00 | 57 | 1015.1 |
| 20260507161606 | 54 | 202 | 0.9 | 3.5 | 0.00 | 0.00 | 0.00 | 57 | 1015.3 |
| 20260507161506 | 54 | 208 | 0.9 | 3.5 | 0.00 | 0.00 | 0.00 | 57 | 1015.0 |
| 20260507161406 | 54 | 209 | 0.9 | 3.5 | 0.00 | 0.00 | 0.00 | 57 | 1015.2 |
| 20260507161320 | 54 | 205 | 0.9 | 2.6 | 0.00 | 0.00 | 0.00 | 58 | 1015.2 |
| 20260507161306 | 54 | 204 | 0.9 | 2.6 | 0.00 | 0.00 | 0.00 | 58 | 1015.0 |
| 20260507161220 | 54 | 198 | 0.9 | 3.5 | 0.00 | 0.00 | 0.00 | 58 | 1015.0 |
| 20260507161206 | 54 | 198 | 0.9 | 3.5 | 0.00 | 0.00 | 0.00 | 58 | 1015.2 |
| 20260507160920 | 54 | 184 | 0.9 | 3.5 | 0.00 | 0.00 | 0.00 | 58 | 1015.2 |
| 20260507160906 | 54 | 184 | 0.9 | 3.5 | 0.00 | 0.00 | 0.00 | 58 | 1015.1 |
| 20260507160806 | 54 | 179 | 0.9 | 3.5 | 0.00 | 0.00 | 0.00 | 58 | 1015.3 |
| 20260507160605 | 54 | 177 | 0.9 | 3.5 | 0.00 | 0.00 | 0.00 | 58 | 1015.3 |
| 20260507160504 | 54 | 171 | 0.9 | 3.5 | 0.00 | 0.00 | 0.00 | 58 | 1015.1 |
| 20260507160419 | 54 | 168 | 0.9 | 3.5 | 0.00 | 0.00 | 0.00 | 58 | 1015.1 |
| 20260507160405 | 54 | 168 | 0.9 | 3.5 | 0.00 | 0.00 | 0.00 | 58 | 1015.2 |
| 20260507160305 | 54 | 168 | 0.9 | 3.5 | 0.00 | 0.00 | 0.00 | 57 | 1015.1 |
| 20260507160105 | 54 | 172 | 0.9 | 2.6 | 0.00 | 0.00 | 0.00 | 58 | 1015.3 |
| 20260507160005 | 54 | 167 | 0.9 | 3.5 | 0.00 | 0.00 | 0.00 | 58 | 1015.0 |
| 20260507155905 | 55 | 168 | 0.9 | 3.5 | 0.00 | 0.00 | 0.00 | 58 | 1015.1 |
| 20260507155806 | 55 | 165 | 0.9 | 3.5 | 0.00 | 0.00 | 0.00 | 58 | 1015.3 |
| 20260507155706 | 55 | 167 | 0.9 | 3.5 | 0.00 | 0.00 | 0.00 | 59 | 1015.2 |
| 20260507155605 | 55 | 170 | 0.9 | 3.5 | 0.00 | 0.00 | 0.00 | 58 | 1015.0 |
| 20260507155505 | 55 | 177 | 0.9 | 5.2 | 0.00 | 0.00 | 0.00 | 58 | 1015.0 |
| 20260507155421 | 55 | 185 | 0.9 | 5.2 | 0.00 | 0.00 | 0.00 | 58 | 1015.0 |
| 20260507155405 | 55 | 188 | 1.7 | 5.2 | 0.00 | 0.00 | 0.00 | 58 | 1015.1 |
| 20260507155306 | 55 | 196 | 1.7 | 7.0 | 0.00 | 0.00 | 0.00 | 58 | 1015.1 |
| 20260507155104 | 55 | 198 | 1.7 | 7.0 | 0.00 | 0.00 | 0.00 | 59 | 1015.1 |
| 20260507155021 | 55 | 203 | 1.7 | 7.0 | 0.00 | 0.00 | 0.00 | 59 | 1015.1 |
| 20260507155006 | 55 | 206 | 1.7 | 7.0 | 0.00 | 0.00 | 0.00 | 59 | 1015.0 |
| 20260507154904 | 55 | 211 | 1.7 | 7.0 | 0.00 | 0.00 | 0.00 | 59 | 1015.1 |
| 20260507154720 | 55 | 213 | 1.7 | 7.0 | 0.00 | 0.00 | 0.00 | 59 | 1015.0 |
| 20260507154706 | 55 | 214 | 1.7 | 7.0 | 0.00 | 0.00 | 0.00 | 59 | 1014.9 |
| 20260507154606 | 55 | 212 | 1.7 | 7.0 | 0.00 | 0.00 | 0.00 | 59 | 1015.1 |
| 20260507154406 | 55 | 212 | 1.7 | 7.0 | 0.00 | 0.00 | 0.00 | 59 | 1015.1 |
| 20260507154306 | 55 | 212 | 1.7 | 7.0 | 0.00 | 0.00 | 0.00 | 60 | 1015.0 |
| 20260507154220 | 55 | 214 | 1.7 | 7.0 | 0.00 | 0.00 | 0.00 | 60 | 1015.0 |
| 20260507154205 | 55 | 214 | 1.7 | 7.0 | 0.00 | 0.00 | 0.00 | 60 | 1015.1 |
| 20260507154119 | 55 | 216 | 1.7 | 7.0 | 0.00 | 0.00 | 0.00 | 60 | 1015.1 |
| 20260507154106 | 55 | 217 | 1.7 | 7.0 | 0.00 | 0.00 | 0.00 | 60 | 1015.1 |
| 20260507153806 | 55 | 216 | 0.9 | 7.0 | 0.00 | 0.00 | 0.00 | 60 | 1015.2 |
| 20260507153707 | 55 | 223 | 0.9 | 7.0 | 0.00 | 0.00 | 0.00 | 60 | 1015.0 |
| 20260507153606 | 55 | 236 | 0.9 | 7.0 | 0.00 | 0.00 | 0.00 | 60 | 1015.1 |
| 20260507153505 | 55 | 242 | 0.9 | 7.0 | 0.00 | 0.00 | 0.00 | 60 | 1015.1 |
| 20260507153405 | 55 | 250 | 0.9 | 3.5 | 0.00 | 0.00 | 0.00 | 60 | 1015.1 |
| 20260507153305 | 55 | 240 | 0.9 | 3.5 | 0.00 | 0.00 | 0.00 | 60 | 1015.0 |
| 20260507153205 | 55 | 228 | 0.9 | 3.5 | 0.00 | 0.00 | 0.00 | 60 | 1015.0 |
| 20260507153106 | 55 | 218 | 0.9 | 3.5 | 0.00 | 0.00 | 0.00 | 60 | 1015.3 |
| 20260507153005 | 55 | 212 | 0.9 | 3.5 | 0.00 | 0.00 | 0.00 | 60 | 1015.2 |
| 20260507152905 | 55 | 202 | 0.9 | 3.5 | 0.00 | 0.00 | 0.00 | 60 | 1015.1 |
| 20260507152804 | 55 | 174 | 0.9 | 2.6 | 0.00 | 0.00 | 0.00 | 60 | 1015.2 |
| 20260507152706 | 55 | 165 | 0.9 | 2.6 | 0.00 | 0.00 | 0.00 | 60 | 1015.1 |
| 20260507152605 | 55 | 174 | 0.9 | 2.6 | 0.00 | 0.00 | 0.00 | 61 | 1014.9 |
| 20260507152520 | 55 | 178 | 0.9 | 2.6 | 0.00 | 0.00 | 0.00 | 60 | 1014.9 |
| 20260507152507 | 55 | 179 | 0.9 | 2.6 | 0.00 | 0.00 | 0.00 | 60 | 1015.1 |
| 20260507152404 | 55 | 177 | 0.9 | 2.6 | 0.00 | 0.00 | 0.00 | 60 | 1015.0 |
| 20260507152206 | 56 | 173 | 0.9 | 2.6 | 0.00 | 0.00 | 0.00 | 61 | 1015.2 |
| 20260507152105 | 56 | 188 | 0.9 | 2.6 | 0.00 | 0.00 | 0.00 | 61 | 1015.1 |
| 20260507152005 | 56 | 191 | 0.9 | 2.6 | 0.00 | 0.00 | 0.00 | 60 | 1015.0 |
| 20260507151906 | 56 | 193 | 0.9 | 2.6 | 0.00 | 0.00 | 0.00 | 60 | 1015.1 |
| 20260507151805 | 56 | 205 | 0.9 | 2.6 | 0.00 | 0.00 | 0.00 | 60 | 1015.2 |
| 20260507151705 | 56 | 218 | 0.9 | 1.7 | 0.00 | 0.00 | 0.00 | 60 | 1015.0 |
| 20260507151606 | 56 | 224 | 0.0 | 1.7 | 0.00 | 0.00 | 0.00 | 60 | 1015.0 |
| 20260507151505 | 56 | 229 | 0.0 | 1.7 | 0.00 | 0.00 | 0.00 | 60 | 1015.2 |
| 20260507151406 | 56 | 234 | 0.9 | 1.7 | 0.00 | 0.00 | 0.00 | 60 | 1015.1 |
| 20260507151305 | 56 | 235 | 0.9 | 1.7 | 0.00 | 0.00 | 0.00 | 60 | 1015.1 |
| 20260507151206 | 56 | 240 | 0.9 | 2.6 | 0.00 | 0.00 | 0.00 | 60 | 1015.1 |
| 20260507151104 | 56 | 245 | 0.9 | 5.2 | 0.00 | 0.00 | 0.00 | 61 | 1015.1 |
| 20260507151021 | 56 | 247 | 0.9 | 5.2 | 0.00 | 0.00 | 0.00 | 61 | 1015.1 |
| 20260507151006 | 56 | 248 | 0.9 | 5.2 | 0.00 | 0.00 | 0.00 | 61 | 1015.0 |
| 20260507150906 | 56 | 247 | 0.9 | 5.2 | 0.00 | 0.00 | 0.00 | 61 | 1015.1 |
| 20260507150721 | 56 | 241 | 0.9 | 5.2 | 0.00 | 0.00 | 0.00 | 61 | 1015.2 |
| 20260507150705 | 56 | 240 | 0.9 | 5.2 | 0.00 | 0.00 | 0.00 | 61 | 1015.0 |
| 20260507150606 | 56 | 238 | 0.9 | 5.2 | 0.00 | 0.00 | 0.00 | 61 | 1015.0 |
| 20260507150406 | 56 | 232 | 0.9 | 5.2 | 0.00 | 0.00 | 0.00 | 61 | 1015.0 |
| 20260507150304 | 56 | 230 | 1.7 | 5.2 | 0.00 | 0.00 | 0.00 | 61 | 1014.9 |
| 20260507150206 | 56 | 227 | 1.7 | 5.2 | 0.00 | 0.00 | 0.00 | 61 | 1015.1 |
| 20260507150105 | 56 | 221 | 1.7 | 5.2 | 0.00 | 0.00 | 0.00 | 60 | 1014.9 |
| 20260507150006 | 56 | 218 | 1.7 | 5.2 | 0.00 | 0.00 | 0.00 | 60 | 1015.4 |
| 20260507145906 | 56 | 217 | 1.7 | 5.2 | 0.00 | 0.00 | 0.00 | 60 | 1015.0 |
| 20260507145820 | 56 | 219 | 1.7 | 5.2 | 0.00 | 0.00 | 0.00 | 61 | 1015.0 |
| 20260507145805 | 56 | 219 | 1.7 | 5.2 | 0.00 | 0.00 | 0.00 | 61 | 1015.1 |
| 20260507145705 | 56 | 220 | 0.9 | 5.2 | 0.00 | 0.00 | 0.00 | 60 | 1015.2 |
| 20260507145506 | 56 | 215 | 1.7 | 5.2 | 0.00 | 0.00 | 0.00 | 60 | 1015.2 |
| 20260507145418 | 56 | 216 | 1.7 | 5.2 | 0.00 | 0.00 | 0.00 | 61 | 1015.2 |
| 20260507145405 | 56 | 217 | 1.7 | 5.2 | 0.00 | 0.00 | 0.00 | 61 | 1015.2 |
| 20260507145319 | 56 | 218 | 0.9 | 5.2 | 0.00 | 0.00 | 0.00 | 61 | 1015.2 |
| 20260507145307 | 56 | 218 | 0.9 | 5.2 | 0.00 | 0.00 | 0.00 | 61 | 1015.1 |
| 20260507145006 | 57 | 220 | 0.9 | 2.6 | 0.00 | 0.00 | 0.00 | 61 | 1015.1 |
| 20260507144906 | 57 | 213 | 0.9 | 2.6 | 0.00 | 0.00 | 0.00 | 61 | 1015.0 |
| 20260507144806 | 57 | 204 | 0.9 | 2.6 | 0.00 | 0.00 | 0.00 | 61 | 1015.2 |
| 20260507144706 | 57 | 192 | 0.9 | 3.5 | 0.00 | 0.00 | 0.00 | 61 | 1015.2 |
| 20260507144606 | 57 | 185 | 0.9 | 3.5 | 0.00 | 0.00 | 0.00 | 61 | 1015.2 |
| 20260507144506 | 57 | 177 | 0.9 | 3.5 | 0.00 | 0.00 | 0.00 | 61 | 1015.3 |
| 20260507144406 | 57 | 177 | 0.9 | 3.5 | 0.00 | 0.00 | 0.00 | 61 | 1015.0 |
| 20260507144305 | 57 | 167 | 0.9 | 3.5 | 0.00 | 0.00 | 0.00 | 61 | 1015.1 |
| 20260507144205 | 57 | 158 | 0.9 | 3.5 | 0.00 | 0.00 | 0.00 | 61 | 1015.0 |
| 20260507144106 | 57 | 147 | 0.9 | 3.5 | 0.00 | 0.00 | 0.00 | 61 | 1015.2 |
| 20260507144004 | 57 | 152 | 0.9 | 3.5 | 0.00 | 0.00 | 0.00 | 61 | 1015.1 |
| 20260507143906 | 57 | 150 | 0.9 | 3.5 | 0.00 | 0.00 | 0.00 | 60 | 1015.0 |
| 20260507143806 | 57 | 158 | 0.9 | 3.5 | 0.00 | 0.00 | 0.00 | 60 | 1015.2 |
| 20260507143705 | 57 | 163 | 0.9 | 3.5 | 0.00 | 0.00 | 0.00 | 61 | 1015.0 |
| 20260507143619 | 57 | 167 | 0.9 | 3.5 | 0.00 | 0.00 | 0.00 | 61 | 1015.0 |
| 20260507143606 | 57 | 168 | 0.9 | 3.5 | 0.00 | 0.00 | 0.00 | 61 | 1014.7 |
| 20260507143506 | 57 | 178 | 0.9 | 3.5 | 0.00 | 0.00 | 0.00 | 61 | 1015.2 |
| 20260507143305 | 57 | 193 | 0.9 | 3.5 | 0.00 | 0.00 | 0.00 | 61 | 1015.2 |
| 20260507143205 | 58 | 201 | 0.9 | 3.5 | 0.00 | 0.00 | 0.00 | 61 | 1015.1 |
| 20260507143106 | 58 | 209 | 0.9 | 3.5 | 0.00 | 0.00 | 0.00 | 61 | 1015.4 |
| 20260507143005 | 58 | 211 | 0.9 | 3.5 | 0.00 | 0.00 | 0.00 | 61 | 1015.2 |
| 20260507142905 | 58 | 221 | 0.9 | 3.5 | 0.00 | 0.00 | 0.00 | 61 | 1015.3 |
| 20260507142805 | 58 | 226 | 0.9 | 3.5 | 0.00 | 0.00 | 0.00 | 61 | 1015.1 |
| 20260507142705 | 58 | 228 | 0.9 | 3.5 | 0.00 | 0.00 | 0.00 | 61 | 1015.1 |
| 20260507142606 | 58 | 223 | 0.9 | 3.5 | 0.00 | 0.00 | 0.00 | 61 | 1015.2 |
| 20260507142505 | 58 | 221 | 0.9 | 3.5 | 0.00 | 0.00 | 0.00 | 61 | 1015.1 |
| 20260507142406 | 58 | 217 | 0.9 | 3.5 | 0.00 | 0.00 | 0.00 | 61 | 1014.9 |
| 20260507142307 | 58 | 207 | 0.9 | 2.6 | 0.00 | 0.00 | 0.00 | 61 | 1015.0 |
| 20260507142206 | 58 | 200 | 0.9 | 2.6 | 0.00 | 0.00 | 0.00 | 61 | 1015.0 |
| 20260507142106 | 58 | 199 | 0.9 | 2.6 | 0.00 | 0.00 | 0.00 | 61 | 1015.3 |
| 20260507142021 | 58 | 192 | 0.9 | 2.6 | 0.00 | 0.00 | 0.00 | 61 | 1015.3 |
| 20260507142005 | 58 | 188 | 0.9 | 2.6 | 0.00 | 0.00 | 0.00 | 61 | 1015.1 |
| 20260507141919 | 58 | 178 | 0.9 | 2.6 | 0.00 | 0.00 | 0.00 | 61 | 1015.1 |
| 20260507141904 | 58 | 177 | 0.9 | 2.6 | 0.00 | 0.00 | 0.00 | 61 | 1015.1 |
| 20260507141718 | 58 | 164 | 0.9 | 3.5 | 0.00 | 0.00 | 0.00 | 61 | 1015.2 |
| 20260507141606 | 58 | 162 | 0.9 | 3.5 | 0.00 | 0.00 | 0.00 | 61 | 1015.2 |
| 20260507141520 | 58 | 163 | 0.9 | 3.5 | 0.00 | 0.00 | 0.00 | 61 | 1015.2 |
| 20260507141418 | 58 | 165 | 0.9 | 3.5 | 0.00 | 0.00 | 0.00 | 61 | 1015.1 |
| 20260507141406 | 58 | 166 | 0.9 | 3.5 | 0.00 | 0.00 | 0.00 | 61 | 1015.2 |
| 20260507141106 | 58 | 180 | 0.9 | 3.5 | 0.00 | 0.00 | 0.00 | 60 | 1015.0 |
| 20260507141004 | 58 | 181 | 1.7 | 3.5 | 0.00 | 0.00 | 0.00 | 60 | 1015.2 |
| 20260507140906 | 58 | 190 | 1.7 | 5.2 | 0.00 | 0.00 | 0.00 | 60 | 1015.3 |
| 20260507140805 | 58 | 199 | 1.7 | 5.2 | 0.00 | 0.00 | 0.00 | 60 | 1015.4 |
| 20260507140705 | 58 | 202 | 1.7 | 5.2 | 0.00 | 0.00 | 0.00 | 61 | 1015.4 |
| 20260507140605 | 58 | 204 | 1.7 | 5.2 | 0.00 | 0.00 | 0.00 | 60 | 1015.2 |
| 20260507140504 | 58 | 206 | 0.9 | 5.2 | 0.00 | 0.00 | 0.00 | 60 | 1015.2 |
| 20260507140406 | 58 | 207 | 0.9 | 5.2 | 0.00 | 0.00 | 0.00 | 61 | 1015.3 |
| 20260507140304 | 58 | 217 | 0.9 | 7.8 | 0.00 | 0.00 | 0.00 | 61 | 1015.3 |
| 20260507140206 | 58 | 215 | 0.9 | 7.8 | 0.00 | 0.00 | 0.00 | 60 | 1015.0 |
| 20260507140106 | 58 | 217 | 0.9 | 7.8 | 0.00 | 0.00 | 0.00 | 61 | 1015.0 |
| 20260507140006 | 58 | 224 | 0.9 | 7.8 | 0.00 | 0.00 | 0.00 | 61 | 1015.2 |
| 20260507135904 | 58 | 220 | 0.9 | 7.8 | 0.00 | 0.00 | 0.00 | 61 | 1015.0 |
| 20260507135805 | 58 | 214 | 0.9 | 7.8 | 0.00 | 0.00 | 0.00 | 61 | 1015.0 |
| 20260507135705 | 58 | 221 | 0.9 | 7.8 | 0.00 | 0.00 | 0.00 | 61 | 1015.1 |
| 20260507135604 | 58 | 220 | 0.9 | 7.8 | 0.00 | 0.00 | 0.00 | 61 | 1014.9 |
| 20260507135505 | 58 | 218 | 0.9 | 7.8 | 0.00 | 0.00 | 0.00 | 61 | 1015.0 |
| 20260507135404 | 58 | 214 | 0.9 | 7.8 | 0.00 | 0.00 | 0.00 | 61 | 1014.9 |
| 20260507135306 | 58 | 201 | 0.9 | 7.8 | 0.00 | 0.00 | 0.00 | 61 | 1015.1 |
| 20260507135206 | 59 | 205 | 0.9 | 5.2 | 0.00 | 0.00 | 0.00 | 61 | 1014.9 |
| 20260507135106 | 58 | 204 | 0.9 | 5.2 | 0.00 | 0.00 | 0.00 | 61 | 1014.9 |
| 20260507135021 | 59 | 198 | 0.9 | 5.2 | 0.00 | 0.00 | 0.00 | 61 | 1014.9 |
| 20260507135006 | 59 | 199 | 0.9 | 5.2 | 0.00 | 0.00 | 0.00 | 61 | 1015.1 |
| 20260507134904 | 59 | 203 | 0.9 | 5.2 | 0.00 | 0.00 | 0.00 | 61 | 1015.3 |
| 20260507134706 | 59 | 199 | 0.9 | 5.2 | 0.00 | 0.00 | 0.00 | 61 | 1015.0 |
| 20260507134606 | 59 | 202 | 1.7 | 5.2 | 0.00 | 0.00 | 0.00 | 61 | 1015.3 |
| 20260507134506 | 59 | 198 | 1.7 | 5.2 | 0.00 | 0.00 | 0.00 | 61 | 1015.4 |
| 20260507134406 | 59 | 199 | 1.7 | 5.2 | 0.00 | 0.00 | 0.00 | 61 | 1015.2 |
| 20260507134306 | 59 | 205 | 1.7 | 5.2 | 0.00 | 0.00 | 0.00 | 61 | 1015.2 |
| 20260507134206 | 59 | 196 | 0.9 | 3.5 | 0.00 | 0.00 | 0.00 | 61 | 1015.0 |
| 20260507134106 | 59 | 194 | 0.9 | 3.5 | 0.00 | 0.00 | 0.00 | 61 | 1015.2 |
| 20260507134006 | 59 | 193 | 0.9 | 3.5 | 0.00 | 0.00 | 0.00 | 61 | 1015.1 |
| 20260507133904 | 59 | 184 | 0.9 | 3.5 | 0.00 | 0.00 | 0.00 | 61 | 1015.3 |
| 20260507133804 | 59 | 178 | 0.9 | 3.5 | 0.00 | 0.00 | 0.00 | 61 | 1015.1 |
| 20260507133705 | 59 | 183 | 0.9 | 3.5 | 0.00 | 0.00 | 0.00 | 61 | 1015.2 |
| 20260507133604 | 59 | 187 | 0.9 | 5.2 | 0.00 | 0.00 | 0.00 | 61 | 1015.0 |
| 20260507133505 | 59 | 198 | 0.9 | 5.2 | 0.00 | 0.00 | 0.00 | 61 | 1015.3 |
| 20260507133404 | 59 | 204 | 1.7 | 5.2 | 0.00 | 0.00 | 0.00 | 61 | 1015.0 |
| 20260507133305 | 59 | 208 | 1.7 | 5.2 | 0.00 | 0.00 | 0.00 | 61 | 1015.0 |
| 20260507133206 | 59 | 217 | 1.7 | 5.2 | 0.00 | 0.00 | 0.00 | 61 | 1014.9 |
| 20260507133105 | 59 | 217 | 1.7 | 5.2 | 0.00 | 0.00 | 0.00 | 61 | 1014.9 |
| 20260507133005 | 59 | 217 | 1.7 | 5.2 | 0.00 | 0.00 | 0.00 | 61 | 1015.0 |
| 20260507132906 | 59 | 223 | 1.7 | 5.2 | 0.00 | 0.00 | 0.00 | 61 | 1015.0 |
| 20260507132805 | 59 | 235 | 1.7 | 5.2 | 0.00 | 0.00 | 0.00 | 61 | 1014.9 |
| 20260507132720 | 59 | 240 | 1.7 | 5.2 | 0.00 | 0.00 | 0.00 | 61 | 1014.9 |
| 20260507132706 | 59 | 238 | 1.7 | 5.2 | 0.00 | 0.00 | 0.00 | 61 | 1014.8 |
| 20260507132606 | 59 | 242 | 1.7 | 5.2 | 0.00 | 0.00 | 0.00 | 61 | 1014.7 |
| 20260507132406 | 59 | 247 | 0.9 | 5.2 | 0.00 | 0.00 | 0.00 | 61 | 1014.8 |
| 20260507132307 | 59 | 254 | 0.9 | 5.2 | 0.00 | 0.00 | 0.00 | 61 | 1014.9 |
| 20260507132219 | 59 | 246 | 0.9 | 3.5 | 0.00 | 0.00 | 0.00 | 61 | 1014.9 |
| 20260507132206 | 59 | 242 | 0.9 | 3.5 | 0.00 | 0.00 | 0.00 | 61 | 1014.9 |
| 20260507132106 | 59 | 236 | 0.9 | 3.5 | 0.00 | 0.00 | 0.00 | 61 | 1014.8 |
| 20260507131921 | 59 | 222 | 0.9 | 3.5 | 0.00 | 0.00 | 0.00 | 61 | 1015.1 |
| 20260507131906 | 59 | 219 | 0.9 | 3.5 | 0.00 | 0.00 | 0.00 | 61 | 1015.0 |
| 20260507131805 | 59 | 215 | 0.9 | 3.5 | 0.00 | 0.00 | 0.00 | 61 | 1015.0 |
| 20260507131604 | 59 | 211 | 0.9 | 3.5 | 0.00 | 0.00 | 0.00 | 61 | 1014.9 |
| 20260507131506 | 59 | 211 | 0.9 | 3.5 | 0.00 | 0.00 | 0.00 | 61 | 1014.8 |
| 20260507131405 | 59 | 210 | 0.9 | 3.5 | 0.00 | 0.00 | 0.00 | 61 | 1015.0 |
| 20260507131304 | 59 | 204 | 0.9 | 2.6 | 0.00 | 0.00 | 0.00 | 61 | 1015.0 |
| 20260507131204 | 59 | 216 | 0.9 | 2.6 | 0.00 | 0.00 | 0.00 | 61 | 1015.2 |
| 20260507131105 | 59 | 214 | 0.9 | 5.2 | 0.00 | 0.00 | 0.00 | 61 | 1014.9 |
| 20260507131004 | 59 | 215 | 0.9 | 5.2 | 0.00 | 0.00 | 0.00 | 61 | 1014.8 |
| 20260507130906 | 59 | 221 | 0.9 | 5.2 | 0.00 | 0.00 | 0.00 | 61 | 1014.7 |
| 20260507130806 | 59 | 214 | 0.9 | 5.2 | 0.00 | 0.00 | 0.00 | 61 | 1015.0 |
| 20260507130704 | 59 | 209 | 0.9 | 5.2 | 0.00 | 0.00 | 0.00 | 61 | 1014.5 |
| 20260507130606 | 59 | 207 | 0.9 | 5.2 | 0.00 | 0.00 | 0.00 | 61 | 1014.8 |
| 20260507130505 | 59 | 198 | 0.9 | 5.2 | 0.00 | 0.00 | 0.00 | 61 | 1014.7 |
| 20260507130405 | 59 | 191 | 0.9 | 5.2 | 0.00 | 0.00 | 0.00 | 61 | 1014.6 |
| 20260507130305 | 59 | 191 | 1.7 | 5.2 | 0.00 | 0.00 | 0.00 | 60 | 1014.7 |
| 20260507130219 | 59 | 185 | 0.9 | 5.2 | 0.00 | 0.00 | 0.00 | 60 | 1014.7 |
| 20260507130206 | 59 | 184 | 0.9 | 5.2 | 0.00 | 0.00 | 0.00 | 60 | 1014.7 |
| 20260507130120 | 59 | 187 | 0.9 | 5.2 | 0.00 | 0.00 | 0.00 | 60 | 1014.7 |
| 20260507130106 | 59 | 189 | 0.9 | 5.2 | 0.00 | 0.00 | 0.00 | 60 | 1014.8 |
| 20260507130020 | 59 | 190 | 0.9 | 2.6 | 0.00 | 0.00 | 0.00 | 60 | 1014.8 |
| 20260507125705 | 59 | 200 | 0.9 | 2.6 | 0.00 | 0.00 | 0.00 | 60 | 1014.7 |
| 20260507125605 | 59 | 201 | 0.9 | 2.6 | 0.00 | 0.00 | 0.00 | 60 | 1014.9 |
| 20260507125505 | 59 | 207 | 0.9 | 2.6 | 0.00 | 0.00 | 0.00 | 60 | 1014.9 |
| 20260507125406 | 59 | 213 | 0.9 | 2.6 | 0.00 | 0.00 | 0.00 | 60 | 1014.8 |
| 20260507125320 | 59 | 218 | 0.9 | 2.6 | 0.00 | 0.00 | 0.00 | 60 | 1014.8 |
| 20260507125307 | 59 | 218 | 0.9 | 2.6 | 0.00 | 0.00 | 0.00 | 60 | 1014.9 |
| 20260507125221 | 59 | 217 | 0.9 | 2.6 | 0.00 | 0.00 | 0.00 | 60 | 1014.9 |
| 20260507125205 | 59 | 216 | 0.9 | 2.6 | 0.00 | 0.00 | 0.00 | 60 | 1014.8 |
| 20260507124905 | 59 | 201 | 0.9 | 5.2 | 0.00 | 0.00 | 0.00 | 59 | 1014.4 |
| 20260507124805 | 59 | 203 | 0.9 | 5.2 | 0.00 | 0.00 | 0.00 | 59 | 1014.8 |
| 20260507124704 | 59 | 205 | 0.9 | 5.2 | 0.00 | 0.00 | 0.00 | 59 | 1014.7 |
| 20260507124606 | 59 | 207 | 0.9 | 5.2 | 0.00 | 0.00 | 0.00 | 59 | 1014.9 |
| 20260507124505 | 59 | 211 | 0.9 | 5.2 | 0.00 | 0.00 | 0.00 | 59 | 1014.9 |
| 20260507124405 | 59 | 211 | 0.9 | 5.2 | 0.00 | 0.00 | 0.00 | 59 | 1014.7 |
| 20260507124304 | 59 | 206 | 0.9 | 5.2 | 0.00 | 0.00 | 0.00 | 59 | 1014.8 |
| 20260507124206 | 59 | 212 | 0.9 | 5.2 | 0.00 | 0.00 | 0.00 | 59 | 1014.8 |
| 20260507124120 | 59 | 220 | 0.9 | 3.5 | 0.00 | 0.00 | 0.00 | 59 | 1014.8 |
| 20260507124106 | 59 | 226 | 0.9 | 3.5 | 0.00 | 0.00 | 0.00 | 59 | 1014.8 |
| 20260507124006 | 59 | 238 | 0.9 | 3.5 | 0.00 | 0.00 | 0.00 | 59 | 1014.7 |
| 20260507123806 | 60 | 245 | 0.9 | 1.7 | 0.00 | 0.00 | 0.00 | 59 | 1014.6 |
| 20260507123705 | 60 | 252 | 0.9 | 1.7 | 0.00 | 0.00 | 0.00 | 59 | 1014.5 |
| 20260507123606 | 60 | 262 | 0.9 | 1.7 | 0.00 | 0.00 | 0.00 | 59 | 1014.3 |
| 20260507123508 | 60 | 269 | 0.9 | 1.7 | 0.00 | 0.00 | 0.00 | 58 | 1014.5 |
| 20260507123405 | 60 | 278 | 0.9 | 1.7 | 0.00 | 0.00 | 0.00 | 58 | 1014.5 |
| 20260507123320 | 60 | 283 | 0.9 | 1.7 | 0.00 | 0.00 | 0.00 | 58 | 1014.5 |
| 20260507123305 | 60 | 285 | 0.9 | 1.7 | 0.00 | 0.00 | 0.00 | 58 | 1014.8 |
| 20260507123219 | 60 | 289 | 0.9 | 1.7 | 0.00 | 0.00 | 0.00 | 58 | 1014.8 |
| 20260507123205 | 60 | 290 | 0.9 | 1.7 | 0.00 | 0.00 | 0.00 | 58 | 1014.7 |
| 20260507123119 | 60 | 293 | 0.9 | 1.7 | 0.00 | 0.00 | 0.00 | 58 | 1014.7 |
| 20260507122805 | 60 | 313 | 0.9 | 1.7 | 0.00 | 0.00 | 0.00 | 58 | 1014.6 |
| 20260507122705 | 60 | 316 | 0.9 | 1.7 | 0.00 | 0.00 | 0.00 | 58 | 1014.5 |
| 20260507122604 | 60 | 312 | 0.9 | 1.7 | 0.00 | 0.00 | 0.00 | 58 | 1014.4 |
| 20260507122505 | 60 | 305 | 0.9 | 1.7 | 0.00 | 0.00 | 0.00 | 57 | 1014.3 |
| 20260507122404 | 60 | 302 | 0.9 | 1.7 | 0.00 | 0.00 | 0.00 | 57 | 1014.4 |
| 20260507122307 | 60 | 293 | 0.9 | 2.6 | 0.00 | 0.00 | 0.00 | 57 | 1014.3 |
| 20260507122206 | 60 | 300 | 0.9 | 2.6 | 0.00 | 0.00 | 0.00 | 57 | 1014.5 |
| 20260507122122 | 60 | 306 | 0.9 | 2.6 | 0.00 | 0.00 | 0.00 | 57 | 1014.5 |
| 20260507122104 | 60 | 308 | 0.9 | 2.6 | 0.00 | 0.00 | 0.00 | 57 | 1014.4 |
| 20260507122006 | 60 | 315 | 0.9 | 2.6 | 0.00 | 0.00 | 0.00 | 57 | 1014.2 |
| 20260507121804 | 60 | 332 | 0.9 | 2.6 | 0.00 | 0.00 | 0.00 | 57 | 1014.3 |
| 20260507121720 | 61 | 335 | 0.9 | 2.6 | 0.00 | 0.00 | 0.00 | 57 | 1014.3 |
| 20260507121704 | 61 | 337 | 0.9 | 2.6 | 0.00 | 0.00 | 0.00 | 57 | 1014.4 |
| 20260507121605 | 61 | 360 | 0.9 | 2.6 | 0.00 | 0.00 | 0.00 | 57 | 1014.2 |
| 20260507121406 | 61 | 22 | 0.9 | 2.6 | 0.00 | 0.00 | 0.00 | 57 | 1014.5 |
| 20260507121306 | 61 | 29 | 0.9 | 1.7 | 0.00 | 0.00 | 0.00 | 56 | 1014.2 |
| 20260507121221 | 61 | 30 | 0.9 | 1.7 | 0.00 | 0.00 | 0.00 | 56 | 1014.2 |
| 20260507121206 | 61 | 30 | 0.9 | 1.7 | 0.00 | 0.00 | 0.00 | 56 | 1014.4 |
| 20260507121106 | 61 | 30 | 0.9 | 1.7 | 0.00 | 0.00 | 0.00 | 56 | 1014.3 |
| 20260507121020 | 61 | 30 | 0.9 | 1.7 | 0.00 | 0.00 | 0.00 | 56 | 1014.3 |
| 20260507120906 | 61 | 30 | 0.9 | 1.7 | 0.00 | 0.00 | 0.00 | 56 | 1014.5 |
| 20260507120720 | 61 | 30 | 0.9 | 1.7 | 0.00 | 0.00 | 0.00 | 56 | 1014.5 |
| 20260507120706 | 61 | 30 | 0.9 | 1.7 | 0.00 | 0.00 | 0.00 | 56 | 1014.3 |
| 20260507120620 | 61 | 30 | 0.9 | 1.7 | 0.00 | 0.00 | 0.00 | 56 | 1014.3 |
| 20260507120605 | 61 | 30 | 0.9 | 1.7 | 0.00 | 0.00 | 0.00 | 56 | 1014.2 |
| 20260507120305 | 62 | 30 | 0.9 | 1.7 | 0.00 | 0.00 | 0.00 | 56 | 1014.2 |
| 20260507120205 | 62 | 30 | 0.9 | 1.7 | 0.00 | 0.00 | 0.00 | 56 | 1014.1 |
| 20260507120119 | 62 | 30 | 0.0 | 1.7 | 0.00 | 0.00 | 0.00 | 56 | 1014.1 |
| 20260507120106 | 62 | 30 | 0.0 | 0.9 | 0.00 | 0.00 | 0.00 | 56 | 1014.2 |
| 20260507120006 | 62 | 30 | 0.0 | 0.9 | 0.00 | 0.00 | 0.00 | 56 | 1014.2 |
| 20260507115805 | 62 | 30 | 0.0 | 1.7 | 0.00 | 0.00 | 0.00 | 56 | 1014.2 |
| 20260507115720 | 62 | 30 | 0.0 | 1.7 | 0.00 | 0.00 | 0.00 | 55 | 1014.2 |
| 20260507115705 | 62 | 30 | 0.0 | 1.7 | 0.00 | 0.00 | 0.00 | 55 | 1014.1 |
| 20260507115618 | 62 | 30 | 0.0 | 1.7 | 0.00 | 0.00 | 0.00 | 55 | 1014.1 |
| 20260507115605 | 62 | 30 | 0.0 | 1.7 | 0.00 | 0.00 | 0.00 | 55 | 1014.3 |
| 20260507115307 | 62 | 23 | 0.9 | 2.6 | 0.00 | 0.00 | 0.00 | 55 | 1014.1 |
| 20260507115221 | 62 | 22 | 0.9 | 2.6 | 0.00 | 0.00 | 0.00 | 55 | 1014.1 |
| 20260507115204 | 62 | 21 | 0.9 | 2.6 | 0.00 | 0.00 | 0.00 | 55 | 1014.2 |
| 20260507115104 | 62 | 14 | 0.9 | 3.5 | 0.00 | 0.00 | 0.00 | 55 | 1014.2 |
| 20260507115018 | 62 | 12 | 0.9 | 3.5 | 0.00 | 0.00 | 0.00 | 55 | 1014.2 |
| 20260507114904 | 62 | 360 | 0.9 | 3.5 | 0.00 | 0.00 | 0.00 | 55 | 1014.1 |
| 20260507114720 | 62 | 346 | 1.7 | 3.5 | 0.00 | 0.00 | 0.00 | 55 | 1014.4 |
| 20260507114704 | 62 | 343 | 1.7 | 3.5 | 0.00 | 0.00 | 0.00 | 55 | 1014.2 |
| 20260507114604 | 62 | 329 | 1.7 | 3.5 | 0.00 | 0.00 | 0.00 | 55 | 1014.2 |
| 20260507114404 | 62 | 316 | 1.7 | 3.5 | 0.00 | 0.00 | 0.00 | 55 | 1014.1 |
| 20260507114304 | 62 | 317 | 1.7 | 6.1 | 0.00 | 0.00 | 0.00 | 55 | 1014.3 |
| 20260507114205 | 62 | 315 | 2.6 | 6.1 | 0.00 | 0.00 | 0.00 | 55 | 1014.2 |
| 20260507114104 | 62 | 309 | 1.7 | 6.1 | 0.00 | 0.00 | 0.00 | 55 | 1014.5 |
| 20260507114004 | 62 | 306 | 1.7 | 6.1 | 0.00 | 0.00 | 0.00 | 55 | 1014.1 |
| 20260507113920 | 62 | 306 | 1.7 | 6.1 | 0.00 | 0.00 | 0.00 | 54 | 1014.1 |
| 20260507113905 | 62 | 305 | 1.7 | 6.1 | 0.00 | 0.00 | 0.00 | 54 | 1014.1 |
| 20260507113804 | 62 | 302 | 1.7 | 6.1 | 0.00 | 0.00 | 0.00 | 54 | 1014.1 |
| 20260507113605 | 62 | 308 | 1.7 | 6.1 | 0.00 | 0.00 | 0.00 | 54 | 1014.1 |
| 20260507113505 | 62 | 309 | 1.7 | 6.1 | 0.00 | 0.00 | 0.00 | 54 | 1014.5 |
| 20260507113406 | 62 | 312 | 1.7 | 6.1 | 0.00 | 0.00 | 0.00 | 54 | 1014.3 |
| 20260507113306 | 63 | 311 | 1.7 | 5.2 | 0.00 | 0.00 | 0.00 | 54 | 1014.2 |
| 20260507113220 | 63 | 308 | 0.9 | 5.2 | 0.00 | 0.00 | 0.00 | 54 | 1014.2 |
| 20260507113205 | 63 | 309 | 0.9 | 5.2 | 0.00 | 0.00 | 0.00 | 54 | 1014.3 |
| 20260507113105 | 63 | 313 | 0.9 | 5.2 | 0.00 | 0.00 | 0.00 | 54 | 1014.0 |
| 20260507112906 | 63 | 309 | 1.7 | 6.1 | 0.00 | 0.00 | 0.00 | 54 | 1014.1 |
| 20260507112806 | 63 | 309 | 1.7 | 6.1 | 0.00 | 0.00 | 0.00 | 54 | 1014.3 |
| 20260507112706 | 63 | 309 | 1.7 | 6.1 | 0.00 | 0.00 | 0.00 | 54 | 1014.3 |
| 20260507112605 | 63 | 305 | 1.7 | 6.1 | 0.00 | 0.00 | 0.00 | 54 | 1014.2 |
| 20260507112506 | 63 | 304 | 1.7 | 6.1 | 0.00 | 0.00 | 0.00 | 54 | 1014.1 |
| 20260507112404 | 63 | 296 | 1.7 | 6.1 | 0.00 | 0.00 | 0.00 | 54 | 1014.1 |
| 20260507112307 | 63 | 286 | 1.7 | 6.1 | 0.00 | 0.00 | 0.00 | 54 | 1014.2 |
| 20260507112205 | 63 | 280 | 1.7 | 6.1 | 0.00 | 0.00 | 0.00 | 54 | 1014.0 |
| 20260507112121 | 63 | 282 | 1.7 | 6.1 | 0.00 | 0.00 | 0.00 | 54 | 1014.0 |
| 20260507112105 | 63 | 283 | 1.7 | 6.1 | 0.00 | 0.00 | 0.00 | 54 | 1013.7 |
| 20260507112005 | 63 | 280 | 1.7 | 6.1 | 0.00 | 0.00 | 0.00 | 54 | 1013.8 |
| 20260507111805 | 63 | 283 | 1.7 | 5.2 | 0.00 | 0.00 | 0.00 | 53 | 1014.0 |
| 20260507111706 | 63 | 286 | 1.7 | 5.2 | 0.00 | 0.00 | 0.00 | 53 | 1013.9 |
| 20260507111606 | 63 | 289 | 1.7 | 5.2 | 0.00 | 0.00 | 0.00 | 53 | 1013.8 |
| 20260507111506 | 63 | 284 | 1.7 | 5.2 | 0.00 | 0.00 | 0.00 | 53 | 1013.9 |
| 20260507111407 | 63 | 285 | 1.7 | 5.2 | 0.00 | 0.00 | 0.00 | 53 | 1013.9 |
| 20260507111306 | 63 | 284 | 1.7 | 5.2 | 0.00 | 0.00 | 0.00 | 53 | 1014.0 |
| 20260507111221 | 63 | 283 | 1.7 | 3.5 | 0.00 | 0.00 | 0.00 | 54 | 1014.0 |
| 20260507111206 | 63 | 283 | 1.7 | 3.5 | 0.00 | 0.00 | 0.00 | 54 | 1013.7 |
| 20260507111106 | 63 | 272 | 1.7 | 3.5 | 0.00 | 0.00 | 0.00 | 53 | 1013.8 |
| 20260507110906 | 63 | 269 | 1.7 | 3.5 | 0.00 | 0.00 | 0.00 | 53 | 1013.8 |
| 20260507110806 | 63 | 271 | 1.7 | 3.5 | 0.00 | 0.00 | 0.00 | 53 | 1014.2 |
| 20260507110719 | 63 | 265 | 1.7 | 3.5 | 0.00 | 0.00 | 0.00 | 53 | 1014.2 |
| 20260507110706 | 63 | 266 | 1.7 | 3.5 | 0.00 | 0.00 | 0.00 | 53 | 1013.9 |
| 20260507110606 | 63 | 265 | 1.7 | 3.5 | 0.00 | 0.00 | 0.00 | 53 | 1013.9 |
| 20260507110520 | 63 | 268 | 1.7 | 3.5 | 0.00 | 0.00 | 0.00 | 53 | 1013.9 |
| 20260507110419 | 63 | 266 | 1.7 | 3.5 | 0.00 | 0.00 | 0.00 | 53 | 1013.8 |
| 20260507110405 | 63 | 265 | 1.7 | 3.5 | 0.00 | 0.00 | 0.00 | 53 | 1013.9 |
| 20260507110121 | 63 | 264 | 0.9 | 2.6 | 0.00 | 0.00 | 0.00 | 53 | 1013.9 |
| 20260507110106 | 63 | 265 | 0.9 | 2.6 | 0.00 | 0.00 | 0.00 | 53 | 1013.8 |
| 20260507110005 | 63 | 268 | 0.9 | 2.6 | 0.00 | 0.00 | 0.00 | 53 | 1013.8 |
| 20260507105806 | 64 | 259 | 0.9 | 2.6 | 0.00 | 0.00 | 0.00 | 53 | 1013.9 |
| 20260507105706 | 64 | 259 | 0.9 | 2.6 | 0.00 | 0.00 | 0.00 | 53 | 1013.8 |
| 20260507105605 | 64 | 267 | 0.9 | 6.1 | 0.00 | 0.00 | 0.00 | 53 | 1013.8 |
| 20260507105506 | 64 | 276 | 0.9 | 6.1 | 0.00 | 0.00 | 0.00 | 53 | 1013.7 |
| 20260507105406 | 64 | 285 | 0.9 | 6.1 | 0.00 | 0.00 | 0.00 | 53 | 1013.7 |
| 20260507105320 | 64 | 284 | 1.7 | 6.1 | 0.00 | 0.00 | 0.00 | 53 | 1013.7 |
| 20260507105307 | 64 | 284 | 1.7 | 6.1 | 0.00 | 0.00 | 0.00 | 53 | 1013.4 |
| 20260507105205 | 64 | 279 | 1.7 | 6.1 | 0.00 | 0.00 | 0.00 | 53 | 1013.4 |
| 20260507105005 | 64 | 279 | 1.7 | 6.1 | 0.00 | 0.00 | 0.00 | 53 | 1013.3 |
| 20260507104905 | 64 | 282 | 1.7 | 6.1 | 0.00 | 0.00 | 0.00 | 53 | 1013.4 |
| 20260507104806 | 64 | 280 | 2.6 | 7.0 | 0.00 | 0.00 | 0.00 | 53 | 1013.3 |
| 20260507104721 | 64 | 279 | 1.7 | 7.0 | 0.00 | 0.00 | 0.00 | 53 | 1013.3 |
| 20260507104704 | 64 | 278 | 2.6 | 7.0 | 0.00 | 0.00 | 0.00 | 53 | 1013.2 |
| 20260507104606 | 64 | 272 | 1.7 | 7.0 | 0.00 | 0.00 | 0.00 | 53 | 1013.4 |
| 20260507104406 | 64 | 253 | 1.7 | 7.0 | 0.00 | 0.00 | 0.00 | 52 | 1013.2 |
| 20260507104306 | 64 | 251 | 1.7 | 7.0 | 0.00 | 0.00 | 0.00 | 52 | 1013.1 |
| 20260507104205 | 64 | 254 | 1.7 | 7.0 | 0.00 | 0.00 | 0.00 | 52 | 1013.5 |
| 20260507104121 | 64 | 253 | 1.7 | 7.0 | 0.00 | 0.00 | 0.00 | 52 | 1013.5 |
| 20260507104106 | 64 | 251 | 1.7 | 7.0 | 0.00 | 0.00 | 0.00 | 52 | 1013.3 |
| 20260507104006 | 64 | 249 | 1.7 | 7.0 | 0.00 | 0.00 | 0.00 | 52 | 1013.0 |
| 20260507103805 | 64 | 235 | 1.7 | 6.1 | 0.00 | 0.00 | 0.00 | 52 | 1013.2 |
| 20260507103706 | 64 | 237 | 1.7 | 6.1 | 0.00 | 0.00 | 0.00 | 52 | 1013.3 |
| 20260507103606 | 64 | 242 | 1.7 | 6.1 | 0.00 | 0.00 | 0.00 | 52 | 1013.0 |
| 20260507103520 | 64 | 245 | 1.7 | 6.1 | 0.00 | 0.00 | 0.00 | 52 | 1013.0 |
| 20260507103506 | 64 | 246 | 1.7 | 6.1 | 0.00 | 0.00 | 0.00 | 52 | 1012.9 |
| 20260507103406 | 64 | 246 | 1.7 | 6.1 | 0.00 | 0.00 | 0.00 | 52 | 1013.0 |
| 20260507103206 | 64 | 259 | 1.7 | 6.1 | 0.00 | 0.00 | 0.00 | 52 | 1013.1 |
| 20260507103106 | 64 | 260 | 1.7 | 6.1 | 0.00 | 0.00 | 0.00 | 52 | 1013.1 |
| 20260507103007 | 65 | 263 | 1.7 | 6.1 | 0.00 | 0.00 | 0.00 | 52 | 1012.9 |
| 20260507102906 | 65 | 265 | 1.7 | 6.1 | 0.00 | 0.00 | 0.00 | 52 | 1012.8 |
| 20260507102807 | 65 | 266 | 2.6 | 7.0 | 0.00 | 0.00 | 0.00 | 52 | 1013.1 |
| 20260507102706 | 65 | 269 | 2.6 | 7.0 | 0.00 | 0.00 | 0.00 | 52 | 1013.1 |
| 20260507102606 | 65 | 274 | 2.6 | 7.0 | 0.00 | 0.00 | 0.00 | 52 | 1013.1 |
| 20260507102520 | 65 | 281 | 2.6 | 7.0 | 0.00 | 0.00 | 0.00 | 52 | 1013.1 |
| 20260507102504 | 65 | 283 | 2.6 | 7.0 | 0.00 | 0.00 | 0.00 | 52 | 1013.2 |
| 20260507102206 | 65 | 285 | 3.5 | 9.6 | 0.00 | 0.00 | 0.00 | 52 | 1013.1 |
| 20260507102106 | 65 | 292 | 3.5 | 9.6 | 0.00 | 0.00 | 0.00 | 52 | 1012.8 |
| 20260507102006 | 65 | 295 | 3.5 | 9.6 | 0.00 | 0.00 | 0.00 | 52 | 1012.8 |
| 20260507101906 | 65 | 297 | 3.5 | 9.6 | 0.00 | 0.00 | 0.00 | 52 | 1012.8 |
| 20260507101806 | 65 | 304 | 3.5 | 9.6 | 0.00 | 0.00 | 0.00 | 52 | 1012.8 |
| 20260507101605 | 65 | 302 | 3.5 | 9.6 | 0.00 | 0.00 | 0.00 | 52 | 1012.7 |
| 20260507101507 | 65 | 302 | 3.5 | 9.6 | 0.00 | 0.00 | 0.00 | 52 | 1012.7 |
| 20260507101405 | 65 | 301 | 2.6 | 8.7 | 0.00 | 0.00 | 0.00 | 52 | 1012.8 |
| 20260507101321 | 65 | 300 | 2.6 | 8.7 | 0.00 | 0.00 | 0.00 | 52 | 1012.8 |
| 20260507101305 | 65 | 299 | 2.6 | 8.7 | 0.00 | 0.00 | 0.00 | 52 | 1012.9 |
| 20260507101205 | 65 | 307 | 2.6 | 7.8 | 0.00 | 0.00 | 0.00 | 52 | 1012.5 |
| 20260507101005 | 65 | 304 | 2.6 | 6.1 | 0.00 | 0.00 | 0.00 | 52 | 1012.6 |
| 20260507100905 | 65 | 300 | 2.6 | 6.1 | 0.00 | 0.00 | 0.00 | 52 | 1012.6 |
| 20260507100818 | 65 | 299 | 2.6 | 6.1 | 0.00 | 0.00 | 0.00 | 52 | 1012.6 |
| 20260507100806 | 65 | 300 | 2.6 | 6.1 | 0.00 | 0.00 | 0.00 | 52 | 1012.6 |
| 20260507100721 | 65 | 296 | 2.6 | 6.1 | 0.00 | 0.00 | 0.00 | 52 | 1012.6 |
| 20260507100705 | 65 | 297 | 2.6 | 6.1 | 0.00 | 0.00 | 0.00 | 52 | 1012.9 |
| 20260507100619 | 65 | 303 | 2.6 | 6.1 | 0.00 | 0.00 | 0.00 | 52 | 1012.9 |
| 20260507100306 | 65 | 304 | 2.6 | 6.1 | 0.00 | 0.00 | 0.00 | 52 | 1012.6 |
| 20260507100205 | 65 | 306 | 2.6 | 6.1 | 0.00 | 0.00 | 0.00 | 52 | 1012.7 |
| 20260507100106 | 65 | 306 | 2.6 | 6.1 | 0.00 | 0.00 | 0.00 | 52 | 1012.8 |
| 20260507100006 | 65 | 304 | 1.7 | 6.1 | 0.00 | 0.00 | 0.00 | 52 | 1012.5 |
| 20260507095906 | 65 | 306 | 1.7 | 6.1 | 0.00 | 0.00 | 0.00 | 52 | 1012.6 |
| 20260507095805 | 65 | 297 | 1.7 | 6.1 | 0.00 | 0.00 | 0.00 | 52 | 1012.4 |
| 20260507095706 | 66 | 299 | 1.7 | 6.1 | 0.00 | 0.00 | 0.00 | 52 | 1012.5 |
| 20260507095605 | 66 | 287 | 1.7 | 6.1 | 0.00 | 0.00 | 0.00 | 52 | 1012.7 |
| 20260507095505 | 66 | 282 | 1.7 | 6.1 | 0.00 | 0.00 | 0.00 | 52 | 1012.4 |
| 20260507095406 | 66 | 286 | 1.7 | 6.1 | 0.00 | 0.00 | 0.00 | 52 | 1012.4 |
| 20260507095306 | 66 | 286 | 1.7 | 6.1 | 0.00 | 0.00 | 0.00 | 52 | 1012.6 |
| 20260507095205 | 66 | 284 | 1.7 | 7.0 | 0.00 | 0.00 | 0.00 | 52 | 1012.4 |
| 20260507095106 | 66 | 282 | 1.7 | 7.0 | 0.00 | 0.00 | 0.00 | 52 | 1012.3 |
| 20260507095005 | 66 | 282 | 1.7 | 7.0 | 0.00 | 0.00 | 0.00 | 52 | 1012.4 |
| 20260507094905 | 66 | 280 | 1.7 | 7.8 | 0.00 | 0.00 | 0.00 | 51 | 1012.3 |
| 20260507094805 | 66 | 283 | 1.7 | 7.8 | 0.00 | 0.00 | 0.00 | 51 | 1012.2 |
| 20260507094704 | 66 | 285 | 1.7 | 7.8 | 0.00 | 0.00 | 0.00 | 52 | 1012.2 |
| 20260507094605 | 66 | 292 | 1.7 | 7.8 | 0.00 | 0.00 | 0.00 | 52 | 1012.3 |
| 20260507094520 | 66 | 294 | 1.7 | 7.8 | 0.00 | 0.00 | 0.00 | 52 | 1012.3 |
| 20260507094505 | 66 | 293 | 1.7 | 7.8 | 0.00 | 0.00 | 0.00 | 52 | 1012.1 |
| 20260507094406 | 66 | 291 | 1.7 | 7.8 | 0.00 | 0.00 | 0.00 | 52 | 1012.0 |
| 20260507094205 | 66 | 287 | 1.7 | 7.8 | 0.00 | 0.00 | 0.00 | 52 | 1012.2 |
| 20260507094104 | 66 | 284 | 1.7 | 7.8 | 0.00 | 0.00 | 0.00 | 52 | 1012.1 |
| 20260507094005 | 66 | 287 | 1.7 | 7.8 | 0.00 | 0.00 | 0.00 | 52 | 1012.1 |
| 20260507093905 | 66 | 292 | 1.7 | 7.8 | 0.00 | 0.00 | 0.00 | 52 | 1012.1 |
| 20260507093805 | 66 | 303 | 1.7 | 7.0 | 0.00 | 0.00 | 0.00 | 52 | 1012.0 |
| 20260507093705 | 66 | 312 | 1.7 | 7.0 | 0.00 | 0.00 | 0.00 | 52 | 1012.1 |
| 20260507093605 | 66 | 312 | 1.7 | 7.0 | 0.00 | 0.00 | 0.00 | 52 | 1012.0 |
| 20260507093506 | 66 | 312 | 1.7 | 7.0 | 0.00 | 0.00 | 0.00 | 52 | 1011.9 |
| 20260507093406 | 66 | 321 | 1.7 | 7.0 | 0.00 | 0.00 | 0.00 | 52 | 1012.0 |
| 20260507093306 | 66 | 326 | 1.7 | 7.0 | 0.00 | 0.00 | 0.00 | 52 | 1011.9 |
| 20260507093206 | 66 | 335 | 1.7 | 7.0 | 0.00 | 0.00 | 0.00 | 52 | 1011.9 |
| 20260507093120 | 67 | 324 | 1.7 | 7.8 | 0.00 | 0.00 | 0.00 | 52 | 1011.9 |
| 20260507093106 | 67 | 323 | 1.7 | 7.8 | 0.00 | 0.00 | 0.00 | 52 | 1012.0 |
| 20260507093005 | 67 | 323 | 1.7 | 7.8 | 0.00 | 0.00 | 0.00 | 52 | 1012.1 |
| 20260507092805 | 67 | 318 | 1.7 | 7.8 | 0.00 | 0.00 | 0.00 | 52 | 1012.1 |
| 20260507092705 | 67 | 312 | 1.7 | 7.8 | 0.00 | 0.00 | 0.00 | 52 | 1011.9 |
| 20260507092605 | 67 | 315 | 1.7 | 7.8 | 0.00 | 0.00 | 0.00 | 52 | 1011.6 |
| 20260507092506 | 67 | 315 | 1.7 | 7.8 | 0.00 | 0.00 | 0.00 | 52 | 1011.9 |
| 20260507092406 | 67 | 311 | 1.7 | 7.8 | 0.00 | 0.00 | 0.00 | 52 | 1011.8 |
| 20260507092319 | 67 | 301 | 1.7 | 7.8 | 0.00 | 0.00 | 0.00 | 52 | 1011.8 |
| 20260507092307 | 67 | 299 | 1.7 | 7.8 | 0.00 | 0.00 | 0.00 | 52 | 1011.5 |
| 20260507092204 | 67 | 294 | 1.7 | 7.8 | 0.00 | 0.00 | 0.00 | 52 | 1011.6 |
| 20260507092006 | 67 | 300 | 1.7 | 5.2 | 0.00 | 0.00 | 0.00 | 52 | 1011.6 |
| 20260507091906 | 67 | 299 | 1.7 | 6.1 | 0.00 | 0.00 | 0.00 | 52 | 1011.6 |
| 20260507091805 | 67 | 300 | 1.7 | 6.1 | 0.00 | 0.00 | 0.00 | 52 | 1011.5 |
| 20260507091704 | 67 | 293 | 1.7 | 6.1 | 0.00 | 0.00 | 0.00 | 52 | 1011.6 |
| 20260507091604 | 67 | 287 | 2.6 | 7.0 | 0.00 | 0.00 | 0.00 | 52 | 1011.6 |
| 20260507091505 | 67 | 286 | 2.6 | 9.6 | 0.00 | 0.00 | 0.00 | 52 | 1011.9 |
| 20260507091405 | 67 | 288 | 2.6 | 9.6 | 0.00 | 0.00 | 0.00 | 52 | 1011.6 |
| 20260507091321 | 67 | 286 | 2.6 | 9.6 | 0.00 | 0.00 | 0.00 | 52 | 1011.6 |
| 20260507091305 | 67 | 287 | 2.6 | 9.6 | 0.00 | 0.00 | 0.00 | 52 | 1011.4 |
| 20260507091205 | 67 | 285 | 2.6 | 9.6 | 0.00 | 0.00 | 0.00 | 52 | 1011.6 |
| 20260507091006 | 67 | 294 | 2.6 | 9.6 | 0.00 | 0.00 | 0.00 | 53 | 1011.6 |
| 20260507090905 | 67 | 295 | 2.6 | 9.6 | 0.00 | 0.00 | 0.00 | 52 | 1011.5 |
| 20260507090805 | 67 | 295 | 2.6 | 9.6 | 0.00 | 0.00 | 0.00 | 52 | 1011.4 |
| 20260507090705 | 67 | 299 | 2.6 | 9.6 | 0.00 | 0.00 | 0.00 | 52 | 1011.4 |
| 20260507090619 | 67 | 302 | 2.6 | 9.6 | 0.00 | 0.00 | 0.00 | 52 | 1011.4 |
| 20260507090605 | 67 | 301 | 2.6 | 9.6 | 0.00 | 0.00 | 0.00 | 52 | 1011.4 |
| 20260507090505 | 68 | 301 | 2.6 | 9.6 | 0.00 | 0.00 | 0.00 | 52 | 1011.6 |
| 20260507090305 | 68 | 301 | 1.7 | 9.6 | 0.00 | 0.00 | 0.00 | 52 | 1011.4 |
| 20260507090205 | 68 | 305 | 1.7 | 9.6 | 0.00 | 0.00 | 0.00 | 52 | 1011.6 |
| 20260507090106 | 68 | 299 | 2.6 | 9.6 | 0.00 | 0.00 | 0.00 | 52 | 1011.4 |
| 20260507090021 | 68 | 297 | 2.6 | 9.6 | 0.00 | 0.00 | 0.00 | 52 | 1011.4 |
| 20260507090005 | 68 | 296 | 2.6 | 9.6 | 0.00 | 0.00 | 0.00 | 52 | 1011.3 |
| 20260507085904 | 68 | 297 | 2.6 | 9.6 | 0.00 | 0.00 | 0.00 | 52 | 1011.8 |
| 20260507085706 | 68 | 294 | 2.6 | 9.6 | 0.00 | 0.00 | 0.00 | 53 | 1011.3 |
| 20260507085605 | 68 | 296 | 2.6 | 9.6 | 0.00 | 0.00 | 0.00 | 53 | 1011.3 |
| 20260507085520 | 68 | 298 | 2.6 | 9.6 | 0.00 | 0.00 | 0.00 | 53 | 1011.3 |
| 20260507085505 | 68 | 299 | 2.6 | 9.6 | 0.00 | 0.00 | 0.00 | 52 | 1011.3 |
| 20260507085406 | 68 | 305 | 2.6 | 9.6 | 0.00 | 0.00 | 0.00 | 52 | 1011.3 |
| 20260507085205 | 68 | 305 | 3.5 | 9.6 | 0.00 | 0.00 | 0.00 | 52 | 1011.4 |
| 20260507085106 | 68 | 308 | 2.6 | 9.6 | 0.00 | 0.00 | 0.00 | 52 | 1011.3 |
| 20260507085019 | 68 | 304 | 2.6 | 9.6 | 0.00 | 0.00 | 0.00 | 52 | 1011.3 |
| 20260507085005 | 68 | 301 | 2.6 | 9.6 | 0.00 | 0.00 | 0.00 | 52 | 1011.5 |
| 20260507084905 | 68 | 294 | 2.6 | 9.6 | 0.00 | 0.00 | 0.00 | 53 | 1011.5 |
| 20260507084706 | 68 | 301 | 2.6 | 7.8 | 0.00 | 0.00 | 0.00 | 53 | 1011.5 |
| 20260507084606 | 68 | 293 | 2.6 | 7.8 | 0.00 | 0.00 | 0.00 | 53 | 1011.3 |
| 20260507084505 | 68 | 291 | 2.6 | 7.0 | 0.00 | 0.00 | 0.00 | 53 | 1011.4 |
| 20260507084405 | 68 | 284 | 3.5 | 7.0 | 0.00 | 0.00 | 0.00 | 53 | 1011.4 |
| 20260507084321 | 68 | 285 | 3.5 | 7.0 | 0.00 | 0.00 | 0.00 | 53 | 1011.4 |
| 20260507084304 | 68 | 283 | 3.5 | 7.0 | 0.00 | 0.00 | 0.00 | 53 | 1011.2 |
| 20260507084206 | 68 | 281 | 2.6 | 7.0 | 0.00 | 0.00 | 0.00 | 53 | 1011.2 |
| 20260507084006 | 68 | 284 | 3.5 | 9.6 | 0.00 | 0.00 | 0.00 | 53 | 1011.2 |
| 20260507083906 | 68 | 293 | 3.5 | 9.6 | 0.00 | 0.00 | 0.00 | 53 | 1011.3 |
| 20260507083806 | 68 | 288 | 3.5 | 9.6 | 0.00 | 0.00 | 0.00 | 53 | 1011.3 |
| 20260507083705 | 68 | 286 | 3.5 | 9.6 | 0.00 | 0.00 | 0.00 | 53 | 1011.2 |
| 20260507083606 | 68 | 290 | 3.5 | 9.6 | 0.00 | 0.00 | 0.00 | 53 | 1011.2 |
| 20260507083505 | 68 | 293 | 3.5 | 9.6 | 0.00 | 0.00 | 0.00 | 53 | 1011.1 |
| 20260507083406 | 68 | 296 | 3.5 | 9.6 | 0.00 | 0.00 | 0.00 | 54 | 1011.1 |
| 20260507083319 | 68 | 296 | 3.5 | 9.6 | 0.00 | 0.00 | 0.00 | 53 | 1011.1 |
| 20260507083306 | 68 | 297 | 3.5 | 9.6 | 0.00 | 0.00 | 0.00 | 53 | 1011.0 |
| 20260507083206 | 68 | 301 | 3.5 | 9.6 | 0.00 | 0.00 | 0.00 | 53 | 1011.3 |
| 20260507083019 | 68 | 305 | 3.5 | 8.7 | 0.00 | 0.00 | 0.00 | 54 | 1011.2 |
| 20260507083005 | 68 | 307 | 3.5 | 8.7 | 0.00 | 0.00 | 0.00 | 54 | 1011.1 |
| 20260507082919 | 68 | 308 | 3.5 | 8.7 | 0.00 | 0.00 | 0.00 | 54 | 1011.1 |
| 20260507082905 | 68 | 307 | 3.5 | 8.7 | 0.00 | 0.00 | 0.00 | 54 | 1011.2 |
| 20260507082604 | 68 | 313 | 3.5 | 9.6 | 0.00 | 0.00 | 0.00 | 54 | 1010.9 |
| 20260507082522 | 68 | 314 | 3.5 | 9.6 | 0.00 | 0.00 | 0.00 | 54 | 1010.9 |
| 20260507082505 | 68 | 312 | 3.5 | 9.6 | 0.00 | 0.00 | 0.00 | 54 | 1011.2 |
| 20260507082405 | 68 | 311 | 3.5 | 9.6 | 0.00 | 0.00 | 0.00 | 54 | 1011.1 |
| 20260507082204 | 68 | 311 | 3.5 | 9.6 | 0.00 | 0.00 | 0.00 | 54 | 1010.8 |
| 20260507082105 | 68 | 308 | 3.5 | 9.6 | 0.00 | 0.00 | 0.00 | 54 | 1011.0 |
| 20260507082005 | 68 | 306 | 3.5 | 9.6 | 0.00 | 0.00 | 0.00 | 54 | 1010.9 |
| 20260507081906 | 68 | 307 | 3.5 | 9.6 | 0.00 | 0.00 | 0.00 | 54 | 1011.0 |
| 20260507081806 | 68 | 307 | 3.5 | 9.6 | 0.00 | 0.00 | 0.00 | 54 | 1010.9 |
| 20260507081705 | 68 | 308 | 3.5 | 9.6 | 0.00 | 0.00 | 0.00 | 54 | 1010.8 |
| 20260507081606 | 68 | 308 | 3.5 | 9.6 | 0.00 | 0.00 | 0.00 | 54 | 1010.7 |
| 20260507081519 | 68 | 307 | 3.5 | 8.7 | 0.00 | 0.00 | 0.00 | 54 | 1010.7 |
| 20260507081507 | 68 | 310 | 3.5 | 8.7 | 0.00 | 0.00 | 0.00 | 54 | 1010.7 |
| 20260507081406 | 68 | 313 | 3.5 | 8.7 | 0.00 | 0.00 | 0.00 | 54 | 1010.7 |
| 20260507081204 | 68 | 313 | 3.5 | 8.7 | 0.00 | 0.00 | 0.00 | 54 | 1010.8 |
| 20260507081105 | 68 | 315 | 3.5 | 8.7 | 0.00 | 0.00 | 0.00 | 54 | 1011.1 |
| 20260507081006 | 68 | 316 | 3.5 | 8.7 | 0.00 | 0.00 | 0.00 | 54 | 1010.8 |
| 20260507080906 | 69 | 312 | 2.6 | 8.7 | 0.00 | 0.00 | 0.00 | 54 | 1010.7 |
| 20260507080806 | 69 | 311 | 2.6 | 8.7 | 0.00 | 0.00 | 0.00 | 55 | 1010.9 |
| 20260507080705 | 69 | 311 | 2.6 | 8.7 | 0.00 | 0.00 | 0.00 | 55 | 1010.6 |
| 20260507080605 | 69 | 311 | 1.7 | 7.0 | 0.00 | 0.00 | 0.00 | 55 | 1010.9 |
| 20260507080506 | 69 | 311 | 1.7 | 6.1 | 0.00 | 0.00 | 0.00 | 54 | 1010.8 |
| 20260507080405 | 69 | 308 | 1.7 | 6.1 | 0.00 | 0.00 | 0.00 | 54 | 1010.8 |
| 20260507080321 | 69 | 304 | 1.7 | 6.1 | 0.00 | 0.00 | 0.00 | 54 | 1010.8 |
| 20260507080305 | 69 | 301 | 1.7 | 6.1 | 0.00 | 0.00 | 0.00 | 54 | 1010.9 |
| 20260507080205 | 69 | 295 | 1.7 | 5.2 | 0.00 | 0.01 | 0.00 | 54 | 1010.9 |
| 20260507080006 | 69 | 283 | 0.9 | 6.1 | 0.00 | 0.05 | 0.00 | 54 | 1010.7 |
| 20260507075904 | 69 | 286 | 0.9 | 6.1 | 0.00 | 0.05 | 0.00 | 54 | 1011.2 |
| 20260507075805 | 69 | 286 | 0.9 | 6.1 | 0.00 | 0.05 | 0.00 | 54 | 1010.9 |
| 20260507075705 | 69 | 287 | 1.7 | 6.1 | 0.00 | 0.05 | 0.00 | 54 | 1011.0 |
| 20260507075605 | 69 | 282 | 1.7 | 6.1 | 0.00 | 0.05 | 0.00 | 54 | 1011.0 |
| 20260507075505 | 69 | 278 | 1.7 | 6.1 | 0.00 | 0.05 | 0.00 | 54 | 1010.9 |
| 20260507075307 | 69 | 272 | 1.7 | 6.1 | 0.00 | 0.05 | 0.00 | 54 | 1010.7 |
| 20260507075221 | 69 | 276 | 1.7 | 6.1 | 0.00 | 0.05 | 0.00 | 54 | 1010.7 |
| 20260507075204 | 69 | 280 | 1.7 | 6.1 | 0.00 | 0.05 | 0.00 | 55 | 1010.9 |
| 20260507075120 | 69 | 286 | 1.7 | 6.1 | 0.00 | 0.05 | 0.00 | 55 | 1010.9 |
| 20260507075106 | 69 | 285 | 1.7 | 6.1 | 0.00 | 0.05 | 0.00 | 55 | 1010.7 |
| 20260507074921 | 69 | 296 | 1.7 | 6.1 | 0.00 | 0.05 | 0.00 | 55 | 1010.6 |
| 20260507074822 | 69 | 299 | 1.7 | 6.1 | 0.00 | 0.05 | 0.00 | 55 | 1010.8 |
| 20260507074806 | 69 | 299 | 1.7 | 6.1 | 0.00 | 0.05 | 0.00 | 55 | 1010.4 |
| 20260507074506 | 69 | 310 | 1.7 | 6.1 | 0.00 | 0.05 | 0.00 | 55 | 1010.7 |
| 20260507074406 | 69 | 315 | 1.7 | 6.1 | 0.00 | 0.05 | 0.00 | 55 | 1010.6 |
| 20260507074304 | 69 | 319 | 1.7 | 6.1 | 0.00 | 0.05 | 0.00 | 55 | 1010.4 |
| 20260507074206 | 69 | 319 | 1.7 | 6.1 | 0.00 | 0.05 | 0.00 | 55 | 1010.6 |
| 20260507074104 | 69 | 324 | 1.7 | 5.2 | 0.00 | 0.05 | 0.00 | 56 | 1010.5 |
| 20260507074018 | 69 | 324 | 1.7 | 5.2 | 0.00 | 0.05 | 0.00 | 56 | 1010.5 |
| 20260507074006 | 69 | 324 | 1.7 | 5.2 | 0.00 | 0.05 | 0.00 | 56 | 1010.4 |
| 20260507073906 | 69 | 318 | 1.7 | 5.2 | 0.00 | 0.05 | 0.00 | 56 | 1010.4 |
| 20260507073822 | 69 | 316 | 1.7 | 5.2 | 0.00 | 0.05 | 0.00 | 55 | 1010.4 |
| 20260507073705 | 69 | 309 | 1.7 | 3.5 | 0.00 | 0.05 | 0.00 | 56 | 1010.5 |
| 20260507073506 | 69 | 303 | 1.7 | 3.5 | 0.00 | 0.05 | 0.00 | 56 | 1010.3 |
| 20260507073405 | 70 | 299 | 1.7 | 3.5 | 0.00 | 0.05 | 0.00 | 56 | 1010.4 |
| 20260507073306 | 70 | 293 | 1.7 | 3.5 | 0.00 | 0.05 | 0.00 | 56 | 1010.5 |
| 20260507073219 | 70 | 289 | 1.7 | 3.5 | 0.00 | 0.05 | 0.00 | 56 | 1010.5 |
| 20260507073207 | 70 | 288 | 1.7 | 3.5 | 0.00 | 0.05 | 0.00 | 56 | 1010.6 |
| 20260507073105 | 70 | 285 | 1.7 | 5.2 | 0.00 | 0.05 | 0.00 | 56 | 1010.5 |
| 20260507073020 | 70 | 283 | 1.7 | 5.2 | 0.00 | 0.05 | 0.00 | 56 | 1010.5 |
| 20260507072904 | 70 | 281 | 1.7 | 5.2 | 0.00 | 0.05 | 0.00 | 55 | 1010.4 |
| 20260507072705 | 70 | 278 | 1.7 | 5.2 | 0.00 | 0.05 | 0.00 | 56 | 1010.4 |
| 20260507072605 | 70 | 273 | 1.7 | 5.2 | 0.00 | 0.05 | 0.00 | 56 | 1010.4 |
| 20260507072505 | 70 | 271 | 1.7 | 5.2 | 0.00 | 0.05 | 0.00 | 56 | 1010.5 |
| 20260507072420 | 70 | 272 | 0.9 | 5.2 | 0.00 | 0.05 | 0.00 | 56 | 1010.5 |
| 20260507072406 | 70 | 274 | 0.9 | 5.2 | 0.00 | 0.05 | 0.00 | 56 | 1010.4 |
| 20260507072307 | 70 | 285 | 1.7 | 5.2 | 0.00 | 0.05 | 0.00 | 56 | 1010.4 |
| 20260507072106 | 70 | 294 | 0.9 | 3.5 | 0.00 | 0.05 | 0.00 | 56 | 1010.5 |
| 20260507072006 | 70 | 291 | 0.9 | 3.5 | 0.00 | 0.05 | 0.00 | 56 | 1010.2 |
| 20260507071906 | 70 | 288 | 0.9 | 2.6 | 0.00 | 0.05 | 0.00 | 56 | 1010.3 |
| 20260507071806 | 70 | 294 | 0.9 | 2.6 | 0.00 | 0.05 | 0.00 | 56 | 1010.3 |
| 20260507071705 | 70 | 297 | 0.9 | 2.6 | 0.00 | 0.05 | 0.00 | 56 | 1010.0 |
| 20260507071618 | 70 | 300 | 0.9 | 2.6 | 0.00 | 0.05 | 0.00 | 56 | 1010.0 |
| 20260507071604 | 70 | 302 | 0.9 | 2.6 | 0.00 | 0.05 | 0.00 | 56 | 1010.2 |
| 20260507071506 | 70 | 305 | 0.9 | 2.6 | 0.00 | 0.05 | 0.00 | 56 | 1010.1 |
| 20260507071306 | 70 | 281 | 0.9 | 2.6 | 0.00 | 0.05 | 0.00 | 56 | 1010.0 |
| 20260507071204 | 70 | 274 | 0.9 | 2.6 | 0.00 | 0.05 | 0.00 | 57 | 1010.3 |
| 20260507071120 | 70 | 271 | 0.9 | 3.5 | 0.00 | 0.05 | 0.00 | 57 | 1010.3 |
| 20260507071106 | 70 | 271 | 0.9 | 3.5 | 0.00 | 0.05 | 0.00 | 57 | 1010.2 |
| 20260507071006 | 70 | 275 | 0.9 | 3.5 | 0.00 | 0.05 | 0.00 | 57 | 1010.1 |
| 20260507070806 | 71 | 273 | 0.9 | 3.5 | 0.00 | 0.05 | 0.00 | 57 | 1010.4 |
| 20260507070705 | 71 | 279 | 0.9 | 3.5 | 0.00 | 0.05 | 0.00 | 57 | 1010.1 |
| 20260507070604 | 71 | 280 | 0.9 | 3.5 | 0.00 | 0.05 | 0.00 | 57 | 1010.3 |
| 20260507070506 | 71 | 274 | 0.9 | 3.5 | 0.00 | 0.05 | 0.00 | 57 | 1010.1 |
| 20260507070406 | 71 | 274 | 0.9 | 5.2 | 0.00 | 0.05 | 0.00 | 57 | 1010.1 |
| 20260507070306 | 71 | 277 | 0.9 | 5.2 | 0.00 | 0.05 | 0.00 | 57 | 1010.0 |
| 20260507070204 | 71 | 288 | 0.9 | 5.2 | 0.00 | 0.05 | 0.00 | 57 | 1010.2 |
| 20260507070105 | 71 | 296 | 0.9 | 5.2 | 0.00 | 0.05 | 0.00 | 57 | 1010.1 |
| 20260507070010 | 71 | 297 | 0.9 | 5.2 | 0.00 | 0.05 | 0.00 | 57 | 1010.1 |
| 20260507065906 | 71 | 299 | 1.7 | 5.2 | 0.00 | 0.05 | 0.00 | 57 | 1010.1 |
| 20260507065806 | 71 | 300 | 1.7 | 5.2 | 0.00 | 0.05 | 0.00 | 57 | 1010.2 |
| 20260507065706 | 71 | 301 | 1.7 | 5.2 | 0.00 | 0.05 | 0.00 | 57 | 1010.1 |
| 20260507065606 | 71 | 303 | 1.7 | 5.2 | 0.00 | 0.05 | 0.00 | 57 | 1010.1 |
| 20260507065519 | 71 | 307 | 1.7 | 5.2 | 0.00 | 0.05 | 0.00 | 57 | 1010.1 |
| 20260507065505 | 71 | 308 | 1.7 | 5.2 | 0.00 | 0.05 | 0.00 | 57 | 1010.0 |
| 20260507065406 | 71 | 313 | 1.7 | 5.2 | 0.00 | 0.05 | 0.00 | 58 | 1010.3 |
| 20260507065205 | 72 | 315 | 1.7 | 3.5 | 0.00 | 0.05 | 0.00 | 58 | 1010.0 |
| 20260507065106 | 72 | 321 | 1.7 | 3.5 | 0.00 | 0.05 | 0.00 | 58 | 1010.0 |
| 20260507065006 | 72 | 322 | 1.7 | 3.5 | 0.00 | 0.05 | 0.00 | 58 | 1010.2 |
| 20260507064906 | 72 | 324 | 1.7 | 3.5 | 0.00 | 0.05 | 0.00 | 58 | 1010.0 |
| 20260507064805 | 72 | 321 | 1.7 | 3.5 | 0.00 | 0.05 | 0.00 | 58 | 1010.1 |
| 20260507064705 | 72 | 320 | 1.7 | 3.5 | 0.00 | 0.05 | 0.00 | 58 | 1010.2 |
| 20260507064606 | 72 | 320 | 1.7 | 3.5 | 0.00 | 0.05 | 0.00 | 58 | 1009.9 |
| 20260507064506 | 72 | 311 | 1.7 | 3.5 | 0.00 | 0.05 | 0.00 | 59 | 1010.0 |
| 20260507064405 | 72 | 309 | 1.7 | 6.1 | 0.00 | 0.05 | 0.00 | 59 | 1010.1 |
| 20260507064318 | 72 | 311 | 1.7 | 6.1 | 0.00 | 0.05 | 0.00 | 59 | 1010.1 |
| 20260507064305 | 72 | 311 | 1.7 | 6.1 | 0.00 | 0.05 | 0.00 | 59 | 1009.7 |
| 20260507064205 | 72 | 309 | 1.7 | 6.1 | 0.00 | 0.05 | 0.00 | 59 | 1010.0 |
| 20260507064005 | 72 | 306 | 1.7 | 7.0 | 0.00 | 0.05 | 0.00 | 59 | 1009.9 |
| 20260507063904 | 72 | 301 | 1.7 | 7.0 | 0.00 | 0.05 | 0.00 | 59 | 1009.9 |
| 20260507063805 | 72 | 304 | 1.7 | 7.0 | 0.00 | 0.05 | 0.00 | 59 | 1009.8 |
| 20260507063706 | 72 | 305 | 1.7 | 7.0 | 0.00 | 0.05 | 0.00 | 59 | 1010.0 |
| 20260507063606 | 72 | 311 | 1.7 | 7.0 | 0.00 | 0.05 | 0.00 | 59 | 1009.8 |
| 20260507063505 | 72 | 318 | 1.7 | 7.0 | 0.00 | 0.05 | 0.00 | 60 | 1009.8 |
| 20260507063419 | 72 | 325 | 1.7 | 7.0 | 0.00 | 0.05 | 0.00 | 60 | 1009.8 |
| 20260507063405 | 72 | 324 | 1.7 | 7.0 | 0.00 | 0.05 | 0.00 | 60 | 1009.6 |
| 20260507063306 | 72 | 321 | 1.7 | 7.0 | 0.00 | 0.05 | 0.00 | 60 | 1009.6 |
| 20260507063106 | 72 | 314 | 0.9 | 5.2 | 0.00 | 0.05 | 0.00 | 60 | 1010.1 |
| 20260507063006 | 72 | 313 | 0.9 | 5.2 | 0.00 | 0.05 | 0.00 | 60 | 1009.7 |
| 20260507062906 | 72 | 311 | 0.9 | 5.2 | 0.00 | 0.05 | 0.00 | 60 | 1009.8 |
| 20260507062821 | 72 | 309 | 1.7 | 5.2 | 0.00 | 0.05 | 0.00 | 60 | 1009.8 |
| 20260507062806 | 72 | 309 | 1.7 | 5.2 | 0.00 | 0.05 | 0.00 | 60 | 1009.7 |
| 20260507062719 | 72 | 307 | 0.9 | 5.2 | 0.00 | 0.05 | 0.00 | 60 | 1009.7 |
| 20260507062706 | 72 | 308 | 0.9 | 5.2 | 0.00 | 0.05 | 0.00 | 60 | 1009.6 |
| 20260507062405 | 72 | 296 | 0.9 | 3.5 | 0.00 | 0.05 | 0.00 | 60 | 1009.6 |
| 20260507062306 | 72 | 295 | 0.9 | 3.5 | 0.00 | 0.05 | 0.00 | 60 | 1009.9 |
| 20260507062220 | 72 | 293 | 0.9 | 3.5 | 0.00 | 0.05 | 0.00 | 61 | 1009.9 |
| 20260507062205 | 72 | 293 | 0.9 | 3.5 | 0.00 | 0.05 | 0.00 | 61 | 1009.9 |
| 20260507062119 | 72 | 289 | 0.9 | 3.5 | 0.00 | 0.05 | 0.00 | 61 | 1009.9 |
| 20260507062104 | 72 | 287 | 0.9 | 3.5 | 0.00 | 0.05 | 0.00 | 61 | 1009.7 |
| 20260507062018 | 73 | 285 | 0.9 | 3.5 | 0.00 | 0.05 | 0.00 | 61 | 1009.7 |
| 20260507061704 | 73 | 312 | 0.9 | 5.2 | 0.00 | 0.05 | 0.00 | 61 | 1009.8 |
| 20260507061604 | 73 | 328 | 0.9 | 5.2 | 0.00 | 0.05 | 0.00 | 61 | 1009.7 |
| 20260507061505 | 73 | 340 | 0.9 | 5.2 | 0.00 | 0.05 | 0.00 | 61 | 1009.7 |
| 20260507061405 | 73 | 338 | 0.9 | 5.2 | 0.00 | 0.05 | 0.00 | 61 | 1009.7 |
| 20260507061305 | 73 | 339 | 0.9 | 5.2 | 0.00 | 0.05 | 0.00 | 61 | 1009.7 |
| 20260507061206 | 73 | 343 | 0.9 | 5.2 | 0.00 | 0.05 | 0.00 | 61 | 1009.8 |
| 20260507061106 | 73 | 342 | 0.9 | 5.2 | 0.00 | 0.05 | 0.00 | 61 | 1009.6 |
| 20260507061006 | 73 | 337 | 0.9 | 5.2 | 0.00 | 0.05 | 0.00 | 61 | 1009.4 |
| 20260507060906 | 73 | 334 | 0.9 | 5.2 | 0.00 | 0.05 | 0.00 | 61 | 1009.6 |
| 20260507060806 | 73 | 330 | 0.9 | 5.2 | 0.00 | 0.05 | 0.00 | 61 | 1009.4 |
| 20260507060706 | 73 | 324 | 0.9 | 5.2 | 0.00 | 0.05 | 0.00 | 62 | 1009.5 |
| 20260507060605 | 73 | 327 | 0.9 | 2.6 | 0.00 | 0.05 | 0.00 | 62 | 1009.5 |
| 20260507060505 | 73 | 324 | 0.9 | 2.6 | 0.00 | 0.05 | 0.00 | 62 | 1009.5 |
| 20260507060405 | 73 | 327 | 0.9 | 1.7 | 0.00 | 0.05 | 0.00 | 62 | 1009.5 |
| 20260507060305 | 73 | 333 | 0.9 | 1.7 | 0.00 | 0.05 | 0.00 | 62 | 1009.5 |
| 20260507060206 | 73 | 337 | 0.9 | 1.7 | 0.00 | 0.05 | 0.00 | 61 | 1009.7 |
| 20260507060105 | 73 | 341 | 0.9 | 1.7 | 0.00 | 0.05 | 0.00 | 62 | 1009.6 |
| 20260507060005 | 73 | 352 | 0.9 | 2.6 | 0.00 | 0.05 | 0.00 | 61 | 1009.6 |
| 20260507055906 | 74 | 341 | 0.9 | 3.5 | 0.00 | 0.05 | 0.00 | 61 | 1009.6 |
| 20260507055807 | 74 | 334 | 0.9 | 3.5 | 0.00 | 0.05 | 0.00 | 62 | 1009.8 |
| 20260507055704 | 74 | 336 | 0.9 | 3.5 | 0.00 | 0.05 | 0.00 | 62 | 1009.6 |
| 20260507055606 | 74 | 307 | 0.9 | 3.5 | 0.00 | 0.05 | 0.00 | 62 | 1009.6 |
| 20260507055506 | 74 | 293 | 0.9 | 3.5 | 0.00 | 0.05 | 0.00 | 62 | 1009.5 |
| 20260507055406 | 74 | 293 | 0.9 | 3.5 | 0.00 | 0.05 | 0.00 | 62 | 1009.5 |
| 20260507055306 | 74 | 291 | 0.9 | 5.2 | 0.00 | 0.05 | 0.00 | 61 | 1009.6 |
| 20260507055206 | 74 | 290 | 0.9 | 5.2 | 0.00 | 0.05 | 0.00 | 62 | 1009.6 |
| 20260507055109 | 74 | 293 | 0.9 | 5.2 | 0.00 | 0.05 | 0.00 | 62 | 1009.6 |
| 20260507055021 | 74 | 293 | 0.9 | 5.2 | 0.00 | 0.05 | 0.00 | 62 | 1009.6 |
| 20260507055006 | 74 | 292 | 0.9 | 5.2 | 0.00 | 0.05 | 0.00 | 62 | 1009.5 |
| 20260507054906 | 74 | 296 | 0.9 | 5.2 | 0.00 | 0.05 | 0.00 | 62 | 1009.5 |
| 20260507054706 | 74 | 302 | 1.7 | 5.2 | 0.00 | 0.05 | 0.00 | 62 | 1009.5 |
| 20260507054606 | 74 | 306 | 1.7 | 5.2 | 0.00 | 0.05 | 0.00 | 62 | 1009.5 |
| 20260507054506 | 74 | 313 | 1.7 | 5.2 | 0.00 | 0.05 | 0.00 | 62 | 1009.3 |
| 20260507054406 | 74 | 314 | 1.7 | 5.2 | 0.00 | 0.05 | 0.00 | 62 | 1009.6 |
| 20260507054306 | 74 | 314 | 1.7 | 5.2 | 0.00 | 0.05 | 0.00 | 62 | 1009.5 |
| 20260507054206 | 74 | 314 | 1.7 | 7.0 | 0.00 | 0.05 | 0.00 | 62 | 1009.6 |
| 20260507054106 | 74 | 315 | 1.7 | 7.0 | 0.00 | 0.05 | 0.00 | 62 | 1009.3 |
| 20260507054006 | 74 | 314 | 1.7 | 7.0 | 0.00 | 0.05 | 0.00 | 62 | 1009.5 |
| 20260507053905 | 74 | 314 | 1.7 | 7.0 | 0.00 | 0.05 | 0.00 | 63 | 1009.5 |
| 20260507053805 | 74 | 319 | 1.7 | 7.0 | 0.00 | 0.05 | 0.00 | 63 | 1009.3 |
| 20260507053707 | 74 | 320 | 1.7 | 7.0 | 0.00 | 0.05 | 0.00 | 63 | 1009.4 |
| 20260507053606 | 74 | 321 | 1.7 | 7.0 | 0.00 | 0.05 | 0.00 | 63 | 1009.4 |
| 20260507053506 | 74 | 320 | 1.7 | 7.0 | 0.00 | 0.05 | 0.00 | 63 | 1009.3 |
| 20260507053406 | 74 | 322 | 1.7 | 7.0 | 0.00 | 0.05 | 0.00 | 63 | 1009.3 |
| 20260507053319 | 74 | 324 | 1.7 | 7.0 | 0.00 | 0.05 | 0.00 | 63 | 1009.3 |
| 20260507053306 | 74 | 324 | 1.7 | 7.0 | 0.00 | 0.05 | 0.00 | 63 | 1009.4 |
| 20260507053206 | 74 | 330 | 0.9 | 7.0 | 0.00 | 0.05 | 0.00 | 63 | 1009.3 |
| 20260507053006 | 74 | 335 | 0.9 | 3.5 | 0.00 | 0.05 | 0.00 | 63 | 1009.4 |
| 20260507052906 | 74 | 337 | 0.9 | 3.5 | 0.00 | 0.05 | 0.00 | 63 | 1009.2 |
| 20260507052819 | 75 | 340 | 0.9 | 3.5 | 0.00 | 0.05 | 0.00 | 63 | 1009.2 |
| 20260507052806 | 75 | 342 | 0.9 | 2.6 | 0.00 | 0.05 | 0.00 | 63 | 1009.4 |
| 20260507052706 | 75 | 343 | 0.9 | 6.1 | 0.00 | 0.05 | 0.00 | 63 | 1009.4 |
| 20260507052620 | 75 | 341 | 0.9 | 6.1 | 0.00 | 0.05 | 0.00 | 63 | 1009.4 |
| 20260507052506 | 75 | 346 | 0.9 | 6.1 | 0.00 | 0.05 | 0.00 | 63 | 1009.2 |
| 20260507052306 | 75 | 348 | 0.9 | 6.1 | 0.00 | 0.05 | 0.00 | 63 | 1009.3 |
| 20260507052205 | 75 | 347 | 0.9 | 6.1 | 0.00 | 0.05 | 0.00 | 63 | 1009.3 |
| 20260507052106 | 75 | 342 | 0.9 | 6.1 | 0.00 | 0.05 | 0.00 | 63 | 1009.3 |
| 20260507052006 | 75 | 340 | 0.9 | 6.1 | 0.00 | 0.05 | 0.00 | 62 | 1009.3 |
| 20260507051906 | 75 | 341 | 1.7 | 6.1 | 0.00 | 0.05 | 0.00 | 62 | 1009.3 |
| 20260507051805 | 75 | 338 | 1.7 | 6.1 | 0.00 | 0.05 | 0.00 | 62 | 1009.4 |
| 20260507051705 | 75 | 342 | 1.7 | 6.1 | 0.00 | 0.05 | 0.00 | 62 | 1009.2 |
| 20260507051620 | 75 | 343 | 1.7 | 5.2 | 0.00 | 0.05 | 0.00 | 62 | 1009.2 |
| 20260507051605 | 75 | 343 | 1.7 | 5.2 | 0.00 | 0.05 | 0.00 | 62 | 1009.3 |
| 20260507051506 | 75 | 340 | 1.7 | 5.2 | 0.00 | 0.05 | 0.00 | 62 | 1009.2 |
| 20260507051319 | 75 | 338 | 1.7 | 7.0 | 0.00 | 0.05 | 0.00 | 62 | 1009.2 |
| 20260507051305 | 75 | 338 | 1.7 | 7.0 | 0.00 | 0.05 | 0.00 | 62 | 1009.4 |
| 20260507051204 | 76 | 336 | 1.7 | 7.0 | 0.00 | 0.05 | 0.00 | 62 | 1009.4 |
| 20260507051119 | 76 | 340 | 1.7 | 7.0 | 0.00 | 0.05 | 0.00 | 62 | 1009.4 |
| 20260507051005 | 76 | 336 | 1.7 | 7.0 | 0.00 | 0.05 | 0.00 | 62 | 1009.3 |
| 20260507050805 | 76 | 328 | 1.7 | 8.7 | 0.00 | 0.05 | 0.00 | 63 | 1009.6 |
| 20260507050706 | 76 | 320 | 1.7 | 8.7 | 0.00 | 0.05 | 0.00 | 63 | 1009.2 |
| 20260507050606 | 76 | 313 | 1.7 | 8.7 | 0.00 | 0.05 | 0.00 | 63 | 1009.4 |
| 20260507050506 | 76 | 309 | 1.7 | 8.7 | 0.00 | 0.05 | 0.00 | 63 | 1009.5 |
| 20260507050406 | 76 | 299 | 1.7 | 8.7 | 0.00 | 0.05 | 0.00 | 63 | 1009.4 |
| 20260507050306 | 76 | 301 | 1.7 | 8.7 | 0.00 | 0.05 | 0.00 | 63 | 1009.4 |
| 20260507050206 | 76 | 304 | 1.7 | 8.7 | 0.00 | 0.05 | 0.00 | 63 | 1009.7 |
| 20260507050105 | 76 | 305 | 1.7 | 8.7 | 0.00 | 0.05 | 0.00 | 63 | 1009.5 |
| 20260507050006 | 76 | 311 | 1.7 | 8.7 | 0.00 | 0.05 | 0.00 | 63 | 1009.4 |
| 20260507045905 | 76 | 319 | 1.7 | 5.2 | 0.00 | 0.05 | 0.00 | 63 | 1009.5 |
| 20260507045806 | 76 | 324 | 1.7 | 5.2 | 0.00 | 0.05 | 0.00 | 63 | 1009.3 |
| 20260507045706 | 76 | 327 | 1.7 | 5.2 | 0.00 | 0.05 | 0.00 | 64 | 1009.4 |
| 20260507045606 | 76 | 330 | 1.7 | 5.2 | 0.00 | 0.05 | 0.00 | 63 | 1009.4 |
| 20260507045506 | 76 | 332 | 1.7 | 5.2 | 0.00 | 0.05 | 0.00 | 63 | 1009.4 |
| 20260507045406 | 76 | 337 | 1.7 | 7.0 | 0.00 | 0.05 | 0.00 | 64 | 1009.4 |
| 20260507045306 | 76 | 335 | 1.7 | 7.0 | 0.00 | 0.05 | 0.00 | 64 | 1009.5 |
| 20260507045206 | 76 | 331 | 1.7 | 7.0 | 0.00 | 0.05 | 0.00 | 64 | 1009.3 |
| 20260507045106 | 76 | 328 | 1.7 | 7.0 | 0.00 | 0.05 | 0.00 | 64 | 1009.4 |
| 20260507045004 | 76 | 329 | 1.7 | 7.0 | 0.00 | 0.05 | 0.00 | 63 | 1009.2 |
| 20260507044920 | 76 | 333 | 1.7 | 7.0 | 0.00 | 0.05 | 0.00 | 64 | 1009.2 |
| 20260507044905 | 76 | 333 | 2.6 | 7.0 | 0.00 | 0.05 | 0.00 | 64 | 1009.2 |
| 20260507044805 | 76 | 331 | 2.6 | 7.0 | 0.00 | 0.05 | 0.00 | 63 | 1009.6 |
| 20260507044606 | 76 | 335 | 2.6 | 7.0 | 0.00 | 0.05 | 0.00 | 63 | 1009.5 |
| 20260507044506 | 76 | 334 | 2.6 | 7.0 | 0.00 | 0.05 | 0.00 | 63 | 1009.3 |
| 20260507044421 | 76 | 333 | 2.6 | 7.0 | 0.00 | 0.05 | 0.00 | 64 | 1009.3 |
| 20260507044406 | 76 | 332 | 2.6 | 7.0 | 0.00 | 0.05 | 0.00 | 64 | 1009.5 |
| 20260507044305 | 76 | 329 | 2.6 | 7.0 | 0.00 | 0.05 | 0.00 | 64 | 1009.4 |
| 20260507044106 | 76 | 332 | 2.6 | 7.0 | 0.00 | 0.05 | 0.00 | 64 | 1009.4 |
| 20260507044019 | 76 | 326 | 1.7 | 7.0 | 0.00 | 0.05 | 0.00 | 64 | 1009.4 |
| 20260507044006 | 76 | 325 | 1.7 | 7.0 | 0.00 | 0.05 | 0.00 | 64 | 1009.4 |
| 20260507043920 | 76 | 318 | 1.7 | 7.0 | 0.00 | 0.05 | 0.00 | 64 | 1009.4 |
| 20260507043905 | 76 | 317 | 1.7 | 7.0 | 0.00 | 0.05 | 0.00 | 64 | 1009.6 |
| 20260507043605 | 76 | 305 | 1.7 | 6.1 | 0.00 | 0.05 | 0.00 | 65 | 1009.4 |
| 20260507043505 | 76 | 301 | 1.7 | 6.1 | 0.00 | 0.05 | 0.00 | 65 | 1009.4 |
| 20260507043405 | 76 | 304 | 1.7 | 6.1 | 0.00 | 0.05 | 0.00 | 64 | 1009.3 |
| 20260507043321 | 76 | 312 | 1.7 | 7.0 | 0.00 | 0.05 | 0.00 | 65 | 1009.3 |
| 20260507043305 | 76 | 313 | 1.7 | 7.8 | 0.00 | 0.05 | 0.00 | 65 | 1009.5 |
| 20260507043206 | 76 | 316 | 1.7 | 7.8 | 0.00 | 0.05 | 0.00 | 65 | 1009.6 |
| 20260507043121 | 76 | 315 | 2.6 | 7.8 | 0.00 | 0.05 | 0.00 | 65 | 1009.6 |
| 20260507043006 | 76 | 316 | 2.6 | 7.8 | 0.00 | 0.05 | 0.00 | 64 | 1009.5 |
| 20260507042804 | 76 | 319 | 2.6 | 7.8 | 0.00 | 0.05 | 0.00 | 64 | 1009.5 |
| 20260507042705 | 76 | 320 | 2.6 | 7.8 | 0.00 | 0.05 | 0.00 | 63 | 1009.6 |
| 20260507042605 | 76 | 320 | 2.6 | 7.8 | 0.00 | 0.05 | 0.00 | 64 | 1009.6 |
| 20260507042505 | 76 | 323 | 2.6 | 7.8 | 0.00 | 0.05 | 0.00 | 64 | 1009.8 |
| 20260507042406 | 76 | 325 | 2.6 | 7.8 | 0.00 | 0.05 | 0.00 | 64 | 1009.7 |
| 20260507042307 | 76 | 327 | 2.6 | 8.7 | 0.00 | 0.05 | 0.00 | 65 | 1009.6 |
| 20260507042205 | 76 | 330 | 2.6 | 8.7 | 0.00 | 0.05 | 0.00 | 65 | 1009.8 |
| 20260507042107 | 76 | 337 | 2.6 | 8.7 | 0.00 | 0.05 | 0.00 | 65 | 1009.8 |
| 20260507042005 | 76 | 335 | 2.6 | 8.7 | 0.00 | 0.05 | 0.00 | 65 | 1009.8 |
| 20260507041919 | 76 | 336 | 2.6 | 8.7 | 0.00 | 0.05 | 0.00 | 65 | 1009.8 |
| 20260507041905 | 76 | 336 | 2.6 | 8.7 | 0.00 | 0.05 | 0.00 | 65 | 1009.6 |
| 20260507041806 | 76 | 336 | 2.6 | 8.7 | 0.00 | 0.05 | 0.00 | 65 | 1009.7 |
| 20260507041606 | 76 | 334 | 2.6 | 8.7 | 0.00 | 0.05 | 0.00 | 65 | 1009.7 |
| 20260507041506 | 77 | 328 | 3.5 | 8.7 | 0.00 | 0.05 | 0.00 | 65 | 1009.7 |
| 20260507041405 | 77 | 323 | 3.5 | 8.7 | 0.00 | 0.05 | 0.00 | 65 | 1009.5 |
| 20260507041305 | 77 | 316 | 3.5 | 13.9 | 0.00 | 0.05 | 0.00 | 66 | 1009.8 |
| 20260507041220 | 77 | 313 | 3.5 | 13.9 | 0.00 | 0.05 | 0.00 | 65 | 1009.8 |
| 20260507041206 | 77 | 313 | 3.5 | 13.9 | 0.00 | 0.05 | 0.00 | 65 | 1009.7 |
| 20260507041105 | 77 | 311 | 3.5 | 13.9 | 0.00 | 0.05 | 0.00 | 65 | 1009.9 |
| 20260507040919 | 77 | 308 | 3.5 | 13.9 | 0.00 | 0.05 | 0.00 | 66 | 1009.8 |
| 20260507040906 | 77 | 308 | 3.5 | 13.9 | 0.00 | 0.05 | 0.00 | 66 | 1009.7 |
| 20260507040806 | 77 | 305 | 3.5 | 13.9 | 0.00 | 0.05 | 0.00 | 66 | 1009.6 |
| 20260507040719 | 77 | 303 | 3.5 | 13.9 | 0.00 | 0.05 | 0.00 | 66 | 1009.6 |
| 20260507040606 | 77 | 303 | 3.5 | 13.9 | 0.00 | 0.05 | 0.00 | 67 | 1009.6 |
| 20260507040404 | 77 | 309 | 3.5 | 13.9 | 0.00 | 0.05 | 0.00 | 67 | 1009.7 |
| 20260507040306 | 76 | 312 | 2.6 | 11.3 | 0.00 | 0.05 | 0.00 | 67 | 1009.6 |
| 20260507040204 | 77 | 307 | 3.5 | 11.3 | 0.00 | 0.05 | 0.00 | 67 | 1009.6 |
| 20260507040105 | 77 | 309 | 3.5 | 9.6 | 0.00 | 0.05 | 0.00 | 68 | 1009.6 |
| 20260507040005 | 76 | 313 | 3.5 | 9.6 | 0.00 | 0.05 | 0.00 | 68 | 1009.5 |
| 20260507035905 | 76 | 312 | 3.5 | 9.6 | 0.00 | 0.05 | 0.00 | 68 | 1009.6 |
| 20260507035806 | 76 | 316 | 3.5 | 9.6 | 0.00 | 0.05 | 0.00 | 67 | 1009.5 |
| 20260507035704 | 76 | 314 | 3.5 | 9.6 | 0.00 | 0.05 | 0.00 | 68 | 1009.6 |
| 20260507035605 | 76 | 312 | 3.5 | 9.6 | 0.00 | 0.05 | 0.00 | 67 | 1009.6 |
| 20260507035505 | 76 | 313 | 3.5 | 9.6 | 0.00 | 0.05 | 0.00 | 68 | 1009.7 |
| 20260507035406 | 76 | 314 | 3.5 | 9.6 | 0.00 | 0.05 | 0.00 | 68 | 1009.5 |
| 20260507035306 | 76 | 317 | 3.5 | 9.6 | 0.00 | 0.05 | 0.00 | 68 | 1009.8 |
| 20260507035204 | 76 | 320 | 3.5 | 9.6 | 0.00 | 0.05 | 0.00 | 68 | 1009.7 |
| 20260507035106 | 77 | 317 | 3.5 | 8.7 | 0.00 | 0.05 | 0.00 | 68 | 1009.6 |
| 20260507035006 | 77 | 313 | 3.5 | 12.2 | 0.00 | 0.05 | 0.00 | 69 | 1009.9 |
| 20260507034906 | 77 | 312 | 3.5 | 12.2 | 0.00 | 0.05 | 0.00 | 69 | 1009.9 |
| 20260507034806 | 77 | 307 | 4.3 | 12.2 | 0.00 | 0.05 | 0.00 | 69 | 1009.7 |
| 20260507034704 | 77 | 307 | 4.3 | 12.2 | 0.00 | 0.05 | 0.00 | 69 | 1009.7 |
| 20260507034606 | 77 | 311 | 4.3 | 12.2 | 0.00 | 0.05 | 0.00 | 69 | 1009.7 |
| 20260507034506 | 77 | 310 | 3.5 | 12.2 | 0.00 | 0.05 | 0.00 | 69 | 1009.7 |
| 20260507034406 | 77 | 310 | 3.5 | 12.2 | 0.00 | 0.05 | 0.00 | 70 | 1009.7 |
| 20260507034321 | 77 | 310 | 3.5 | 12.2 | 0.00 | 0.05 | 0.00 | 70 | 1009.7 |
| 20260507034306 | 77 | 308 | 3.5 | 12.2 | 0.00 | 0.05 | 0.00 | 70 | 1009.8 |
| 20260507034206 | 76 | 305 | 3.5 | 12.2 | 0.00 | 0.05 | 0.00 | 70 | 1009.7 |
| 20260507034006 | 76 | 312 | 3.5 | 11.3 | 0.00 | 0.05 | 0.00 | 71 | 1009.7 |
| 20260507033906 | 76 | 315 | 3.5 | 11.3 | 0.00 | 0.05 | 0.00 | 70 | 1009.6 |
| 20260507033806 | 76 | 322 | 3.5 | 9.6 | 0.00 | 0.05 | 0.00 | 71 | 1009.8 |
| 20260507033720 | 76 | 322 | 3.5 | 9.6 | 0.00 | 0.05 | 0.00 | 71 | 1009.8 |
| 20260507033706 | 76 | 324 | 3.5 | 9.6 | 0.00 | 0.05 | 0.00 | 71 | 1009.9 |
| 20260507033605 | 76 | 324 | 3.5 | 9.6 | 0.00 | 0.05 | 0.00 | 70 | 1009.6 |
| 20260507033405 | 76 | 322 | 3.5 | 9.6 | 0.00 | 0.05 | 0.00 | 71 | 1009.8 |
| 20260507033321 | 76 | 323 | 3.5 | 9.6 | 0.00 | 0.05 | 0.00 | 71 | 1009.8 |
| 20260507033304 | 76 | 324 | 3.5 | 9.6 | 0.00 | 0.05 | 0.00 | 71 | 1009.5 |
| 20260507033220 | 76 | 329 | 3.5 | 9.6 | 0.00 | 0.05 | 0.00 | 71 | 1009.5 |
| 20260507033206 | 76 | 329 | 3.5 | 9.6 | 0.00 | 0.05 | 0.00 | 71 | 1009.6 |
| 20260507033120 | 76 | 330 | 3.5 | 9.6 | 0.00 | 0.05 | 0.00 | 71 | 1009.6 |
| 20260507032820 | 76 | 331 | 3.5 | 9.6 | 0.00 | 0.05 | 0.00 | 72 | 1009.8 |
| 20260507032806 | 76 | 330 | 3.5 | 9.6 | 0.00 | 0.05 | 0.00 | 72 | 1009.6 |
| 20260507032720 | 76 | 328 | 3.5 | 9.6 | 0.00 | 0.05 | 0.00 | 72 | 1009.6 |
| 20260507032706 | 76 | 327 | 3.5 | 9.6 | 0.00 | 0.05 | 0.00 | 72 | 1009.6 |
| 20260507032619 | 76 | 331 | 3.5 | 9.6 | 0.00 | 0.05 | 0.00 | 73 | 1009.6 |
| 20260507032306 | 76 | 336 | 2.6 | 7.8 | 0.00 | 0.05 | 0.00 | 73 | 1009.6 |
| 20260507032219 | 77 | 327 | 2.6 | 11.3 | 0.00 | 0.05 | 0.00 | 73 | 1009.6 |
| 20260507032206 | 77 | 326 | 2.6 | 11.3 | 0.00 | 0.05 | 0.00 | 73 | 1009.7 |
| 20260507032105 | 77 | 321 | 2.6 | 11.3 | 0.00 | 0.05 | 0.00 | 74 | 1009.7 |
| 20260507031905 | 77 | 320 | 3.5 | 11.3 | 0.00 | 0.05 | 0.00 | 74 | 1009.6 |
| 20260507031820 | 77 | 318 | 3.5 | 11.3 | 0.00 | 0.05 | 0.00 | 74 | 1009.6 |
| 20260507031806 | 77 | 317 | 3.5 | 11.3 | 0.00 | 0.05 | 0.00 | 75 | 1009.9 |
| 20260507031705 | 77 | 319 | 3.5 | 11.3 | 0.00 | 0.05 | 0.00 | 75 | 1009.8 |
| 20260507031619 | 77 | 315 | 3.5 | 11.3 | 0.00 | 0.05 | 0.00 | 75 | 1009.8 |
| 20260507031519 | 76 | 312 | 3.5 | 11.3 | 0.00 | 0.05 | 0.00 | 74 | 1009.8 |
| 20260507031505 | 76 | 312 | 3.5 | 11.3 | 0.00 | 0.05 | 0.00 | 74 | 1009.9 |
| 20260507031205 | 76 | 318 | 3.5 | 8.7 | 0.00 | 0.05 | 0.00 | 75 | 1009.9 |
| 20260507031106 | 76 | 323 | 4.3 | 8.7 | 0.00 | 0.05 | 0.00 | 74 | 1010.1 |
| 20260507031005 | 76 | 329 | 4.3 | 18.2 | 0.00 | 0.05 | 0.00 | 75 | 1009.9 |
| 20260507030905 | 76 | 326 | 4.3 | 18.2 | 0.00 | 0.05 | 0.00 | 74 | 1009.9 |
| 20260507030806 | 76 | 328 | 4.3 | 18.2 | 0.00 | 0.05 | 0.00 | 75 | 1010.1 |
| 20260507030705 | 76 | 328 | 4.3 | 18.2 | 0.00 | 0.05 | 0.00 | 74 | 1009.8 |
| 20260507030605 | 76 | 333 | 4.3 | 18.2 | 0.00 | 0.05 | 0.00 | 74 | 1010.0 |
| 20260507030505 | 76 | 333 | 4.3 | 18.2 | 0.00 | 0.05 | 0.00 | 75 | 1009.9 |
| 20260507030406 | 76 | 326 | 4.3 | 18.2 | 0.00 | 0.05 | 0.00 | 75 | 1009.9 |
| 20260507030305 | 76 | 324 | 4.3 | 18.2 | 0.00 | 0.05 | 0.00 | 75 | 1010.2 |
| 20260507030219 | 76 | 324 | 4.3 | 18.2 | 0.00 | 0.05 | 0.00 | 75 | 1010.2 |
| 20260507030205 | 76 | 324 | 4.3 | 18.2 | 0.00 | 0.05 | 0.00 | 75 | 1010.1 |
| 20260507030106 | 76 | 323 | 4.3 | 18.2 | 0.00 | 0.05 | 0.00 | 75 | 1010.1 |
| 20260507030020 | 76 | 321 | 3.5 | 18.2 | 0.00 | 0.05 | 0.00 | 75 | 1010.1 |
| 20260507025905 | 76 | 320 | 3.5 | 11.3 | 0.00 | 0.05 | 0.00 | 75 | 1010.0 |
| 20260507025720 | 76 | 322 | 2.6 | 11.3 | 0.00 | 0.05 | 0.00 | 76 | 1010.1 |
| 20260507025705 | 76 | 322 | 2.6 | 11.3 | 0.00 | 0.05 | 0.00 | 76 | 1010.1 |
| 20260507025606 | 76 | 309 | 2.6 | 11.3 | 0.00 | 0.05 | 0.00 | 76 | 1010.0 |
| 20260507025420 | 76 | 323 | 2.6 | 8.7 | 0.00 | 0.05 | 0.00 | 76 | 1010.0 |
| 20260507025406 | 76 | 324 | 2.6 | 8.7 | 0.00 | 0.05 | 0.00 | 76 | 1010.0 |
| 20260507025306 | 76 | 329 | 2.6 | 8.7 | 0.00 | 0.05 | 0.00 | 77 | 1010.0 |
| 20260507025106 | 76 | 328 | 2.6 | 8.7 | 0.00 | 0.05 | 0.00 | 77 | 1010.2 |
| 20260507025006 | 76 | 326 | 2.6 | 8.7 | 0.00 | 0.05 | 0.00 | 77 | 1010.0 |
| 20260507024906 | 76 | 317 | 2.6 | 12.2 | 0.00 | 0.05 | 0.00 | 77 | 1010.1 |
| 20260507024806 | 76 | 313 | 2.6 | 12.2 | 0.00 | 0.05 | 0.00 | 77 | 1010.0 |
| 20260507024704 | 76 | 314 | 2.6 | 12.2 | 0.00 | 0.05 | 0.00 | 77 | 1010.0 |
| 20260507024606 | 76 | 312 | 2.6 | 12.2 | 0.00 | 0.05 | 0.00 | 78 | 1010.0 |
| 20260507024506 | 76 | 312 | 2.6 | 12.2 | 0.00 | 0.05 | 0.00 | 78 | 1009.9 |
| 20260507024406 | 76 | 310 | 2.6 | 12.2 | 0.00 | 0.05 | 0.00 | 77 | 1009.9 |
| 20260507024306 | 76 | 308 | 2.6 | 12.2 | 0.00 | 0.05 | 0.00 | 77 | 1010.1 |
| 20260507024206 | 76 | 307 | 2.6 | 12.2 | 0.00 | 0.05 | 0.00 | 77 | 1009.8 |
| 20260507024106 | 76 | 306 | 2.6 | 12.2 | 0.00 | 0.05 | 0.00 | 77 | 1010.0 |
| 20260507024007 | 76 | 305 | 2.6 | 12.2 | 0.00 | 0.05 | 0.00 | 78 | 1010.5 |
| 20260507023919 | 76 | 313 | 1.7 | 6.1 | 0.00 | 0.05 | 0.00 | 78 | 1010.5 |
| 20260507023906 | 76 | 313 | 1.7 | 6.1 | 0.00 | 0.05 | 0.00 | 78 | 1010.0 |
| 20260507023806 | 76 | 309 | 1.7 | 6.1 | 0.00 | 0.05 | 0.00 | 78 | 1010.1 |
| 20260507023605 | 76 | 299 | 2.6 | 12.2 | 0.00 | 0.05 | 0.00 | 78 | 1009.9 |
| 20260507023506 | 76 | 300 | 2.6 | 12.2 | 0.00 | 0.05 | 0.00 | 79 | 1010.1 |
| 20260507023405 | 76 | 302 | 3.5 | 12.2 | 0.00 | 0.05 | 0.00 | 79 | 1009.9 |
| 20260507023305 | 76 | 304 | 3.5 | 12.2 | 0.00 | 0.05 | 0.00 | 79 | 1010.1 |
| 20260507023205 | 76 | 304 | 3.5 | 12.2 | 0.00 | 0.05 | 0.00 | 78 | 1010.2 |
| 20260507023105 | 76 | 304 | 3.5 | 12.2 | 0.00 | 0.05 | 0.00 | 79 | 1010.2 |
| 20260507023005 | 76 | 302 | 3.5 | 12.2 | 0.00 | 0.05 | 0.00 | 78 | 1010.1 |
| 20260507022904 | 76 | 299 | 3.5 | 12.2 | 0.00 | 0.05 | 0.00 | 79 | 1010.2 |
| 20260507022804 | 76 | 299 | 3.5 | 12.2 | 0.00 | 0.05 | 0.00 | 79 | 1010.2 |
| 20260507022705 | 76 | 298 | 3.5 | 12.2 | 0.00 | 0.05 | 0.00 | 80 | 1010.4 |
| 20260507022605 | 76 | 299 | 3.5 | 12.2 | 0.00 | 0.05 | 0.00 | 80 | 1010.2 |
| 20260507022506 | 76 | 300 | 3.5 | 9.6 | 0.00 | 0.05 | 0.00 | 80 | 1010.5 |
| 20260507022405 | 75 | 304 | 3.5 | 9.6 | 0.00 | 0.05 | 0.00 | 80 | 1010.4 |
| 20260507022306 | 75 | 305 | 3.5 | 9.6 | 0.00 | 0.05 | 0.00 | 79 | 1010.5 |
| 20260507022221 | 75 | 305 | 3.5 | 11.3 | 0.00 | 0.05 | 0.00 | 79 | 1010.5 |
| 20260507022206 | 75 | 305 | 3.5 | 11.3 | 0.00 | 0.05 | 0.00 | 79 | 1010.4 |
| 20260507022106 | 75 | 302 | 4.3 | 11.3 | 0.00 | 0.05 | 0.00 | 80 | 1010.5 |
| 20260507022018 | 75 | 301 | 4.3 | 12.2 | 0.00 | 0.05 | 0.00 | 80 | 1010.5 |
| 20260507021904 | 75 | 303 | 4.3 | 12.2 | 0.00 | 0.05 | 0.00 | 80 | 1010.4 |
| 20260507021705 | 75 | 313 | 4.3 | 12.2 | 0.00 | 0.05 | 0.00 | 81 | 1010.6 |
| 20260507021606 | 75 | 317 | 4.3 | 12.2 | 0.00 | 0.05 | 0.00 | 81 | 1010.4 |
| 20260507021506 | 75 | 315 | 4.3 | 12.2 | 0.00 | 0.05 | 0.00 | 79 | 1010.5 |
| 20260507021405 | 75 | 309 | 4.3 | 12.2 | 0.00 | 0.05 | 0.00 | 81 | 1010.6 |
| 20260507021306 | 74 | 306 | 4.3 | 12.2 | 0.00 | 0.05 | 0.00 | 81 | 1010.6 |
| 20260507021206 | 74 | 308 | 4.3 | 12.2 | 0.00 | 0.05 | 0.00 | 81 | 1010.6 |
| 20260507021104 | 74 | 313 | 3.5 | 12.2 | 0.00 | 0.05 | 0.00 | 81 | 1010.4 |
| 20260507021020 | 74 | 315 | 3.5 | 11.3 | 0.00 | 0.05 | 0.00 | 82 | 1010.4 |
| 20260507021006 | 74 | 315 | 3.5 | 11.3 | 0.00 | 0.05 | 0.00 | 82 | 1010.6 |
| 20260507020905 | 74 | 317 | 3.5 | 11.3 | 0.00 | 0.05 | 0.00 | 82 | 1010.7 |
| 20260507020705 | 74 | 313 | 2.6 | 11.3 | 0.00 | 0.05 | 0.00 | 82 | 1011.0 |
| 20260507020606 | 74 | 304 | 2.6 | 11.3 | 0.00 | 0.05 | 0.00 | 83 | 1010.6 |
| 20260507020506 | 74 | 307 | 3.5 | 11.3 | 0.00 | 0.05 | 0.00 | 83 | 1010.8 |
| 20260507020406 | 74 | 309 | 2.6 | 11.3 | 0.00 | 0.05 | 0.00 | 83 | 1010.9 |
| 20260507020320 | 74 | 310 | 2.6 | 11.3 | 0.00 | 0.05 | 0.00 | 82 | 1010.9 |
| 20260507020306 | 74 | 312 | 2.6 | 11.3 | 0.00 | 0.05 | 0.00 | 82 | 1010.7 |
| 20260507020204 | 74 | 313 | 2.6 | 11.3 | 0.00 | 0.05 | 0.00 | 83 | 1010.6 |
| 20260507020119 | 74 | 311 | 2.6 | 11.3 | 0.00 | 0.05 | 0.00 | 82 | 1010.6 |
| 20260507020005 | 74 | 312 | 2.6 | 11.3 | 0.00 | 0.05 | 0.00 | 83 | 1011.0 |
| 20260507015805 | 73 | 315 | 3.5 | 11.3 | 0.00 | 0.05 | 0.00 | 83 | 1010.8 |
| 20260507015705 | 73 | 313 | 3.5 | 11.3 | 0.00 | 0.05 | 0.00 | 83 | 1010.7 |
| 20260507015619 | 73 | 315 | 3.5 | 13.0 | 0.00 | 0.05 | 0.00 | 83 | 1010.7 |
| 20260507015605 | 73 | 317 | 3.5 | 13.0 | 0.00 | 0.05 | 0.00 | 83 | 1010.8 |
| 20260507015506 | 73 | 312 | 3.5 | 13.0 | 0.00 | 0.05 | 0.00 | 83 | 1010.7 |
| 20260507015306 | 73 | 308 | 3.5 | 13.0 | 0.00 | 0.05 | 0.00 | 83 | 1010.9 |
| 20260507015205 | 73 | 307 | 3.5 | 13.0 | 0.00 | 0.05 | 0.00 | 83 | 1011.0 |
| 20260507015105 | 73 | 309 | 4.3 | 13.0 | 0.00 | 0.05 | 0.00 | 82 | 1010.9 |
| 20260507015006 | 73 | 306 | 4.3 | 13.0 | 0.00 | 0.05 | 0.00 | 82 | 1010.8 |
| 20260507014906 | 73 | 306 | 4.3 | 13.0 | 0.00 | 0.05 | 0.00 | 83 | 1010.6 |
| 20260507014821 | 73 | 303 | 4.3 | 13.0 | 0.00 | 0.05 | 0.00 | 83 | 1010.6 |
| 20260507014806 | 73 | 304 | 4.3 | 13.0 | 0.00 | 0.05 | 0.00 | 83 | 1010.7 |
| 20260507014718 | 73 | 304 | 5.2 | 13.0 | 0.00 | 0.05 | 0.00 | 83 | 1010.7 |
| 20260507014706 | 73 | 304 | 5.2 | 13.0 | 0.00 | 0.05 | 0.00 | 83 | 1010.9 |
| 20260507014404 | 74 | 311 | 4.3 | 12.2 | 0.00 | 0.05 | 0.00 | 83 | 1010.8 |
| 20260507014306 | 73 | 313 | 4.3 | 12.2 | 0.00 | 0.05 | 0.00 | 83 | 1010.8 |
| 20260507014204 | 74 | 314 | 4.3 | 12.2 | 0.00 | 0.05 | 0.00 | 83 | 1010.9 |
| 20260507014104 | 74 | 313 | 4.3 | 12.2 | 0.00 | 0.05 | 0.00 | 83 | 1010.9 |
| 20260507014006 | 74 | 316 | 3.5 | 12.2 | 0.00 | 0.05 | 0.00 | 83 | 1011.1 |
| 20260507013906 | 74 | 317 | 3.5 | 12.2 | 0.00 | 0.05 | 0.00 | 84 | 1011.0 |
| 20260507013806 | 73 | 322 | 3.5 | 12.2 | 0.00 | 0.05 | 0.00 | 83 | 1010.9 |
| 20260507013706 | 73 | 323 | 3.5 | 12.2 | 0.00 | 0.05 | 0.00 | 84 | 1011.2 |
| 20260507013606 | 73 | 327 | 3.5 | 8.7 | 0.00 | 0.05 | 0.00 | 83 | 1011.0 |
| 20260507013506 | 74 | 323 | 3.5 | 7.8 | 0.00 | 0.05 | 0.00 | 84 | 1011.0 |
| 20260507013406 | 74 | 326 | 3.5 | 7.8 | 0.00 | 0.05 | 0.00 | 83 | 1010.9 |
| 20260507013305 | 74 | 323 | 3.5 | 7.8 | 0.00 | 0.05 | 0.00 | 84 | 1011.0 |
| 20260507013205 | 74 | 321 | 3.5 | 7.8 | 0.00 | 0.05 | 0.00 | 83 | 1010.9 |
| 20260507013104 | 74 | 320 | 3.5 | 7.8 | 0.00 | 0.05 | 0.00 | 84 | 1011.1 |
| 20260507013020 | 74 | 319 | 3.5 | 9.6 | 0.00 | 0.05 | 0.00 | 84 | 1011.1 |
| 20260507013005 | 74 | 319 | 3.5 | 9.6 | 0.00 | 0.05 | 0.00 | 84 | 1011.0 |
| 20260507012906 | 74 | 318 | 3.5 | 9.6 | 0.00 | 0.05 | 0.00 | 84 | 1010.9 |
| 20260507012705 | 74 | 315 | 3.5 | 11.3 | 0.00 | 0.05 | 0.00 | 84 | 1011.1 |
| 20260507012620 | 74 | 313 | 4.3 | 11.3 | 0.00 | 0.05 | 0.00 | 84 | 1011.1 |
| 20260507012606 | 74 | 315 | 4.3 | 11.3 | 0.00 | 0.05 | 0.00 | 85 | 1011.0 |
| 20260507012506 | 74 | 315 | 3.5 | 11.3 | 0.00 | 0.05 | 0.00 | 85 | 1011.0 |
| 20260507012307 | 74 | 316 | 3.5 | 11.3 | 0.00 | 0.05 | 0.00 | 85 | 1011.0 |
| 20260507012205 | 74 | 319 | 3.5 | 11.3 | 0.00 | 0.05 | 0.00 | 85 | 1010.8 |
| 20260507012119 | 74 | 315 | 3.5 | 11.3 | 0.00 | 0.05 | 0.00 | 85 | 1010.8 |
| 20260507012105 | 74 | 315 | 3.5 | 11.3 | 0.00 | 0.05 | 0.00 | 85 | 1011.3 |
| 20260507012020 | 74 | 312 | 3.5 | 11.3 | 0.00 | 0.05 | 0.00 | 85 | 1011.3 |
| 20260507012005 | 74 | 311 | 3.5 | 11.3 | 0.00 | 0.05 | 0.00 | 85 | 1011.2 |
| 20260507011705 | 74 | 308 | 2.6 | 8.7 | 0.00 | 0.05 | 0.00 | 86 | 1011.2 |
| 20260507011604 | 74 | 313 | 2.6 | 8.7 | 0.00 | 0.05 | 0.00 | 86 | 1011.2 |
| 20260507011505 | 74 | 310 | 2.6 | 8.7 | 0.00 | 0.05 | 0.00 | 86 | 1011.2 |
| 20260507011405 | 74 | 313 | 2.6 | 8.7 | 0.00 | 0.05 | 0.00 | 86 | 1011.2 |
| 20260507011305 | 74 | 311 | 2.6 | 8.7 | 0.00 | 0.05 | 0.00 | 86 | 1011.3 |
| 20260507011205 | 74 | 312 | 3.5 | 8.7 | 0.00 | 0.05 | 0.00 | 86 | 1011.4 |
| 20260507011106 | 74 | 315 | 3.5 | 8.7 | 0.00 | 0.05 | 0.00 | 86 | 1011.5 |
| 20260507011005 | 74 | 321 | 3.5 | 8.7 | 0.00 | 0.05 | 0.00 | 86 | 1011.3 |
| 20260507010904 | 74 | 319 | 3.5 | 8.7 | 0.00 | 0.05 | 0.00 | 86 | 1011.3 |
| 20260507010804 | 74 | 321 | 3.5 | 8.7 | 0.00 | 0.05 | 0.00 | 85 | 1011.6 |
| 20260507010706 | 74 | 317 | 3.5 | 8.7 | 0.00 | 0.05 | 0.00 | 85 | 1011.6 |
| 20260507010605 | 74 | 315 | 3.5 | 8.7 | 0.00 | 0.05 | 0.00 | 86 | 1011.4 |
| 20260507010506 | 74 | 314 | 3.5 | 8.7 | 0.00 | 0.05 | 0.00 | 87 | 1011.8 |
| 20260507010404 | 74 | 309 | 3.5 | 8.7 | 0.00 | 0.05 | 0.00 | 86 | 1011.5 |
| 20260507010305 | 74 | 302 | 3.5 | 8.7 | 0.00 | 0.05 | 0.00 | 86 | 1011.5 |
| 20260507010205 | 74 | 298 | 3.5 | 8.7 | 0.00 | 0.05 | 0.00 | 86 | 1011.5 |
| 20260507010119 | 74 | 294 | 3.5 | 8.7 | 0.00 | 0.05 | 0.00 | 86 | 1011.5 |
| 20260507010104 | 74 | 293 | 3.5 | 8.7 | 0.00 | 0.05 | 0.00 | 86 | 1011.5 |
| 20260507010005 | 74 | 289 | 3.5 | 8.7 | 0.00 | 0.05 | 0.00 | 87 | 1011.3 |
| 20260507005804 | 74 | 286 | 3.5 | 8.7 | 0.00 | 0.05 | 0.00 | 87 | 1011.4 |
| 20260507005705 | 74 | 289 | 3.5 | 8.7 | 0.00 | 0.05 | 0.00 | 87 | 1011.4 |
| 20260507005604 | 74 | 289 | 3.5 | 8.7 | 0.00 | 0.05 | 0.00 | 87 | 1011.6 |
| 20260507005505 | 74 | 293 | 3.5 | 8.7 | 0.00 | 0.05 | 0.00 | 87 | 1011.8 |
| 20260507005405 | 74 | 292 | 2.6 | 8.7 | 0.00 | 0.05 | 0.00 | 88 | 1011.5 |
| 20260507005306 | 74 | 303 | 2.6 | 7.0 | 0.00 | 0.05 | 0.00 | 88 | 1011.4 |
| 20260507005206 | 74 | 309 | 2.6 | 7.0 | 0.00 | 0.05 | 0.00 | 88 | 1011.6 |
| 20260507005105 | 74 | 317 | 1.7 | 7.0 | 0.00 | 0.05 | 0.00 | 88 | 1011.5 |
| 20260507005006 | 73 | 320 | 1.7 | 7.0 | 0.00 | 0.05 | 0.00 | 89 | 1011.8 |
| 20260507004905 | 73 | 324 | 1.7 | 7.0 | 0.00 | 0.05 | 0.00 | 89 | 1011.8 |
| 20260507004806 | 73 | 328 | 1.7 | 7.0 | 0.00 | 0.05 | 0.00 | 88 | 1011.5 |
| 20260507004705 | 73 | 326 | 1.7 | 5.2 | 0.00 | 0.05 | 0.00 | 89 | 1011.6 |
| 20260507004606 | 73 | 320 | 1.7 | 5.2 | 0.00 | 0.05 | 0.00 | 89 | 1011.6 |
| 20260507004505 | 73 | 317 | 1.7 | 5.2 | 0.00 | 0.05 | 0.00 | 89 | 1011.9 |
| 20260507004404 | 73 | 318 | 1.7 | 5.2 | 0.00 | 0.05 | 0.00 | 89 | 1011.9 |
| 20260507004306 | 73 | 313 | 1.7 | 5.2 | 0.00 | 0.05 | 0.00 | 89 | 1011.9 |
| 20260507004206 | 73 | 311 | 1.7 | 5.2 | 0.00 | 0.05 | 0.00 | 89 | 1011.6 |
| 20260507004119 | 72 | 312 | 1.7 | 5.2 | 0.00 | 0.05 | 0.00 | 89 | 1011.6 |
| 20260507004106 | 72 | 311 | 1.7 | 5.2 | 0.00 | 0.05 | 0.00 | 89 | 1011.8 |
| 20260507004005 | 72 | 311 | 1.7 | 5.2 | 0.00 | 0.05 | 0.00 | 89 | 1011.9 |
| 20260507003806 | 72 | 304 | 1.7 | 5.2 | 0.00 | 0.05 | 0.00 | 89 | 1011.8 |
| 20260507003704 | 72 | 304 | 1.7 | 5.2 | 0.00 | 0.05 | 0.00 | 89 | 1012.0 |
| 20260507003606 | 72 | 305 | 1.7 | 5.2 | 0.00 | 0.05 | 0.00 | 89 | 1011.9 |
| 20260507003506 | 72 | 302 | 2.6 | 6.1 | 0.00 | 0.05 | 0.00 | 89 | 1011.9 |
| 20260507003419 | 72 | 300 | 2.6 | 6.1 | 0.00 | 0.05 | 0.00 | 89 | 1011.9 |
| 20260507003406 | 72 | 301 | 2.6 | 6.1 | 0.00 | 0.05 | 0.00 | 89 | 1012.2 |
| 20260507003305 | 72 | 302 | 2.6 | 6.1 | 0.00 | 0.05 | 0.00 | 89 | 1012.1 |
| 20260507003120 | 72 | 293 | 2.6 | 6.1 | 0.00 | 0.05 | 0.00 | 89 | 1012.1 |
| 20260507003104 | 72 | 294 | 2.6 | 6.1 | 0.00 | 0.05 | 0.00 | 89 | 1012.0 |
| 20260507003022 | 72 | 293 | 2.6 | 6.1 | 0.00 | 0.05 | 0.00 | 89 | 1012.0 |
| 20260507003004 | 72 | 293 | 2.6 | 6.1 | 0.00 | 0.05 | 0.00 | 89 | 1012.1 |
| 20260507002821 | 72 | 295 | 2.6 | 6.1 | 0.00 | 0.05 | 0.00 | 89 | 1012.2 |
| 20260507002706 | 72 | 297 | 2.6 | 6.1 | 0.00 | 0.05 | 0.00 | 89 | 1012.4 |
| 20260507002506 | 72 | 303 | 2.6 | 6.1 | 0.00 | 0.05 | 0.00 | 89 | 1012.3 |
| 20260507002421 | 72 | 300 | 2.6 | 6.1 | 0.00 | 0.05 | 0.00 | 89 | 1012.3 |
| 20260507002404 | 72 | 300 | 2.6 | 6.1 | 0.00 | 0.05 | 0.00 | 89 | 1012.6 |
| 20260507002306 | 72 | 300 | 2.6 | 6.1 | 0.00 | 0.05 | 0.00 | 89 | 1012.4 |
| 20260507002106 | 72 | 307 | 2.6 | 6.1 | 0.00 | 0.05 | 0.00 | 90 | 1012.5 |
| 20260507002006 | 72 | 309 | 2.6 | 6.1 | 0.00 | 0.05 | 0.00 | 90 | 1012.5 |
| 20260507001905 | 72 | 313 | 1.7 | 6.1 | 0.00 | 0.05 | 0.00 | 89 | 1012.5 |
| 20260507001804 | 72 | 314 | 1.7 | 6.1 | 0.00 | 0.05 | 0.00 | 89 | 1012.5 |
| 20260507001704 | 72 | 319 | 1.7 | 6.1 | 0.00 | 0.05 | 0.00 | 90 | 1012.7 |
| 20260507001605 | 72 | 323 | 1.7 | 6.1 | 0.00 | 0.05 | 0.00 | 90 | 1012.6 |
| 20260507001506 | 72 | 327 | 1.7 | 6.1 | 0.00 | 0.05 | 0.00 | 90 | 1012.4 |
| 20260507001405 | 72 | 336 | 1.7 | 6.1 | 0.00 | 0.05 | 0.00 | 90 | 1012.5 |
| 20260507001305 | 72 | 339 | 1.7 | 3.5 | 0.00 | 0.05 | 0.00 | 90 | 1012.6 |
| 20260507001205 | 72 | 338 | 0.9 | 3.5 | 0.00 | 0.05 | 0.00 | 90 | 1012.6 |
| 20260507001104 | 72 | 333 | 0.9 | 2.6 | 0.00 | 0.05 | 0.00 | 90 | 1012.7 |
| 20260507001022 | 72 | 326 | 0.9 | 2.6 | 0.00 | 0.05 | 0.00 | 90 | 1012.7 |
| 20260507001004 | 72 | 324 | 0.9 | 2.6 | 0.00 | 0.05 | 0.00 | 90 | 1012.7 |
| 20260507000905 | 72 | 319 | 0.9 | 2.6 | 0.00 | 0.05 | 0.00 | 90 | 1012.5 |
| 20260507000719 | 72 | 315 | 0.9 | 2.6 | 0.00 | 0.05 | 0.00 | 90 | 1012.5 |
| 20260507000706 | 72 | 314 | 0.9 | 2.6 | 0.00 | 0.05 | 0.00 | 90 | 1012.5 |
| 20260507000606 | 72 | 309 | 0.9 | 2.6 | 0.00 | 0.05 | 0.00 | 90 | 1012.7 |
| 20260507000406 | 71 | 313 | 0.9 | 2.6 | 0.00 | 0.05 | 0.00 | 90 | 1012.6 |
| 20260507000306 | 71 | 318 | 0.9 | 2.6 | 0.00 | 0.05 | 0.00 | 91 | 1012.6 |
| 20260507000205 | 71 | 317 | 0.9 | 2.6 | 0.00 | 0.05 | 0.00 | 90 | 1012.8 |
| 20260507000106 | 71 | 317 | 0.9 | 2.6 | 0.00 | 0.05 | 0.00 | 90 | 1012.6 |
| 20260507000006 | 71 | 323 | 0.9 | 2.6 | 0.00 | 0.05 | 0.00 | 91 | 1012.6 |
| 20260506235905 | 71 | 339 | 0.9 | 2.6 | 0.00 | 0.05 | 0.00 | 91 | 1012.7 |
| 20260506235806 | 71 | 331 | 0.9 | 2.6 | 0.00 | 0.05 | 0.00 | 91 | 1012.6 |
| 20260506235706 | 71 | 318 | 0.9 | 2.6 | 0.00 | 0.05 | 0.00 | 91 | 1012.6 |
| 20260506235606 | 71 | 308 | 0.9 | 2.6 | 0.00 | 0.05 | 0.00 | 91 | 1012.6 |
| 20260506235519 | 71 | 300 | 0.9 | 2.6 | 0.00 | 0.05 | 0.00 | 91 | 1012.6 |
| 20260506235505 | 71 | 299 | 0.9 | 2.6 | 0.00 | 0.05 | 0.00 | 91 | 1012.7 |
| 20260506235407 | 71 | 293 | 0.9 | 6.1 | 0.00 | 0.05 | 0.00 | 91 | 1012.7 |
| 20260506235320 | 71 | 281 | 0.9 | 6.1 | 0.00 | 0.05 | 0.00 | 91 | 1012.7 |
| 20260506235220 | 71 | 280 | 1.7 | 6.1 | 0.00 | 0.05 | 0.00 | 91 | 1012.6 |
| 20260506235206 | 71 | 281 | 1.7 | 6.1 | 0.00 | 0.05 | 0.00 | 91 | 1012.9 |
| 20260506234905 | 71 | 277 | 0.9 | 6.1 | 0.00 | 0.05 | 0.00 | 91 | 1012.6 |
| 20260506234805 | 71 | 279 | 0.9 | 6.1 | 0.00 | 0.05 | 0.00 | 91 | 1012.8 |
| 20260506234705 | 71 | 280 | 0.9 | 6.1 | 0.00 | 0.05 | 0.00 | 91 | 1013.1 |
| 20260506234620 | 71 | 278 | 0.9 | 6.1 | 0.00 | 0.05 | 0.00 | 91 | 1013.1 |
| 20260506234604 | 71 | 277 | 0.9 | 6.1 | 0.00 | 0.05 | 0.00 | 91 | 1013.1 |
| 20260506234506 | 71 | 276 | 0.9 | 6.1 | 0.00 | 0.05 | 0.00 | 91 | 1012.7 |
| 20260506234305 | 70 | 293 | 1.7 | 8.7 | 0.00 | 0.05 | 0.00 | 91 | 1012.9 |
| 20260506234204 | 70 | 300 | 1.7 | 8.7 | 0.00 | 0.05 | 0.00 | 91 | 1012.9 |
| 20260506234104 | 70 | 307 | 1.7 | 8.7 | 0.00 | 0.05 | 0.00 | 91 | 1012.8 |
| 20260506234021 | 70 | 310 | 1.7 | 8.7 | 0.00 | 0.05 | 0.00 | 91 | 1012.8 |
| 20260506234004 | 70 | 311 | 1.7 | 8.7 | 0.00 | 0.05 | 0.00 | 91 | 1012.9 |
| 20260506233906 | 70 | 308 | 1.7 | 8.7 | 0.00 | 0.05 | 0.00 | 91 | 1012.7 |
| 20260506233706 | 70 | 299 | 2.6 | 8.7 | 0.00 | 0.05 | 0.00 | 91 | 1013.0 |
| 20260506233620 | 70 | 295 | 2.6 | 8.7 | 0.00 | 0.05 | 0.00 | 91 | 1013.0 |
| 20260506233605 | 70 | 296 | 2.6 | 8.7 | 0.00 | 0.05 | 0.00 | 91 | 1013.0 |
| 20260506233504 | 70 | 299 | 2.6 | 8.7 | 0.00 | 0.05 | 0.00 | 91 | 1013.0 |
| 20260506233306 | 70 | 302 | 1.7 | 6.1 | 0.00 | 0.05 | 0.00 | 91 | 1012.9 |
| 20260506233206 | 70 | 296 | 1.7 | 7.0 | 0.00 | 0.05 | 0.00 | 91 | 1012.8 |
| 20260506233106 | 70 | 290 | 1.7 | 7.0 | 0.00 | 0.05 | 0.00 | 91 | 1012.8 |
| 20260506233005 | 70 | 287 | 1.7 | 7.0 | 0.00 | 0.05 | 0.00 | 91 | 1012.9 |
| 20260506232906 | 70 | 295 | 1.7 | 7.0 | 0.00 | 0.05 | 0.00 | 92 | 1013.0 |
| 20260506232806 | 70 | 303 | 1.7 | 7.0 | 0.00 | 0.05 | 0.00 | 92 | 1013.1 |
| 20260506232707 | 69 | 310 | 1.7 | 7.0 | 0.00 | 0.05 | 0.00 | 92 | 1013.1 |
| 20260506232606 | 69 | 322 | 1.7 | 7.0 | 0.00 | 0.05 | 0.00 | 92 | 1013.0 |
| 20260506232506 | 69 | 328 | 1.7 | 7.0 | 0.00 | 0.05 | 0.00 | 92 | 1013.3 |
| 20260506232406 | 69 | 333 | 0.9 | 7.0 | 0.00 | 0.05 | 0.00 | 92 | 1013.2 |
| 20260506232321 | 69 | 339 | 0.9 | 7.0 | 0.00 | 0.05 | 0.00 | 92 | 1013.2 |
| 20260506232307 | 69 | 341 | 0.9 | 7.0 | 0.00 | 0.05 | 0.00 | 92 | 1013.1 |
| 20260506232206 | 69 | 24 | 0.9 | 3.5 | 0.00 | 0.05 | 0.00 | 92 | 1013.0 |
| 20260506232006 | 69 | 67 | 0.9 | 3.5 | 0.00 | 0.05 | 0.00 | 92 | 1013.0 |
| 20260506231906 | 69 | 66 | 0.9 | 5.2 | 0.00 | 0.05 | 0.00 | 92 | 1013.0 |
| 20260506231805 | 69 | 45 | 0.9 | 5.2 | 0.00 | 0.05 | 0.00 | 92 | 1012.9 |
| 20260506231704 | 69 | 351 | 1.7 | 7.0 | 0.00 | 0.05 | 0.00 | 92 | 1013.0 |
| 20260506231605 | 69 | 328 | 1.7 | 7.0 | 0.00 | 0.05 | 0.00 | 92 | 1013.0 |
| 20260506231505 | 69 | 315 | 1.7 | 7.0 | 0.00 | 0.05 | 0.00 | 92 | 1013.1 |
| 20260506231405 | 69 | 314 | 1.7 | 7.0 | 0.00 | 0.05 | 0.00 | 92 | 1013.0 |
| 20260506231306 | 69 | 306 | 2.6 | 7.0 | 0.00 | 0.05 | 0.00 | 92 | 1012.9 |
| 20260506231205 | 69 | 300 | 2.6 | 7.0 | 0.00 | 0.05 | 0.00 | 92 | 1012.9 |
| 20260506231120 | 69 | 298 | 2.6 | 7.0 | 0.00 | 0.05 | 0.00 | 92 | 1012.9 |
| 20260506231104 | 69 | 297 | 2.6 | 7.0 | 0.00 | 0.05 | 0.00 | 92 | 1013.1 |
| 20260506231005 | 69 | 293 | 2.6 | 7.0 | 0.00 | 0.05 | 0.00 | 92 | 1013.0 |
| 20260506230805 | 69 | 293 | 2.6 | 7.0 | 0.00 | 0.05 | 0.00 | 92 | 1012.9 |
| 20260506230705 | 69 | 293 | 2.6 | 7.0 | 0.00 | 0.05 | 0.00 | 92 | 1013.1 |
| 20260506230604 | 69 | 297 | 2.6 | 6.1 | 0.00 | 0.05 | 0.00 | 93 | 1013.1 |
| 20260506230520 | 68 | 300 | 1.7 | 6.1 | 0.00 | 0.05 | 0.00 | 93 | 1013.1 |
| 20260506230504 | 68 | 302 | 1.7 | 6.1 | 0.00 | 0.05 | 0.00 | 93 | 1012.9 |
| 20260506230404 | 68 | 304 | 1.7 | 6.1 | 0.00 | 0.05 | 0.00 | 93 | 1012.9 |
| 20260506230205 | 68 | 311 | 2.6 | 6.1 | 0.00 | 0.05 | 0.00 | 93 | 1013.1 |
| 20260506230104 | 68 | 315 | 2.6 | 6.1 | 0.00 | 0.05 | 0.00 | 93 | 1013.1 |
| 20260506230006 | 68 | 317 | 2.6 | 6.1 | 0.00 | 0.05 | 0.00 | 93 | 1013.1 |
| 20260506225904 | 68 | 318 | 2.6 | 6.1 | 0.00 | 0.05 | 0.05 | 93 | 1013.1 |
| 20260506225804 | 68 | 311 | 1.7 | 5.2 | 0.00 | 0.05 | 0.05 | 93 | 1013.1 |
| 20260506225705 | 68 | 314 | 1.7 | 5.2 | 0.00 | 0.05 | 0.05 | 93 | 1013.0 |
| 20260506225604 | 68 | 311 | 1.7 | 5.2 | 0.00 | 0.05 | 0.05 | 93 | 1012.7 |
| 20260506225505 | 68 | 302 | 1.7 | 5.2 | 0.00 | 0.05 | 0.05 | 93 | 1012.9 |
| 20260506225404 | 68 | 297 | 1.7 | 5.2 | 0.00 | 0.05 | 0.05 | 93 | 1013.0 |
| 20260506225321 | 68 | 297 | 1.7 | 5.2 | 0.00 | 0.05 | 0.05 | 93 | 1013.0 |
| 20260506225306 | 68 | 296 | 1.7 | 5.2 | 0.00 | 0.05 | 0.05 | 93 | 1012.9 |
| 20260506225206 | 67 | 301 | 1.7 | 5.2 | 0.00 | 0.05 | 0.05 | 93 | 1013.1 |